GFSGBSN_con_mucape_000.txt.gz
CAPE
40 81 24 28 41 33 38 10 1 1 0 0 0 0 0 0 0 0 0 0 0 21 36 52 61 70 59 29 10 34 5 0 0 5 13 1 58 85 193 112 34 0 0 0 0 0 0
33 68 48 26 33 32 18 57 34 0 3 3 0 0 0 0 0 0 0 0 3 2 46 72 79 77 41 0 1 0 3 0 0 1 6 8 43 68 49 181 84 5 0 0 0 0 0
23 44 66 37 27 21 15 27 38 2 2 3 0 0 0 0 0 0 0 4 17 42 35 66 82 73 45 0 0 0 0 0 0 0 2 4 5 268 105 240 182 71 26 27 0 0 0
36 51 65 51 32 26 28 21 29 13 1 3 10 0 0 0 0 0 0 6 52 119 60 56 54 51 0 0 0 0 0 0 0 0 0 5 20 67 278 248 219 192 84 59 0 8 0
37 68 58 46 50 39 37 35 55 38 20 1 7 0 0 0 0 1 8 33 70 93 91 61 37 19 0 0 0 0 0 0 0 0 0 10 86 115 357 207 155 178 59 21 15 3 0
26 38 77 69 49 42 31 44 37 16 36 1 13 32 0 0 0 3 6 44 67 38 37 10 40 0 0 0 0 0 0 0 74 232 148 145 67 189 286 110 98 40 44 23 24 1 0
53 34 72 75 69 53 39 37 30 0 25 12 18 38 0 0 0 4 2 0 0 0 0 0 0 0 0 0 0 5 2 0 65 238 102 121 39 34 130 60 74 5 31 33 10 0 0
74 51 44 71 71 68 41 30 22 0 0 1 10 35 50 67 0 3 0 0 0 0 0 0 0 0 19 8 30 35 75 16 48 62 128 51 3 38 48 136 80 53 11 14 18 0 0
70 81 55 71 104 76 51 44 22 0 0 1 9 27 46 49 0 2 0 0 0 0 0 0 0 0 0 15 90 131 122 16 11 15 24 10 0 41 60 106 96 52 14 9 7 0 3
81 83 96 84 86 83 76 69 42 11 0 0 12 19 48 15 0 0 0 0 0 0 0 0 0 0 7 75 36 76 140 17 98 4 17 3 0 95 92 62 80 55 40 9 5 37 43
102 108 103 82 67 68 70 67 56 47 1 0 3 16 44 28 0 0 0 0 0 0 0 0 0 0 0 15 57 68 165 30 49 1 1 9 15 31 92 25 32 53 19 17 12 28 3
96 87 110 111 88 69 66 60 52 55 20 0 0 25 42 53 50 5 0 0 0 0 0 0 0 0 0 28 49 142 116 39 64 12 0 3 17 2 96 10 51 15 0 4 16 4 17
101 90 119 108 84 64 62 53 57 52 39 0 0 37 24 17 3 16 1 0 0 0 0 0 0 0 0 1 12 40 52 19 14 0 0 6 4 36 139 23 18 40 46 38 12 0 4
36 89 117 122 79 61 58 60 58 60 26 0 0 2 12 17 30 48 0 0 0 0 0 0 0 0 0 28 14 44 31 0 1 0 0 4 16 5 43 13 2 0 42 19 0 0 0
1 127 91 89 76 67 67 62 57 48 0 0 0 4 3 0 71 0 0 0 0 0 0 0 2 29 7 25 2 36 0 10 0 0 9 39 13 3 29 0 0 1 0 2 0 0 0
1 41 103 91 79 72 74 60 54 40 1 0 0 0 0 1 0 0 0 0 0 0 0 13 0 7 0 0 0 13 0 0 0 0 0 6 36 1 45 17 9 38 0 0 0 0 0
0 3 112 103 76 65 63 53 56 29 0 0 0 0 0 0 1 0 0 0 0 2 0 0 0 0 0 0 0 0 0 0 0 0 0 0 0 8 14 5 0 1 0 0 0 0 0
5 0 49 106 75 57 57 43 58 16 0 0 0 0 1 11 3 0 0 0 0 0 0 0 0 0 0 0 0 0 0 0 0 0 0 0 0 3 0 0 1 0 0 8 13 0 0
80 2 19 105 63 48 41 36 0 0 0 0 0 0 8 1 0 0 0 0 0 0 0 0 0 2 0 0 0 0 0 0 0 0 0 0 0 0 0 1 0 24 3 0 0 0 0
63 1 3 49 71 40 28 11 0 0 0 0 0 0 3 3 0 0 0 0 0 0 0 33 4 2 0 0 0 0 0 4 0 0 0 0 0 0 0 0 0 0 7 3 0 0 1
77 0 3 35 83 52 31 0 0 0 2 0 0 0 4 0 0 0 0 0 0 0 48 33 4 0 0 0 0 0 0 0 1 1 0 0 0 0 0 0 0 0 0 2 0 0 0
75 0 10 16 47 67 40 3 0 0 0 0 0 0 0 0 0 0 0 0 0 0 0 0 11 0 0 0 0 0 0 0 0 0 0 0 0 0 0 0 0 0 0 0 0 0 0
56 0 8 12 33 62 38 3 0 1 0 0 0 0 0 0 0 0 0 0 0 0 0 0 0 3 0 0 0 1 3 0 0 0 1 1 0 0 0 0 0 0 0 0 0 0 0
34 0 3 9 36 50 26 1 0 2 0 0 0 0 0 0 0 0 0 0 0 0 0 0 0 0 0 6 0 5 0 0 0 0 2 0 0 0 0 0 0 0 0 0 0 0 0
56 0 1 23 31 48 10 1 0 0 0 0 1 0 0 0 0 0 5 0 0 0 0 0 0 0 14 22 9 0 0 0 2 4 3 0 0 0 0 0 0 0 0 0 0 0 0
73 0 0 8 24 28 4 0 0 0 0 0 0 0 0 0 0 1 13 0 0 0 0 0 4 3 5 24 0 0 0 0 0 0 0 0 5 0 0 0 0 0 0 0 0 0 0
75 0 0 1 38 19 1 0 0 0 0 0 0 0 0 0 0 0 0 0 0 0 0 0 1 7 3 11 4 15 0 0 0 0 0 0 0 0 0 0 0 0 0 4 0 0 0
61 48 0 1 11 34 10 0 0 0 4 2 0 0 0 0 0 0 0 0 0 0 0 0 0 4 0 0 0 0 4 0 0 0 0 0 0 0 0 0 0 0 0 0 0 0 0
60 42 0 0 67 40 12 1 0 0 4 5 0 0 0 0 0 0 0 0 1 2 0 0 0 0 0 0 0 0 0 0 0 0 0 0 0 0 0 0 0 0 0 0 0 0 0

GFSGBSN_con_mucape_003.txt.gz
CAPE
27 40 56 55 32 24 37 35 6 0 0 1 0 0 0 0 0 0 0 0 0 0 0 26 53 53 59 0 8 40 0 0 0 7 19 4 0 0 64 43 46 36 15 3 2 12 0
41 36 44 63 53 27 22 21 46 11 0 1 4 0 0 0 0 0 0 0 0 0 0 14 70 84 54 0 4 28 20 0 0 6 31 31 3 0 10 93 90 48 64 23 15 16 0
61 33 39 65 69 59 26 22 25 40 7 0 2 7 0 0 0 0 0 0 0 0 0 0 41 53 11 0 2 3 0 0 0 0 10 33 49 36 28 96 38 164 110 57 17 35 4
47 45 55 51 72 69 61 54 44 34 8 0 1 9 24 0 0 0 0 0 2 0 0 0 18 50 0 0 6 2 0 0 0 0 0 5 83 24 31 85 77 135 189 70 20 44 9
32 66 69 68 46 63 71 70 65 37 26 15 7 6 11 2 0 0 4 4 0 37 27 14 30 24 0 0 0 0 1 0 3 0 0 4 85 51 53 88 185 207 158 52 74 46 9
24 55 82 83 70 44 36 62 79 73 52 53 36 26 20 31 22 0 5 2 4 36 10 37 34 0 0 0 0 0 0 1 6 23 46 27 75 70 71 196 129 153 91 98 127 32 20
32 49 78 80 84 73 39 58 74 77 50 62 48 35 32 27 51 64 12 0 0 0 0 0 0 0 0 0 0 0 0 8 9 28 48 61 99 86 10 0 114 123 229 170 150 53 50
71 73 69 80 92 78 76 66 57 70 40 58 0 29 36 21 31 66 0 1 0 0 0 0 0 0 0 0 0 0 4 16 14 27 33 144 221 63 43 27 192 192 202 230 109 56 2
128 96 82 91 86 99 98 86 46 42 41 33 0 0 15 13 41 37 0 0 3 0 0 0 0 0 0 0 0 22 27 46 41 42 57 226 115 121 109 5 278 204 184 179 92 37 0
157 157 113 93 107 80 83 78 69 51 54 41 0 0 0 30 17 10 0 5 2 0 0 0 0 0 0 0 0 20 66 71 37 98 145 140 138 214 149 83 67 251 95 36 61 63 39
0 13 102 93 92 87 73 76 68 71 52 45 0 0 0 15 34 50 4 9 2 0 0 0 0 0 0 0 0 1 56 147 111 151 109 0 104 99 104 0 4 104 1 69 103 149 100
0 0 94 104 102 112 87 77 73 59 53 4 0 0 0 48 40 31 16 5 0 0 0 0 0 0 0 0 0 42 43 149 138 58 97 0 27 57 31 29 1 72 107 110 116 90 26
0 0 0 125 97 112 87 73 66 64 41 26 0 0 0 11 27 14 4 0 0 0 0 0 0 0 0 0 0 57 53 85 93 45 122 0 0 47 7 63 71 34 49 104 28 80 13
4 0 0 14 105 89 77 86 73 75 62 9 7 3 0 0 71 40 0 0 0 0 0 0 0 0 0 0 0 50 47 92 31 0 0 0 0 8 4 16 0 4 13 0 0 0 14
43 21 0 18 15 101 93 86 78 65 44 10 5 0 0 6 55 0 0 0 0 0 0 0 0 0 19 0 0 5 3 89 0 0 0 0 0 0 21 58 0 14 79 14 16 10 59
52 8 0 14 32 114 110 111 84 61 18 7 0 0 1 1 46 0 0 0 0 0 0 0 0 31 55 40 11 0 0 2 0 6 13 0 0 0 25 30 7 5 52 13 24 0 0
80 68 0 2 10 102 98 106 92 73 13 6 3 0 0 0 0 1 0 0 0 0 0 0 5 0 25 0 0 0 0 0 0 2 6 2 0 22 7 8 5 5 36 26 28 15 60
126 74 102 1 30 29 111 95 88 86 13 8 0 0 24 11 0 2 0 0 0 2 15 28 6 0 13 0 0 0 0 0 0 1 0 0 0 9 3 4 2 31 18 41 101 1 1
104 78 79 0 47 43 44 83 78 81 18 1 1 0 25 29 0 0 0 0 0 1 37 6 13 5 0 0 0 0 0 0 0 0 0 0 0 1 11 6 12 14 0 54 55 3 9
81 78 68 0 26 33 16 48 52 61 16 0 1 0 0 0 9 0 0 0 0 0 0 0 4 33 3 0 0 0 0 0 0 0 9 0 0 0 14 0 0 0 3 0 0 0 0
83 81 15 18 15 37 27 32 28 55 14 0 1 0 0 0 0 0 0 0 0 0 8 0 21 25 2 0 1 2 0 0 0 0 0 0 0 0 0 1 0 0 9 0 2 6 0
115 76 63 0 22 30 7 19 16 8 1 0 0 0 0 0 9 3 0 0 0 0 0 2 21 15 10 1 0 0 1 0 0 0 0 0 0 0 0 0 0 0 0 0 0 0 0
91 93 75 0 23 25 34 19 11 6 2 0 0 0 0 0 27 10 0 0 0 0 0 0 27 22 21 6 1 1 1 3 0 0 0 0 0 0 0 0 0 0 0 0 0 0 0
81 80 75 9 6 13 16 8 8 6 4 0 0 0 0 0 0 0 0 0 0 0 0 0 0 6 11 9 0 39 36 23 9 0 0 5 1 0 0 0 0 0 0 0 0 0 0
81 78 74 0 0 3 10 17 4 8 5 0 0 0 0 0 0 0 0 0 0 0 0 0 0 0 7 11 0 2 0 0 1 0 1 1 1 0 0 0 1 0 0 0 0 0 0
86 78 73 0 0 13 4 16 21 8 1 0 0 2 3 0 0 0 1 0 0 0 0 0 0 10 6 0 0 0 0 0 0 0 0 0 0 0 0 0 0 0 0 0 0 0 0
55 78 71 42 0 9 18 17 10 1 0 0 0 3 4 0 0 0 0 0 0 0 0 0 0 0 2 18 5 30 0 0 0 0 0 0 0 0 0 0 0 0 0 0 0 0 0
42 77 63 51 0 6 8 1 8 0 0 0 0 3 0 0 0 0 0 0 0 0 0 0 0 0 0 6 2 0 0 0 0 0 0 0 0 0 0 0 0 0 0 0 0 0 0
48 75 64 59 0 14 1 9 15 4 1 4 0 6 1 0 0 0 0 0 0 0 0 0 0 0 0 1 4 0 0 0 0 0 0 0 0 0 0 0 0 0 0 0 0 0 0

GFSGBSN_con_mucape_006.txt.gz
CAPE
23 46 61 45 37 59 42 50 55 22 11 5 1 3 4 0 0 0 0 0 0 0 0 12 36 50 9 0 0 11 0 0 0 0 2 1 6 0 0 20 43 20 15 10 1 0 1
20 43 71 49 51 80 60 17 43 42 29 23 12 4 5 0 0 0 0 0 0 0 0 39 48 66 2 0 0 0 19 2 0 6 24 36 30 6 0 13 37 50 38 23 11 1 1
21 15 48 59 54 70 85 52 38 35 24 38 22 2 20 19 0 0 0 0 0 0 0 47 53 27 0 0 0 0 15 1 0 0 0 36 20 45 27 11 29 50 58 70 13 5 7
16 16 12 48 59 78 82 79 60 43 16 24 22 20 22 38 27 0 0 0 0 0 56 50 52 37 0 0 0 0 0 0 0 0 0 0 19 40 39 27 36 49 57 20 0 7 9
21 7 23 39 49 81 94 98 84 62 20 20 17 33 27 49 52 59 7 0 1 1 2 56 13 0 0 0 0 0 0 0 0 0 0 0 0 18 49 28 8 47 9 1 0 16 5
10 10 46 52 68 69 93 101 91 86 73 55 58 56 51 44 66 67 55 0 0 0 11 0 0 0 0 0 0 0 0 1 0 0 0 17 21 26 27 9 0 0 32 2 9 4 45
36 91 100 93 90 97 86 100 89 92 87 69 61 51 46 67 66 65 36 0 0 0 0 0 0 0 0 0 0 0 0 1 1 0 0 5 0 0 0 0 0 7 21 155 26 85 84
0 52 115 131 121 109 102 93 101 98 94 76 61 32 0 66 74 65 49 0 0 0 0 3 0 0 0 0 0 0 0 0 0 0 0 0 0 0 0 1 15 2 26 25 56 166 81
23 14 98 124 140 121 138 87 98 101 93 70 49 24 0 0 53 43 17 2 0 0 0 0 0 0 0 0 0 0 0 0 0 0 0 0 0 0 9 13 25 26 23 88 60 147 117
57 2 17 4 62 123 99 89 73 92 84 65 42 26 0 0 0 0 0 36 7 13 0 0 0 0 0 0 0 0 0 0 0 0 0 0 0 2 8 10 4 0 0 24 16 110 14
80 74 1 7 26 4 130 100 83 76 71 60 38 27 0 0 0 0 3 13 16 5 0 0 0 0 0 0 0 0 0 7 0 0 0 0 0 0 23 0 4 1 7 31 20 8 29
106 98 44 64 2 0 61 118 94 85 72 53 19 4 0 0 0 8 15 11 0 0 0 0 0 0 0 0 0 0 0 44 26 39 22 12 40 73 48 13 0 17 21 11 67 65 20
140 121 96 75 26 0 25 122 117 90 78 57 18 5 5 2 0 1 1 12 0 0 0 0 0 0 0 0 0 0 0 0 0 0 31 14 12 46 51 50 121 151 94 0 0 0 0
183 179 131 86 19 17 19 72 121 108 91 54 21 12 9 3 2 17 6 0 0 0 0 0 0 0 0 0 0 0 0 1 46 24 18 1 6 2 0 17 98 71 19 19 0 0 1
177 169 138 106 15 12 5 131 149 110 65 58 24 13 3 0 4 10 0 0 0 0 0 0 0 0 0 51 0 0 5 23 0 4 0 173 0 9 0 16 79 47 0 0 0 1 0
182 177 136 99 24 0 19 47 186 132 43 67 28 16 3 0 0 10 0 0 0 0 0 0 0 0 0 0 0 0 10 0 4 11 0 4 4 2 29 40 11 16 0 0 13 1 9
153 160 109 114 66 0 20 48 42 154 86 66 28 12 7 0 0 0 0 0 0 0 0 0 0 0 0 0 0 0 0 0 0 0 0 0 0 10 2 69 2 14 0 13 0 17 6
124 144 68 80 0 21 35 39 25 134 63 63 40 22 4 0 0 0 0 0 0 0 0 0 0 8 0 0 0 0 0 0 0 0 4 7 0 1 0 2 0 1 0 8 21 15 13
95 80 84 70 69 55 48 39 15 147 55 40 18 17 3 0 0 0 0 0 0 0 0 0 0 0 0 0 0 0 0 3 0 0 0 0 5 0 12 0 0 0 1 9 3 0 20
36 83 83 74 71 0 14 1 33 135 40 40 18 10 10 0 0 0 0 0 0 0 0 0 0 2 0 0 0 0 0 0 0 0 5 0 0 30 0 0 0 0 0 0 2 9 0
29 70 76 87 78 0 4 10 40 123 53 37 12 5 1 0 0 0 0 0 0 0 0 0 1 0 0 0 0 0 0 0 0 1 25 0 0 0 0 0 0 4 5 0 9 0 0
20 36 80 85 73 0 4 1 0 65 54 28 28 11 9 0 0 0 0 0 0 0 0 0 0 16 19 0 0 0 0 0 0 0 0 0 0 0 0 4 5 3 4 0 0 0 0
27 21 83 75 74 0 2 0 1 65 29 28 11 0 0 0 0 0 0 4 0 0 0 0 0 0 29 12 9 8 3 0 3 0 0 0 0 0 0 0 0 0 0 0 0 0 0
48 26 69 74 75 0 1 0 0 69 40 14 10 0 1 0 0 0 3 0 0 0 0 0 8 4 33 24 32 20 9 0 0 0 0 0 0 0 0 0 0 0 0 0 0 0 0
49 27 48 57 56 0 0 0 1 4 27 12 10 1 0 0 0 0 0 0 0 0 0 0 2 2 26 26 29 36 1 0 0 0 0 0 0 0 0 0 0 2 0 0 0 0 0
40 22 41 52 49 0 0 11 3 19 42 13 2 2 0 0 2 0 0 0 0 0 0 0 0 0 3 1 20 0 0 0 0 0 0 0 0 0 0 0 0 0 0 0 0 0 0
48 28 48 67 58 0 0 0 2 12 15 12 0 2 6 0 1 3 0 0 0 0 0 0 0 0 0 0 0 0 0 2 0 0 0 0 0 0 0 0 0 0 0 0 0 0 0
33 31 31 64 54 0 0 0 9 23 10 8 0 0 8 0 0 7 0 0 0 0 0 0 0 0 0 0 5 0 0 0 0 0 0 0 2 1 0 0 1 0 0 0 0 0 0
31 44 28 64 59 0 0 0 0 8 1 7 0 0 13 8 0 0 0 0 0 0 0 0 0 0 0 0 0 2 0 0 0 0 0 0 0 1 0 0 0 0 0 0 0 0 0

GFSGBSN_con_mucape_009.txt.gz
CAPE
25 12 19 5 44 59 69 75 68 75 31 14 1 1 4 6 3 0 0 0 0 0 0 0 0 58 4 0 0 4 0 0 0 0 4 11 7 0 0 0 0 1 0 0 0 0 0
81 66 23 14 10 61 58 68 71 75 51 36 22 10 1 2 9 0 0 0 0 0 0 0 0 45 0 0 0 0 0 0 0 0 0 7 5 3 0 0 3 9 11 0 0 0 0
16 91 56 13 38 57 56 76 81 62 41 34 44 25 17 0 8 0 0 0 0 0 0 0 0 0 0 0 0 0 18 1 0 0 0 4 33 42 24 0 0 9 6 0 0 0 0
15 11 92 41 51 45 58 73 86 99 55 28 49 44 24 16 1 18 10 0 0 0 0 0 0 0 0 0 0 0 0 0 0 0 0 10 17 4 3 13 0 0 2 0 1 0 0
4 9 27 51 61 68 70 77 83 100 106 47 51 52 40 29 32 38 39 28 0 0 0 0 0 0 0 0 0 0 0 0 0 0 0 0 3 0 0 0 0 0 0 0 11 0 17
33 22 18 27 114 90 71 95 92 104 106 90 78 65 53 42 29 41 42 5 6 0 0 0 0 0 0 0 0 0 0 0 0 0 0 0 0 0 0 0 0 0 0 0 0 0 24
21 24 30 0 127 131 76 131 149 96 90 95 82 64 53 40 37 41 5 0 0 0 20 0 0 0 0 0 0 0 0 0 0 0 0 0 0 0 0 0 0 0 0 0 0 0 22
56 32 24 40 48 12 147 149 108 126 98 96 89 65 69 58 46 65 1 0 0 0 0 0 0 0 0 1 0 0 0 0 0 0 0 0 0 0 0 0 0 0 0 0 0 0 49
60 62 67 51 7 17 38 132 145 104 165 104 93 72 63 55 54 0 0 0 0 1 0 0 0 0 0 0 0 0 0 0 0 0 0 0 0 0 0 0 0 0 0 0 0 0 21
85 64 94 65 70 40 0 4 73 127 89 92 78 80 57 58 0 0 0 0 7 25 0 0 0 0 0 0 0 0 0 0 0 0 0 0 0 0 0 0 0 0 0 1 7 31 18
88 92 105 86 91 44 8 0 20 111 108 93 88 83 47 0 0 0 0 0 35 13 0 0 0 0 0 0 0 0 0 0 0 0 0 0 0 0 0 0 7 0 0 0 27 47 36
72 112 116 120 144 83 99 2 10 27 142 86 92 48 35 1 0 0 2 8 9 0 0 0 0 0 0 0 0 0 0 0 0 0 0 0 0 0 0 0 0 1 8 16 51 40 0
81 102 137 159 177 112 78 20 36 2 140 121 40 56 32 11 0 3 5 0 0 0 0 0 0 0 0 0 0 7 0 0 1 2 0 0 0 0 14 3 7 17 1 0 0 0 0
80 117 183 177 158 167 114 3 12 1 150 143 17 38 24 18 8 0 0 0 0 0 0 0 0 0 0 0 0 0 0 0 0 0 0 0 0 0 0 1 0 0 0 0 0 0 0
106 126 193 151 105 103 109 34 0 34 109 163 49 28 32 23 10 4 0 0 0 0 0 0 0 0 0 0 0 14 0 0 0 0 0 11 0 2 2 38 63 0 0 0 2 34 45
76 91 119 86 132 138 8 16 5 28 73 177 63 27 22 39 0 0 0 0 0 0 0 0 0 0 0 0 3 0 0 0 0 0 0 0 2 0 1 9 39 102 10 27 21 0 0
81 66 72 104 92 89 0 0 27 12 20 107 117 20 13 27 0 0 0 0 0 0 0 0 0 0 0 0 0 0 0 0 0 0 2 0 0 17 76 10 14 2 50 38 15 1 23
70 102 71 103 71 105 38 0 0 3 8 52 11 8 16 24 3 0 0 0 0 0 0 0 0 0 0 0 0 0 0 0 0 0 0 0 2 11 17 5 14 35 17 8 1 36 2
92 100 50 110 71 91 29 0 0 0 18 0 0 19 3 16 1 0 0 0 0 0 0 0 0 0 17 0 0 0 0 0 0 0 0 0 13 0 0 1 37 3 34 59 0 0 1
93 87 46 114 82 78 16 0 16 11 51 0 14 14 5 1 8 0 0 0 0 0 0 0 0 0 1 0 0 0 0 0 0 0 0 0 0 2 0 0 0 0 0 0 10 0 2
102 74 43 37 76 72 27 0 22 3 17 24 11 5 0 0 0 0 0 0 0 0 0 0 0 0 0 0 0 0 0 0 0 0 0 0 0 0 0 0 0 0 0 0 3 0 3
89 57 43 28 84 68 35 0 2 1 0 23 0 6 1 0 2 0 0 0 0 0 0 0 0 0 0 0 0 0 0 0 0 0 0 0 0 1 0 0 0 0 0 1 1 0 0
93 50 54 32 48 74 78 0 0 0 24 21 5 6 10 5 0 0 0 0 0 0 0 0 0 0 0 0 15 2 5 0 0 0 0 0 0 0 17 8 1 0 0 4 0 5 0
82 38 49 30 62 70 88 0 1 0 1 21 10 0 0 2 0 0 0 0 0 0 0 0 0 0 0 39 13 15 25 0 0 0 0 0 0 0 0 0 0 0 0 0 0 0 0
86 45 42 31 66 65 39 0 0 0 0 62 15 9 2 0 0 0 0 0 19 0 0 0 0 0 4 36 44 19 0 0 0 0 0 5 0 0 0 0 0 0 0 0 0 0 0
85 48 34 37 59 55 53 0 0 0 0 1 18 2 13 0 0 0 0 0 0 0 0 0 0 11 6 20 34 0 0 0 0 0 0 0 0 0 0 0 0 0 0 0 0 0 0
88 77 28 32 40 47 53 0 0 6 15 6 16 5 4 0 0 0 0 0 0 0 0 0 0 7 1 13 0 0 0 0 0 0 1 0 0 0 0 0 0 0 0 0 0 0 0
84 76 27 31 23 55 52 0 0 3 18 18 1 14 0 0 0 0 0 4 0 0 0 0 0 0 1 0 0 0 15 0 0 0 0 7 0 0 0 2 2 0 0 0 0 0 0
93 63 34 28 19 37 48 0 0 2 21 9 2 9 0 0 0 0 0 0 0 0 0 0 0 0 0 0 0 0 1 0 0 0 0 0 0 0 0 0 0 0 0 0 0 0 0

GFSGBSN_con_mucape_012.txt.gz
CAPE
31 19 69 85 6 14 30 101 118 103 59 65 31 17 4 4 6 1 0 0 0 0 0 0 0 9 0 0 0 0 0 0 13 42 33 7 0 0 0 0 0 0 0 0 0 0 0
3 15 29 35 114 70 2 26 73 107 98 76 56 30 20 1 7 4 0 0 0 0 0 0 0 0 0 0 0 0 0 0 0 2 0 17 0 0 0 0 0 0 0 0 0 0 0
18 0 10 18 37 60 66 67 60 125 122 69 73 61 58 15 5 7 0 0 0 0 0 0 0 0 0 0 0 0 0 0 0 1 0 18 13 36 0 0 0 0 0 0 0 0 0
34 33 26 4 0 26 77 104 114 123 150 117 70 97 64 42 15 26 5 21 0 0 0 0 0 0 0 0 0 0 0 0 0 4 5 11 6 0 0 0 0 0 0 0 0 0 0
20 28 34 28 0 0 117 132 121 121 141 124 106 95 84 48 52 54 53 29 11 14 0 0 0 0 0 0 0 0 0 0 0 0 0 17 15 0 0 0 0 0 0 0 0 0 0
29 27 26 40 35 0 15 10 92 139 120 126 108 100 89 67 64 73 59 30 12 16 30 2 3 0 0 0 0 0 0 0 0 0 0 0 0 0 0 0 0 0 0 0 0 5 1
50 32 56 37 42 45 3 23 33 130 128 136 96 90 80 81 54 65 11 0 0 0 0 0 0 0 0 0 0 0 0 0 0 0 0 0 0 0 0 0 0 0 0 0 0 0 0
49 45 63 66 58 59 34 9 26 32 133 111 91 84 92 91 71 68 0 0 0 0 0 0 0 0 0 0 0 0 0 0 0 0 0 0 0 0 0 0 0 0 0 0 0 0 0
40 40 53 92 64 41 62 26 4 1 156 97 96 96 82 94 78 33 0 0 0 0 0 0 0 0 0 0 0 0 0 0 0 0 0 0 0 0 0 0 0 0 0 0 0 0 0
81 78 66 87 83 100 68 66 6 1 12 84 119 114 98 77 9 0 0 0 0 0 0 0 0 0 0 0 0 0 0 0 0 0 0 0 0 0 0 0 0 0 0 0 0 0 0
105 115 77 80 117 107 115 101 47 3 5 78 95 138 97 27 0 0 0 0 4 0 0 0 0 0 0 0 0 0 0 0 0 0 0 0 0 0 0 0 0 0 0 0 0 0 0
106 86 116 100 183 160 119 145 91 61 7 56 79 137 58 11 1 0 0 0 0 0 0 0 0 0 0 0 0 0 0 0 0 0 0 0 0 0 0 0 0 23 0 0 0 0 0
103 65 58 108 108 189 148 149 120 82 18 5 29 107 32 11 0 0 0 0 0 0 0 0 0 0 0 0 0 0 0 0 0 0 0 0 0 0 0 0 0 0 0 0 0 0 0
114 108 77 64 94 128 66 185 137 65 21 0 0 69 50 9 21 7 9 0 0 0 0 0 0 0 0 0 0 0 0 0 0 0 0 0 0 0 0 0 0 0 0 0 0 0 0
122 122 62 61 70 67 5 209 88 84 20 8 0 17 14 44 20 16 4 0 0 0 0 0 0 0 0 0 0 0 0 0 0 0 0 0 2 0 0 0 7 0 0 0 0 13 15
119 111 70 68 46 85 35 93 100 78 12 62 7 20 46 11 5 13 0 0 0 0 0 0 0 0 0 0 0 0 0 0 0 0 0 0 0 0 0 2 6 13 6 0 0 0 0
120 118 93 48 38 96 56 98 41 55 2 42 0 13 0 28 19 8 0 0 0 0 0 0 0 1 0 0 0 0 0 0 0 0 0 0 0 0 0 0 12 10 12 7 0 0 0
103 103 83 42 38 86 64 91 55 0 0 0 2 1 1 2 0 2 0 0 0 0 0 0 0 0 0 0 0 0 0 0 0 0 0 0 0 0 0 0 0 2 0 0 0 0 0
137 113 86 35 49 121 74 103 0 0 0 5 6 0 2 0 0 0 0 0 0 0 0 0 0 0 0 0 0 0 0 0 0 0 0 0 0 0 0 0 0 32 0 2 1 18 0
105 107 84 42 66 95 111 81 0 6 5 8 0 0 0 6 0 0 0 0 0 0 0 0 0 0 0 0 0 0 0 0 0 0 0 0 0 0 1 9 0 1 0 0 0 0 0
97 89 95 41 49 62 122 102 0 0 12 6 0 0 0 1 0 0 0 0 0 0 0 0 0 0 0 0 0 0 0 0 0 0 0 0 0 9 0 0 0 19 0 18 0 0 2
93 85 90 46 48 34 79 83 0 0 1 0 0 0 0 0 0 0 0 0 0 0 0 0 0 0 0 0 0 0 0 0 0 0 0 0 1 3 0 0 0 29 0 0 0 0 0
93 83 84 40 32 38 62 76 0 0 0 0 0 5 11 0 0 0 0 0 0 0 0 0 0 0 0 0 0 2 22 0 0 0 0 0 0 5 0 0 0 0 0 0 0 0 0
85 81 79 51 36 39 58 68 0 0 1 0 0 9 4 0 0 0 0 0 0 0 1 0 0 0 1 15 35 9 25 10 0 0 0 0 1 5 8 2 0 0 0 0 0 0 0
100 82 79 66 31 30 45 10 0 0 0 0 4 21 1 4 9 1 0 0 0 0 0 0 0 0 0 2 14 2 0 0 0 0 0 0 0 0 0 0 0 0 0 2 0 0 0
92 87 71 53 30 30 36 61 0 0 2 9 0 6 7 1 0 5 0 0 0 0 0 0 0 0 0 6 1 0 0 0 0 0 0 0 0 0 0 0 0 0 0 0 0 0 0
94 85 69 35 33 26 27 56 0 0 0 0 22 18 4 9 3 0 0 0 0 0 0 0 0 0 8 0 0 0 0 0 0 0 0 0 0 0 0 0 0 0 0 0 0 0 0
90 83 69 25 35 33 15 48 0 0 0 0 2 6 8 0 0 0 0 0 0 0 0 0 0 0 0 0 0 0 0 0 0 0 0 0 0 0 0 0 0 0 0 0 0 0 0
88 83 75 27 23 28 14 34 0 0 11 9 18 12 6 1 0 0 0 0 0 0 0 0 0 0 13 0 0 0 37 0 0 0 0 0 0 0 0 0 0 0 0 0 0 0 0

GFSGBSN_con_mucape_015.txt.gz
CAPE
21 5 2 8 27 18 30 105 121 106 61 95 101 61 28 14 16 27 15 5 0 0 0 0 0 0 0 0 0 0 0 0 2 38 21 23 0 0 0 0 0 0 0 0 0 0 0
19 17 15 0 0 9 27 29 134 124 74 64 168 88 55 24 15 24 22 16 0 0 0 0 0 0 0 0 0 0 0 0 2 48 40 32 1 0 0 0 0 0 0 0 0 0 0
17 25 19 17 24 0 0 1 19 118 100 67 110 132 88 70 17 18 26 25 28 0 0 0 0 0 0 0 0 0 0 0 0 0 0 8 32 0 0 0 0 0 0 0 0 0 0
26 27 24 33 21 28 15 0 10 3 94 107 142 146 114 101 56 29 34 29 33 43 0 0 0 0 0 0 0 0 0 0 0 0 0 0 43 0 0 0 0 0 0 0 0 0 0
19 22 26 23 39 33 31 18 1 17 11 105 124 105 151 96 71 53 72 46 27 25 32 0 0 0 0 0 0 0 0 0 0 0 0 3 0 0 0 0 0 0 0 0 0 0 0
28 21 21 23 36 54 50 47 0 10 34 17 126 118 101 104 90 70 72 65 35 29 41 15 1 0 0 0 0 0 0 0 0 0 0 0 0 0 0 0 0 0 0 0 0 0 1
31 30 32 20 28 47 62 44 37 2 6 2 14 104 113 96 101 96 50 0 0 0 0 0 0 0 0 0 0 0 0 0 0 0 0 0 0 0 0 0 0 0 0 0 0 0 0
70 70 57 69 34 84 75 70 55 35 14 3 10 99 131 157 120 105 0 0 0 0 0 0 0 0 0 0 0 0 0 0 0 0 0 0 0 0 0 0 0 0 0 0 0 0 0
75 93 86 76 73 92 88 100 71 60 40 21 35 57 120 147 138 27 3 0 0 0 0 0 0 0 0 0 0 0 0 0 0 0 0 0 0 0 0 0 0 0 0 0 0 0 0
65 85 84 78 63 96 72 117 100 102 70 26 24 33 82 138 61 20 3 0 0 0 0 0 0 0 0 0 0 0 0 0 0 0 0 0 0 0 0 0 0 0 0 0 0 0 0
75 85 91 83 88 79 109 128 101 93 96 11 0 7 70 52 1 14 0 0 15 0 0 0 0 0 0 0 0 0 0 0 0 0 0 0 0 0 0 0 0 0 0 0 0 0 0
100 97 102 105 70 102 135 118 118 99 155 92 0 3 109 42 27 11 1 0 0 0 0 0 0 0 0 0 0 0 0 0 0 0 0 0 0 0 0 0 0 0 0 0 0 0 0
87 113 131 126 103 102 100 56 74 165 136 116 51 1 4 31 14 2 1 0 0 0 0 0 0 0 0 0 0 0 0 0 0 0 0 0 0 0 0 0 0 0 0 0 0 0 0
94 111 149 157 112 99 53 68 74 169 134 95 49 21 0 22 52 2 0 0 0 0 0 0 0 0 0 0 0 0 0 0 0 0 0 0 0 0 0 0 0 0 0 0 0 0 0
117 133 111 139 85 58 17 89 75 26 91 63 63 3 0 1 0 4 0 0 0 0 0 0 0 0 0 0 0 0 0 0 0 0 0 0 0 0 0 0 0 0 0 0 0 0 0
115 124 139 115 75 45 47 94 106 50 88 67 36 0 0 18 3 6 1 0 0 0 0 0 0 0 0 0 0 0 0 0 0 0 0 0 0 0 0 0 0 0 0 0 0 0 0
106 123 134 100 63 39 26 74 72 83 53 64 50 0 0 65 8 0 0 0 0 0 0 0 0 0 0 0 0 0 0 0 0 0 0 0 0 0 0 0 0 1 0 23 0 0 0
111 119 126 91 47 41 26 62 99 61 32 31 0 0 0 0 0 0 0 0 0 0 0 0 0 0 0 0 0 0 0 0 0 0 0 0 0 0 0 0 0 0 0 0 86 0 0
104 115 127 90 30 45 28 46 65 27 68 19 0 0 2 0 0 0 0 0 0 0 0 0 0 0 0 0 0 0 0 0 0 0 0 0 0 0 0 0 0 0 0 0 0 12 0
101 106 128 98 34 53 63 39 44 19 0 8 23 0 0 0 0 0 0 0 0 0 0 0 0 0 0 0 0 0 0 0 0 0 0 0 0 0 0 0 0 0 0 0 0 0 0
107 105 123 106 45 30 30 47 36 8 0 1 0 0 0 0 0 0 1 0 0 0 0 0 0 0 0 0 0 0 0 0 0 0 0 0 0 0 1 0 0 0 0 0 0 0 0
100 86 129 98 82 22 30 39 61 1 0 2 0 0 0 0 0 0 0 0 0 0 0 0 0 0 0 0 0 0 0 0 0 0 0 0 0 0 1 0 0 0 0 0 0 0 0
104 120 122 97 75 20 25 67 96 0 0 0 0 0 0 0 0 0 0 0 0 0 0 0 0 0 0 1 1 0 0 0 11 0 0 0 0 0 0 0 0 0 1 0 0 0 0
106 110 132 93 74 31 21 29 0 0 0 0 11 0 0 0 0 0 0 0 1 4 0 0 0 0 0 0 6 11 32 30 13 0 0 0 0 0 0 0 4 0 0 0 0 0 0
102 108 109 92 52 28 22 20 0 0 0 0 0 0 0 0 0 0 0 0 0 0 0 0 3 0 0 0 0 0 0 0 0 0 0 0 0 0 0 0 0 0 0 0 0 0 0
100 102 93 73 35 30 27 18 0 1 3 0 0 6 2 0 0 4 0 0 0 1 0 0 0 0 0 0 0 0 0 0 0 0 0 0 0 0 0 0 0 0 0 0 0 0 0
101 104 90 67 50 16 37 17 0 1 1 0 0 1 2 0 1 11 3 8 0 0 0 0 0 0 0 0 0 0 0 0 0 0 0 0 0 0 0 0 0 0 0 0 0 0 0
89 101 77 58 55 16 24 16 0 0 4 4 0 0 0 0 0 2 11 0 1 0 0 0 0 0 0 0 0 0 0 0 0 0 0 0 0 0 0 0 0 0 0 0 0 0 0
73 93 52 59 39 27 23 10 0 0 1 0 0 0 1 2 0 0 0 0 0 0 0 0 0 0 0 0 0 0 0 0 0 0 0 0 0 0 0 0 0 0 0 0 0 0 0

GFSGBSN_con_mucape_018.txt.gz
CAPE
23 29 22 23 19 0 0 38 23 25 59 86 112 123 109 60 33 4 25 12 15 0 0 0 0 0 0 0 0 0 0 0 0 46 18 15 0 0 0 0 0 0 0 0 0 0 0
21 22 28 22 16 29 19 14 2 37 38 32 102 131 124 93 44 19 31 19 23 7 0 0 0 0 0 0 0 0 0 0 24 28 38 25 0 0 0 0 0 0 0 0 0 0 0
17 20 17 19 25 25 29 28 31 0 3 17 18 134 122 112 67 32 28 27 32 17 1 0 0 0 0 0 0 0 0 0 21 59 28 49 38 0 0 0 0 0 0 0 0 0 0
18 24 21 26 17 25 38 40 28 37 1 32 13 36 131 118 126 81 44 44 39 38 31 4 0 0 0 0 0 0 0 0 0 0 0 0 43 0 0 0 0 0 0 0 0 0 0
28 24 25 34 36 46 31 60 67 38 30 8 17 7 90 109 128 94 79 74 55 28 55 42 0 0 0 0 0 0 0 0 0 0 0 0 0 0 0 0 0 0 0 0 0 0 0
26 27 29 44 64 34 40 76 79 78 47 25 7 8 2 103 146 108 117 83 65 42 42 49 0 0 0 0 0 0 0 0 0 0 0 0 0 0 0 0 0 0 0 0 0 0 0
60 59 65 44 54 58 57 76 76 78 76 42 8 10 21 71 149 131 49 26 11 0 0 0 0 0 0 0 0 0 0 0 0 0 0 0 0 0 0 0 0 0 0 0 0 0 0
64 81 97 83 101 73 55 79 101 94 88 48 65 63 25 12 167 149 14 2 0 0 0 0 0 0 0 0 0 0 0 0 0 0 0 0 0 0 0 0 0 0 0 0 0 0 0
65 80 90 83 108 79 53 80 108 116 120 91 56 40 2 0 86 40 28 0 0 0 0 0 0 0 0 0 0 0 0 0 0 0 0 0 0 0 0 0 0 0 0 0 0 0 0
62 69 77 94 105 106 61 101 138 123 119 74 75 58 10 20 34 11 1 0 0 0 0 0 0 0 0 0 0 0 0 0 0 0 0 0 0 0 0 0 0 0 0 0 0 0 0
43 69 83 117 115 145 129 150 132 99 47 127 109 73 37 70 0 2 0 0 11 0 0 0 0 0 0 0 0 0 0 0 0 0 0 0 0 0 0 0 0 0 0 0 0 0 0
71 86 104 135 136 128 158 117 63 62 73 149 117 88 8 42 0 4 2 13 13 0 0 0 0 0 0 0 0 0 0 0 0 0 0 0 0 0 0 0 0 0 0 0 0 0 0
87 85 105 127 174 122 105 65 56 116 168 159 101 75 3 12 1 0 9 7 0 0 0 0 0 0 0 0 0 0 0 0 0 0 0 0 0 0 0 0 0 0 0 0 0 0 0
86 92 108 127 156 112 57 55 38 114 99 119 96 96 0 22 5 0 2 0 0 0 0 0 0 0 0 0 0 0 0 0 0 0 0 0 0 0 0 0 0 0 0 0 0 0 0
98 98 112 122 134 101 40 37 43 181 89 82 104 25 22 0 0 1 0 0 0 0 0 0 0 0 0 0 0 0 0 0 0 0 0 0 0 0 0 0 0 8 0 0 0 0 0
89 106 113 126 134 103 31 46 49 163 69 77 46 3 7 1 0 0 0 0 0 0 0 0 0 0 0 0 0 0 0 0 0 0 0 0 0 0 0 0 0 0 0 0 4 0 0
76 120 119 127 126 107 42 38 58 89 76 53 51 0 5 6 18 5 0 0 0 0 0 0 0 0 0 0 0 0 0 0 0 0 0 0 0 0 0 0 0 0 0 1 0 1 0
85 118 126 130 134 120 46 37 69 88 82 0 3 0 25 3 0 0 0 0 0 0 0 0 0 0 0 0 0 0 0 0 0 0 0 0 0 0 0 0 0 0 0 0 4 1 0
98 119 118 125 139 121 39 46 58 63 77 8 29 0 54 0 0 0 0 0 0 0 0 0 0 0 0 0 0 0 0 0 0 0 0 0 0 0 0 0 0 0 0 0 0 0 0
103 124 115 120 133 114 44 50 52 59 65 0 0 0 1 0 0 0 0 0 0 0 0 0 0 0 0 0 0 0 0 0 0 0 0 0 0 0 0 0 0 0 0 0 0 0 0
99 119 111 118 123 90 38 22 41 56 4 1 0 0 0 0 0 0 0 0 0 0 0 0 0 0 0 0 0 0 0 0 0 0 0 0 0 0 0 0 0 0 0 0 0 0 0
108 121 106 115 102 73 40 22 63 27 0 4 0 0 0 0 0 0 0 0 2 0 0 0 0 0 0 0 0 0 0 0 0 0 0 0 0 0 0 0 0 0 0 0 0 0 0
110 120 112 95 106 57 27 44 73 51 0 19 2 1 0 0 0 0 0 0 0 0 0 0 0 0 0 0 0 1 0 0 0 0 0 0 0 0 0 0 0 0 0 0 0 0 0
95 111 126 93 80 53 24 31 31 0 0 0 0 0 0 0 0 0 0 0 0 0 0 0 0 0 0 0 5 0 4 0 0 0 0 0 0 0 0 0 0 0 0 0 0 0 0
90 100 107 70 64 57 12 34 4 0 1 0 5 0 0 0 0 0 0 0 0 0 0 0 1 5 17 0 0 0 0 0 0 0 0 0 0 0 0 2 0 0 0 0 0 0 0
69 88 88 66 67 47 19 37 31 0 0 0 6 1 0 0 0 0 0 0 0 0 0 0 0 0 0 0 0 0 0 0 0 0 0 0 0 0 0 2 14 0 0 0 0 0 0
59 66 70 66 53 53 39 27 16 0 5 0 1 16 5 0 0 3 0 0 0 0 0 0 0 0 2 0 0 0 0 0 0 0 0 0 0 0 0 0 0 0 0 0 0 0 0
66 62 64 59 55 53 42 31 11 1 5 1 3 19 18 0 0 0 0 0 0 0 0 0 0 0 0 0 0 0 0 0 0 0 0 0 0 0 0 0 0 0 0 0 0 0 0
61 62 71 64 56 50 34 26 13 0 7 10 0 2 2 0 0 0 0 4 0 0 0 0 0 0 0 0 0 0 0 0 0 0 0 0 0 0 0 0 0 0 0 0 0 0 0

GFSGBSN_con_mucape_021.txt.gz
CAPE
27 30 27 25 20 16 18 13 15 7 11 4 10 25 116 125 117 52 9 4 4 4 0 0 0 0 0 2 0 0 0 0 6 41 24 3 0 0 0 0 0 0 0 0 0 0 0
24 24 22 21 31 30 21 27 18 19 14 2 7 19 11 99 136 110 32 8 12 20 0 0 0 0 0 0 0 0 0 0 0 37 30 13 22 0 0 0 0 0 0 0 0 0 0
34 20 23 28 30 42 43 36 24 26 30 23 15 20 3 44 85 133 43 17 25 41 16 0 0 0 0 0 0 0 0 6 23 34 21 13 33 0 0 0 0 0 0 0 0 0 0
31 33 24 30 27 32 38 37 28 61 59 46 34 3 8 2 70 143 103 42 38 68 56 15 31 0 0 0 0 0 0 1 44 42 13 37 35 0 0 0 0 0 0 0 0 0 0
25 46 37 31 39 48 43 53 39 73 65 67 71 19 7 12 6 109 104 127 76 45 79 70 0 0 0 0 0 0 0 0 0 0 0 22 14 0 0 0 0 0 0 0 0 0 0
43 62 55 83 75 51 47 42 34 72 76 89 69 36 6 16 14 77 129 120 85 26 44 46 0 0 0 0 0 0 0 0 0 0 0 0 0 0 0 0 0 0 0 0 0 0 0
85 98 87 89 87 74 88 61 49 67 86 99 91 67 46 15 0 45 62 15 1 0 4 0 0 0 0 0 0 0 0 0 0 0 0 0 0 0 0 0 0 0 0 0 0 0 0
79 82 76 74 83 88 91 84 60 81 112 101 116 60 28 11 24 2 10 0 0 0 0 0 2 0 0 0 0 0 0 0 0 0 0 0 0 0 0 0 0 0 0 0 0 0 0
64 64 73 83 95 82 85 92 102 153 157 89 85 77 23 17 29 2 6 5 0 0 0 0 0 3 0 0 0 0 0 0 0 0 0 0 0 0 0 0 0 0 0 0 0 0 0
72 68 74 79 84 104 109 128 116 141 98 93 68 98 81 64 38 3 0 0 0 0 0 0 0 0 0 0 0 0 0 0 0 0 0 0 0 0 0 0 0 0 0 0 0 0 0
73 69 73 76 86 106 119 131 118 76 32 63 1 168 80 95 55 37 0 0 3 0 0 0 0 0 0 0 0 0 0 0 0 0 0 0 0 0 0 0 0 0 0 0 0 0 0
45 59 71 81 92 107 114 107 57 43 159 99 192 170 117 83 36 0 3 0 0 0 0 0 0 0 0 0 0 0 0 0 0 0 0 0 0 0 0 0 0 0 0 0 0 0 0
56 74 75 83 104 115 114 84 39 50 144 144 134 175 96 38 0 0 0 0 0 0 0 0 0 0 0 0 0 0 0 0 0 0 0 0 0 0 0 0 0 0 0 0 0 0 0
39 47 73 101 118 124 113 72 45 46 128 112 79 114 68 1 26 21 0 0 0 0 0 0 0 0 0 0 0 0 0 0 0 0 0 0 0 0 0 0 0 0 0 0 0 0 0
45 58 84 115 127 132 107 80 27 59 189 100 49 65 18 18 1 45 0 0 0 0 0 0 0 0 0 0 0 0 0 0 0 0 0 0 0 0 0 0 0 0 0 0 0 0 0
50 70 104 126 129 147 110 81 34 79 172 94 3 6 3 0 8 3 1 0 0 0 0 0 0 0 0 0 0 0 0 0 0 0 0 0 0 0 0 0 0 0 0 0 0 0 0
76 84 111 127 132 131 101 71 59 65 128 64 2 0 12 68 41 2 0 0 0 0 0 0 0 0 0 0 0 0 0 0 0 0 0 0 0 0 0 0 0 0 0 0 0 0 0
74 81 106 123 131 113 107 63 35 40 111 3 0 9 21 49 0 0 0 0 0 0 0 0 0 0 0 0 0 0 0 0 0 0 0 0 0 0 0 0 0 0 0 0 0 0 0
69 81 110 116 112 100 84 41 23 44 88 1 1 10 75 1 0 0 0 0 0 0 0 0 0 0 0 0 0 0 0 0 0 0 0 0 0 0 0 0 0 0 0 0 0 0 0
64 84 104 113 109 94 77 31 13 41 41 4 0 0 2 0 0 0 0 0 0 0 0 0 0 0 0 0 0 0 0 0 0 0 0 0 0 0 0 0 0 0 0 8 0 0 4
69 81 102 112 89 79 53 33 17 0 0 0 0 0 0 0 0 0 0 0 0 0 0 0 0 0 0 0 0 0 0 0 0 0 0 0 0 0 0 0 0 0 0 0 0 0 0
65 73 84 105 62 58 48 22 23 0 0 0 0 0 0 0 0 0 0 0 0 1 0 0 0 0 0 0 0 0 0 0 0 0 0 0 0 0 0 0 0 0 0 0 0 0 0
57 61 71 90 57 59 43 23 31 23 0 4 0 3 0 0 0 0 0 0 0 0 0 0 0 0 0 0 0 0 0 0 0 0 0 0 0 0 0 0 0 0 0 0 0 0 0
27 44 67 71 42 57 57 21 33 7 50 0 0 1 0 0 0 0 0 0 0 0 0 10 0 0 0 0 0 0 0 0 0 0 0 0 0 0 0 0 1 0 0 0 0 0 0
41 50 59 62 42 28 39 24 26 0 0 0 0 0 0 0 0 0 0 0 0 0 0 0 17 4 0 0 0 0 0 0 0 0 0 0 0 0 0 0 0 2 0 0 3 0 0
40 49 59 58 39 38 25 15 21 0 0 0 0 0 4 0 0 0 0 0 0 0 0 0 0 5 9 0 0 0 0 0 0 0 0 0 0 0 0 7 0 0 0 0 0 0 0
28 42 52 66 48 49 30 10 12 0 0 4 5 1 0 0 0 0 0 0 0 0 0 0 0 0 0 0 0 0 0 0 0 0 0 0 0 0 0 0 0 0 0 0 0 0 0
14 30 43 52 44 44 37 19 2 0 0 0 2 11 2 0 0 0 0 0 0 0 0 0 0 0 0 0 0 0 0 0 0 0 0 0 0 0 0 0 0 0 0 0 0 0 0
8 12 27 42 61 33 54 23 3 6 4 2 1 13 21 0 0 0 0 4 10 0 0 0 0 0 0 0 0 0 0 0 0 0 0 0 0 0 0 0 0 0 0 0 0 0 0

GFSGBSN_con_mucape_024.txt.gz
CAPE
21 21 22 21 31 31 33 25 16 17 18 15 17 0 13 8 33 100 122 13 6 0 0 0 0 0 0 24 11 0 0 0 2 61 28 2 1 2 0 0 0 0 0 0 0 0 0
21 18 20 18 27 34 38 44 34 19 26 37 29 18 7 5 10 98 129 76 14 5 0 9 0 0 0 0 0 0 0 0 16 58 44 4 10 3 1 0 0 0 0 0 0 0 0
10 14 30 31 32 41 54 49 38 36 27 60 54 34 33 3 13 32 120 88 57 28 0 1 2 0 0 0 0 0 0 0 10 72 38 19 6 7 2 15 5 0 0 0 0 0 0
24 32 33 48 38 39 38 26 17 29 28 61 69 63 49 8 4 2 74 148 166 108 48 0 15 0 0 0 0 0 0 8 30 51 59 44 18 6 0 0 0 0 0 0 0 0 0
42 61 72 67 70 66 47 58 49 26 38 55 83 69 60 46 10 9 37 161 153 96 84 40 4 0 0 0 0 0 0 0 6 20 11 53 10 0 1 0 0 0 0 0 0 0 0
57 42 70 74 74 95 86 84 96 77 55 57 86 89 72 46 24 8 0 107 88 77 95 19 4 0 0 0 0 0 0 3 6 0 4 0 0 0 0 0 0 0 0 0 0 0 0
46 58 61 70 79 85 86 88 92 107 86 90 124 107 105 44 15 0 0 0 0 0 57 3 0 0 0 0 0 0 0 0 0 0 0 0 0 0 0 0 0 0 0 0 0 0 0
56 70 64 64 74 75 88 97 108 97 128 140 144 103 95 48 18 5 23 0 1 0 0 0 7 0 0 0 0 0 0 0 0 0 0 0 0 0 0 0 0 0 0 0 0 0 0
71 80 66 83 78 84 95 108 130 109 88 84 82 103 45 28 49 49 3 0 0 0 0 0 2 1 2 0 0 0 0 0 0 0 0 0 0 0 0 0 0 0 0 0 0 0 0
52 57 70 89 85 104 124 129 122 110 56 61 101 63 32 77 54 43 0 0 0 0 0 0 0 0 12 7 0 0 0 0 0 0 0 0 0 0 0 0 0 0 0 0 0 0 0
35 75 80 74 104 128 144 138 116 79 50 64 101 225 57 117 44 75 16 34 0 0 0 0 0 12 3 0 0 0 0 0 0 0 0 0 0 0 0 0 0 0 0 0 0 0 0
69 86 81 86 109 149 139 128 111 71 88 89 110 97 75 130 117 23 24 0 0 0 0 0 0 0 0 0 0 0 0 0 0 0 0 0 0 0 0 0 0 0 0 0 0 0 0
52 61 87 94 130 132 128 128 89 41 52 158 116 86 49 135 51 93 37 2 0 0 0 0 0 0 0 0 0 0 0 0 0 0 0 0 0 0 0 0 0 0 0 0 0 0 0
58 86 90 104 138 121 129 123 69 29 52 110 185 24 147 111 122 105 10 0 0 0 0 0 0 0 0 0 0 0 0 0 0 0 0 0 0 0 0 0 0 0 0 0 0 0 0
65 85 97 108 114 124 134 120 76 37 150 166 56 43 134 82 66 0 14 1 0 0 0 0 0 0 0 0 0 0 0 0 0 0 0 0 0 0 0 0 0 0 0 0 0 0 0
60 83 86 103 108 124 116 105 51 36 117 129 0 11 75 52 58 0 1 0 0 0 0 0 0 0 0 0 0 0 0 0 0 0 0 0 0 0 0 0 0 0 0 0 0 0 0
57 76 88 96 110 120 105 93 30 40 96 98 1 1 43 47 91 2 0 0 0 0 0 0 0 0 0 0 0 0 0 0 0 0 0 0 0 0 0 0 0 0 0 0 0 0 0
55 76 87 96 106 106 98 28 33 22 99 2 1 4 11 5 0 0 0 0 0 0 0 0 0 0 0 0 0 0 0 0 0 0 0 0 0 0 0 0 0 0 0 0 0 0 0
57 73 79 90 99 80 75 21 33 11 2 0 1 0 68 38 0 0 0 0 0 0 0 0 0 0 0 0 0 0 0 0 0 0 0 0 0 0 0 0 0 0 0 0 0 0 0
56 68 67 72 74 86 64 16 11 0 0 0 0 2 0 17 0 0 0 0 0 0 0 0 0 0 0 0 0 0 0 0 0 0 0 0 0 0 0 0 0 0 0 0 0 0 0
50 66 63 56 65 43 62 10 0 0 0 0 0 0 7 0 0 0 0 0 0 0 0 0 0 0 0 0 0 0 0 0 0 0 0 0 0 0 0 0 0 0 0 0 0 0 0
49 30 57 57 57 36 40 20 0 0 0 0 0 0 0 0 0 0 0 0 0 0 0 0 0 0 0 0 0 0 0 0 0 0 0 0 0 0 0 0 0 0 0 0 0 0 0
48 59 60 59 51 20 29 25 0 0 0 0 0 0 0 0 0 0 0 0 0 1 0 0 0 0 0 0 0 0 0 0 0 0 0 0 0 0 0 0 0 0 0 0 0 0 0
39 40 47 57 52 11 29 26 0 0 0 0 0 0 0 0 0 0 0 0 0 0 1 0 0 0 0 0 0 0 0 0 0 0 0 0 0 0 1 0 0 0 0 0 0 0 0
33 31 42 47 58 24 21 19 16 0 0 0 0 0 0 0 0 0 0 0 0 0 0 0 0 0 1 0 0 0 0 0 0 0 0 0 0 0 0 0 0 0 0 0 0 0 0
18 22 24 25 36 24 21 20 18 0 0 0 0 0 0 0 0 0 0 0 0 0 0 0 0 1 20 0 0 0 0 0 0 0 0 0 0 0 0 0 0 0 0 0 0 0 0
10 14 13 11 26 28 14 28 4 0 0 0 0 1 0 0 0 0 0 0 0 0 0 0 0 0 0 0 0 0 0 0 0 0 0 0 0 0 0 0 0 0 0 0 0 0 0
8 11 17 10 10 31 30 10 4 0 0 0 0 0 0 3 0 0 0 0 0 9 0 0 0 0 0 0 0 0 0 0 0 0 0 0 0 0 0 0 0 0 0 0 0 0 0
8 10 12 8 3 8 7 3 2 4 0 0 0 4 1 0 0 0 0 0 0 6 0 0 0 0 0 0 0 0 0 0 0 0 0 0 0 0 0 0 0 0 0 0 0 0 1

GFSGBSN_con_mucape_027.txt.gz
CAPE
9 11 16 23 23 25 24 26 30 27 19 19 20 33 34 24 5 0 12 100 99 37 7 1 0 0 1 24 21 1 0 0 23 67 36 10 17 6 1 0 0 0 0 0 0 0 0
16 20 25 25 26 32 31 25 20 16 24 25 23 36 42 42 13 14 11 83 125 58 14 3 0 0 11 2 8 0 0 0 5 62 46 19 18 25 20 10 0 4 1 0 0 0 0
30 35 55 36 40 35 34 42 31 21 21 25 25 38 50 51 35 7 2 4 141 45 31 29 0 0 0 0 0 0 0 1 37 37 61 12 17 5 29 15 9 1 1 0 0 0 0
43 60 50 48 54 59 72 73 80 68 51 32 36 48 61 58 55 38 0 17 38 93 78 39 6 7 10 0 0 0 0 5 16 61 71 52 9 19 9 5 0 0 1 0 0 0 0
42 43 60 59 69 69 69 80 76 114 126 113 31 49 81 88 67 39 5 36 1 127 82 49 14 8 5 0 0 0 0 26 0 20 85 11 27 8 7 5 0 0 0 0 0 0 0
36 41 60 63 85 78 80 88 92 102 100 107 102 84 86 106 88 48 10 35 7 99 73 14 23 5 0 0 0 0 0 16 0 8 23 12 1 0 5 0 0 0 0 0 0 0 0
55 67 73 64 90 77 95 114 115 144 138 127 133 160 135 131 117 82 53 29 0 18 0 0 0 1 1 0 0 0 0 0 0 0 0 0 0 0 1 17 0 0 0 0 0 0 0
48 47 49 57 83 88 105 134 146 158 166 138 94 91 140 125 79 43 64 34 0 0 2 0 0 2 3 0 0 0 0 0 0 0 0 0 0 0 0 0 0 0 0 0 0 0 0
39 62 78 89 79 93 121 138 145 158 149 124 38 84 97 91 19 113 69 0 0 0 0 0 1 6 1 0 3 0 0 0 0 0 0 0 0 0 0 0 0 0 0 0 0 0 0
56 60 67 67 88 112 124 142 142 144 131 86 30 70 86 105 75 48 24 9 0 0 0 0 0 10 5 5 8 4 1 0 0 1 0 0 0 0 0 0 0 0 0 0 0 0 0
53 64 68 83 99 118 133 125 143 145 110 48 49 85 151 160 61 82 56 86 14 0 0 0 0 14 10 1 3 8 9 15 0 0 0 0 0 0 0 0 0 0 0 0 0 0 0
51 64 81 93 103 114 121 136 132 122 81 84 64 102 135 133 184 97 117 15 0 0 0 0 0 0 0 0 2 0 0 9 0 0 0 0 0 0 0 0 0 0 0 0 0 0 0
43 66 71 91 104 109 118 132 138 125 63 65 99 209 79 57 112 176 112 0 0 6 0 0 0 0 0 0 0 0 0 0 0 0 0 0 0 0 0 0 0 0 0 0 0 0 0
51 62 74 92 99 107 116 118 115 73 50 71 180 124 110 139 187 184 16 2 1 0 0 0 0 0 0 0 0 0 0 0 0 0 0 0 0 0 0 0 0 0 0 0 0 0 0
48 61 80 94 93 104 99 94 60 30 74 100 47 22 168 172 168 17 0 0 0 0 0 0 0 0 0 0 0 0 0 0 0 0 0 0 0 0 0 0 0 0 0 0 0 0 0
53 61 76 87 94 85 84 78 32 28 94 85 0 0 87 154 101 35 0 0 0 0 0 0 0 0 0 0 0 0 0 0 0 0 0 0 0 0 0 0 0 0 0 0 0 0 0
44 64 78 87 81 60 68 46 23 30 53 54 0 0 113 103 81 7 0 0 0 0 0 0 0 0 0 0 0 0 0 0 0 0 0 0 0 0 0 0 0 0 0 0 0 0 0
45 52 74 70 63 40 52 28 0 3 0 3 0 6 86 90 2 0 0 0 0 0 0 0 0 0 0 0 0 0 0 0 0 0 0 0 0 0 0 0 0 0 0 0 0 0 0
52 56 58 56 52 30 51 20 0 0 38 0 6 2 1 30 0 0 0 0 1 0 0 0 0 0 0 0 0 0 0 0 0 0 0 0 0 0 0 0 0 0 0 0 0 0 9
45 48 63 59 52 45 21 31 0 0 0 0 0 0 0 0 47 19 0 0 0 0 0 0 0 0 0 0 0 0 0 0 0 0 0 0 0 0 0 0 0 0 0 0 0 0 0
35 47 56 47 51 17 28 30 0 0 0 0 0 0 0 0 4 9 0 0 0 0 0 0 0 0 0 0 0 0 0 0 0 0 0 0 0 0 0 0 0 0 0 0 0 0 0
31 43 38 40 48 10 29 6 0 0 0 0 0 0 0 0 0 0 0 0 0 0 0 0 1 0 3 0 0 0 0 0 0 0 0 0 0 0 0 0 0 0 0 0 0 0 0
23 25 41 29 41 21 32 13 0 0 0 0 0 0 0 0 0 0 0 0 1 0 2 6 5 6 0 0 0 0 0 0 0 0 0 0 0 0 0 0 0 0 0 0 0 0 0
7 15 23 28 21 18 22 27 0 0 0 0 0 0 0 0 0 0 0 0 0 0 16 0 0 0 2 0 0 0 0 0 0 0 0 0 0 0 0 0 0 0 0 0 0 0 0
0 0 0 0 12 11 11 35 0 0 0 0 0 0 0 0 0 0 0 0 0 0 1 0 0 0 4 0 0 0 0 0 0 0 0 0 0 0 0 0 0 0 0 0 0 0 0
0 0 0 0 13 22 23 31 0 0 0 0 0 4 0 0 0 0 0 2 4 0 8 0 0 7 0 0 0 0 0 0 0 0 0 0 0 0 0 0 0 0 0 0 0 0 0
0 0 4 2 0 4 5 6 2 0 0 0 0 1 0 0 0 0 0 5 0 0 15 0 0 0 0 0 0 0 0 0 0 0 0 0 0 0 0 0 0 0 0 0 1 0 0
7 0 0 6 0 7 8 7 6 0 0 0 0 1 1 0 0 0 0 9 19 31 0 0 0 0 0 0 0 0 0 0 0 0 0 0 0 0 0 0 0 0 0 0 0 0 0
0 0 0 0 7 8 12 16 15 16 0 0 0 0 2 0 0 0 0 0 0 0 39 0 0 0 0 0 0 0 0 0 0 0 0 0 0 0 0 0 0 0 0 0 0 0 0

GFSGBSN_con_mucape_030.txt.gz
CAPE
19 22 21 24 25 25 22 33 24 26 38 44 42 35 30 42 57 40 18 1 35 113 77 8 1 0 0 13 3 18 18 28 50 73 41 14 1 0 0 0 0 0 0 0 0 0 0
36 33 54 43 41 45 54 62 61 48 47 58 51 40 26 51 68 60 40 7 14 78 126 10 0 0 0 5 14 0 0 0 0 67 62 40 7 1 3 0 1 0 0 0 0 0 0
47 41 49 57 62 69 76 47 63 66 85 111 97 81 53 44 54 68 57 33 9 1 125 51 2 0 0 0 0 0 0 0 6 40 64 68 22 22 23 17 6 5 0 0 0 0 0
59 24 52 56 84 86 68 71 68 82 92 119 140 150 84 54 78 94 73 37 4 8 30 34 50 0 13 0 0 0 0 0 3 18 77 67 27 9 29 9 6 0 0 0 0 0 0
33 50 41 58 54 73 72 84 87 103 125 148 133 158 148 90 93 113 93 46 6 0 27 81 0 5 0 0 0 0 0 0 1 72 102 38 59 26 14 10 2 4 0 0 0 0 0
66 29 36 58 91 98 78 84 108 126 151 169 166 167 149 130 162 128 108 51 6 17 75 0 0 0 2 0 0 0 0 11 0 82 59 37 18 4 0 3 0 0 0 0 0 0 0
32 42 55 57 70 74 92 115 133 149 152 150 154 184 94 124 173 141 100 62 46 68 133 0 0 0 0 0 0 0 0 0 0 20 0 34 42 13 0 0 0 4 0 0 0 0 0
36 55 60 63 80 88 109 132 143 136 146 141 159 132 57 111 107 121 105 20 6 11 28 0 0 0 0 0 0 0 3 0 0 25 0 0 0 0 1 3 3 0 0 0 0 0 0
41 60 65 78 85 102 115 130 137 137 153 143 116 51 62 159 197 56 36 2 9 0 1 0 0 0 0 0 0 0 0 0 0 4 0 0 0 0 0 0 0 0 0 0 0 0 0
53 71 70 72 80 95 112 124 143 155 145 114 63 65 93 156 94 59 59 36 13 0 1 0 0 0 4 6 7 0 0 0 0 0 0 2 0 0 0 0 0 0 0 0 0 0 0
49 59 66 72 84 96 100 128 132 133 149 121 68 72 102 116 45 9 78 20 15 0 4 0 0 8 5 0 1 1 0 0 0 0 0 0 0 0 0 0 0 0 0 0 0 0 0
42 47 64 74 85 90 93 93 104 111 72 74 59 63 145 74 152 74 73 20 18 0 0 0 0 0 0 33 11 1 5 0 0 0 0 0 0 0 0 0 0 0 0 0 0 0 0
45 49 63 75 76 80 76 75 72 42 44 43 41 56 37 78 55 131 3 1 0 4 0 0 0 0 0 0 3 1 0 0 0 0 0 0 0 0 0 0 0 0 0 0 0 0 0
50 50 65 72 67 69 68 62 64 28 31 119 69 68 5 110 129 8 13 0 4 0 0 0 0 0 0 0 0 0 0 0 0 0 0 0 0 0 0 0 0 0 0 0 0 0 0
41 56 62 59 60 64 52 68 31 18 89 89 57 19 24 210 148 14 0 0 0 0 0 0 0 0 0 0 0 0 0 0 0 0 0 0 0 0 0 0 0 0 0 0 0 0 0
31 65 58 59 58 57 47 60 14 10 94 106 29 2 60 130 51 3 0 0 0 0 0 0 0 0 0 0 0 0 0 0 0 0 0 0 0 0 0 0 0 0 0 0 0 0 0
53 54 52 58 51 41 38 37 0 6 78 51 0 6 55 58 42 0 0 0 0 0 0 0 0 0 0 0 0 0 0 0 0 0 0 0 0 0 0 0 0 0 0 0 0 0 0
50 50 52 44 53 19 29 0 0 0 84 0 1 5 65 55 0 0 0 3 0 0 0 0 0 0 0 0 0 0 0 0 0 0 0 0 0 0 0 0 0 0 0 0 0 0 0
49 47 62 31 55 21 26 0 0 0 0 0 0 0 6 9 0 0 0 0 0 0 0 0 0 0 0 0 0 0 0 0 0 0 0 0 0 0 0 0 0 0 0 0 0 0 0
46 43 45 38 56 23 0 0 0 0 0 0 0 0 6 25 26 0 0 0 0 8 0 0 0 0 0 0 0 0 0 0 0 0 0 0 0 0 0 0 0 0 0 0 0 0 0
41 30 33 44 44 27 0 0 0 0 0 0 0 0 0 0 19 0 0 0 0 0 0 1 0 3 0 0 0 0 0 0 0 0 0 0 0 0 0 0 0 0 0 0 0 0 0
0 22 20 31 35 23 0 0 0 0 0 0 0 0 0 0 9 0 0 0 0 0 3 0 0 0 1 0 0 0 0 0 0 0 0 0 0 0 0 0 0 0 0 0 0 0 0
0 0 0 14 19 27 11 0 0 0 0 0 0 0 0 0 0 0 0 0 0 0 0 1 2 1 4 0 0 0 0 0 0 0 0 0 0 0 0 0 0 0 0 0 0 0 0
0 0 0 7 24 33 29 17 0 0 0 0 0 0 0 0 0 0 0 0 0 14 1 0 0 9 2 0 0 0 0 0 0 0 0 0 0 0 0 0 0 0 0 0 0 0 0
1 0 0 0 1 8 7 11 0 0 0 0 0 0 0 0 0 0 0 0 0 9 16 6 0 0 0 0 0 0 0 0 0 0 0 0 0 0 0 0 0 0 0 0 0 0 0
33 0 0 0 0 0 0 0 0 0 0 0 0 1 0 0 0 0 0 0 1 7 0 9 4 0 0 0 0 0 0 0 0 0 0 0 0 0 0 0 0 0 0 0 0 0 0
41 0 0 0 0 0 10 15 7 0 0 0 0 0 0 0 0 0 0 6 5 5 5 8 0 0 0 0 0 0 0 0 0 0 0 0 0 0 0 0 0 0 0 0 0 0 0
44 0 0 0 0 0 0 15 16 12 0 0 0 8 1 0 0 0 20 19 0 21 14 0 0 5 0 0 0 0 0 0 0 0 0 0 0 0 0 0 0 0 0 0 0 0 2
49 0 6 0 24 17 18 17 19 12 15 0 0 1 5 0 0 0 1 3 2 10 20 0 0 0 0 0 0 0 0 0 0 0 0 0 0 0 0 0 0 0 0 0 0 0 6

GFSGBSN_con_mucape_033.txt.gz
CAPE
35 47 33 49 45 39 67 74 64 61 74 90 74 72 78 56 32 56 61 69 41 2 58 118 72 30 17 16 0 6 189 218 64 56 7 0 2 1 2 0 0 0 0 0 0 0 0
53 65 40 46 62 80 57 50 66 79 78 83 105 108 89 96 60 22 47 60 63 6 11 44 109 80 15 0 0 0 15 70 59 64 48 53 1 0 0 0 0 0 0 0 0 0 0
38 25 73 44 58 41 61 60 71 78 93 114 114 141 154 116 87 55 64 86 66 44 8 1 132 2 0 0 0 1 0 0 0 77 35 61 42 11 0 3 0 0 0 0 0 0 0
26 62 35 43 61 66 74 81 87 100 126 141 142 150 194 158 150 117 94 89 66 25 16 6 97 8 0 0 0 0 0 0 0 14 71 74 50 26 13 6 0 0 0 0 0 0 0
69 38 54 52 57 76 80 93 107 124 142 159 158 167 174 173 151 150 118 104 52 14 23 11 18 1 0 0 0 0 0 0 0 54 74 44 45 28 17 7 0 1 0 0 0 0 0
36 49 49 48 78 85 99 105 113 125 143 142 168 187 203 194 140 164 141 113 30 9 20 0 0 6 0 0 0 0 0 0 7 81 35 46 34 12 30 6 0 0 0 0 0 0 0
43 60 52 68 84 90 107 124 109 120 146 145 154 195 169 107 137 127 24 0 3 23 0 7 0 0 0 0 0 0 0 1 66 35 28 13 11 3 8 0 0 3 0 0 0 0 0
55 59 61 74 78 94 107 101 93 108 140 140 126 103 74 87 193 191 98 0 1 5 12 0 2 3 0 0 0 0 1 4 12 2 16 1 0 0 0 2 7 0 0 0 0 0 0
47 47 49 75 85 99 84 84 80 92 105 130 128 69 94 130 191 35 0 6 32 2 1 1 0 2 0 0 0 3 10 0 0 1 0 0 0 3 8 2 2 0 0 0 0 0 0
46 45 51 79 89 84 70 74 70 71 75 75 63 62 97 144 90 30 0 19 11 2 0 0 28 0 0 1 0 8 10 0 0 0 0 0 0 0 0 0 0 0 0 0 0 0 0
28 32 55 78 93 75 63 69 60 66 41 53 48 40 41 76 24 16 27 14 3 0 0 0 0 3 0 0 0 40 22 0 0 0 1 0 0 0 0 0 0 0 0 0 0 0 0
31 31 54 81 76 61 61 46 65 37 25 88 59 67 86 13 43 36 10 0 0 2 0 2 0 0 0 0 4 10 11 0 4 0 0 0 0 0 0 0 0 0 0 0 0 0 0
0 44 59 75 74 64 46 55 67 32 28 77 81 107 66 42 52 8 7 0 47 14 0 0 0 0 0 0 0 7 3 0 0 0 0 0 0 0 0 0 0 0 0 0 0 0 0
0 47 60 60 68 70 40 48 7 0 61 99 91 88 20 55 43 3 1 0 16 10 0 0 0 0 0 0 0 0 1 0 0 0 0 0 0 0 0 0 0 0 0 0 0 0 0
0 44 69 64 63 55 12 0 4 64 100 101 18 15 32 13 12 5 0 0 1 0 1 0 0 0 0 0 0 0 0 0 0 0 0 0 0 0 0 0 0 0 0 0 0 0 0
0 43 54 58 65 34 0 0 0 53 96 7 0 0 19 34 11 0 0 0 0 0 0 0 0 0 0 0 0 0 0 0 0 0 0 0 0 0 0 0 0 0 0 0 0 0 0
0 30 45 47 54 27 0 0 0 0 65 12 0 5 15 17 7 0 0 0 0 0 0 0 0 0 0 0 0 0 0 0 0 0 0 0 0 0 0 0 0 0 0 0 0 0 0
0 27 15 51 38 0 0 0 0 0 40 0 0 0 0 0 0 0 5 0 1 0 0 0 0 0 0 0 0 0 0 0 0 0 0 0 0 0 0 0 0 0 0 0 0 0 0
0 4 12 44 38 0 0 0 0 0 0 0 0 0 0 0 0 0 0 0 6 0 0 0 0 0 0 0 0 0 0 0 0 0 0 0 0 0 0 0 0 0 0 0 0 0 0
0 0 0 11 29 0 0 0 0 0 0 0 0 0 0 0 0 0 0 0 0 5 2 0 0 0 0 0 0 0 0 0 0 0 0 0 0 0 0 0 0 0 0 0 0 0 0
0 0 0 0 27 30 0 0 0 0 0 0 0 0 0 0 0 0 0 0 0 0 0 1 0 0 0 0 0 0 0 0 0 0 0 0 0 0 0 0 0 0 0 0 0 0 0
0 0 0 0 0 29 36 0 0 0 0 0 0 0 0 0 0 0 0 0 0 0 0 0 0 0 0 0 0 0 0 0 0 0 0 0 0 0 0 0 0 0 0 0 0 0 0
25 0 0 0 0 0 0 0 0 0 0 0 0 0 0 0 0 0 0 0 0 0 0 0 0 0 1 1 0 0 0 0 0 0 0 0 0 0 0 0 0 0 0 0 0 0 0
16 0 0 0 0 0 0 0 0 0 0 0 0 0 0 0 0 0 0 0 0 0 0 0 0 1 1 0 0 0 0 0 0 0 0 0 0 0 0 0 0 0 0 0 0 0 0
0 12 0 0 0 0 0 0 0 0 0 0 0 0 0 0 0 0 0 0 8 0 0 0 0 0 0 0 0 0 0 0 0 0 0 0 0 0 0 0 0 0 0 0 0 0 0
0 29 0 0 0 0 0 0 1 11 0 0 0 0 0 0 0 0 0 0 0 1 0 6 1 0 0 0 0 0 0 0 0 0 0 0 0 0 0 0 0 0 0 0 0 0 0
0 38 0 0 0 0 0 0 0 12 7 0 0 1 0 0 0 0 0 0 3 3 8 10 0 0 0 0 0 0 0 0 0 0 0 0 0 0 0 0 0 0 0 0 0 0 0
0 31 6 0 0 0 0 0 0 17 11 1 0 7 0 0 0 0 0 7 3 5 1 3 0 0 0 0 0 0 0 0 0 0 0 0 0 0 0 0 0 0 0 0 0 0 0
0 28 9 0 0 25 0 0 0 0 10 10 0 0 11 0 0 0 0 16 15 10 10 0 0 0 0 0 0 0 0 0 0 0 0 0 0 0 0 0 0 0 0 0 0 0 0

GFSGBSN_con_mucape_036.txt.gz
CAPE
34 40 38 51 34 40 53 34 59 68 77 98 120 114 117 130 89 98 51 42 43 47 30 34 41 42 9 1 0 0 114 121 32 43 0 0 0 0 0 0 0 0 0 0 0 0 0
30 33 52 37 41 37 63 64 70 88 106 114 126 145 161 178 140 122 96 49 65 62 38 17 7 85 13 0 0 0 118 112 18 44 0 9 2 0 0 0 0 0 0 0 0 0 0
37 34 41 44 31 61 68 86 87 91 104 111 135 160 194 213 162 158 165 122 90 91 37 11 7 31 6 0 0 0 189 162 113 53 16 30 31 5 0 0 0 0 0 0 0 0 0
41 38 40 40 67 64 82 86 79 95 95 99 126 160 176 195 186 154 143 144 95 89 56 11 4 3 0 0 0 4 0 0 63 86 51 61 59 15 1 0 0 1 0 0 0 0 0
29 47 39 32 58 65 82 86 83 81 85 104 126 161 169 186 203 158 152 197 186 122 62 23 0 19 8 9 0 7 0 0 0 40 76 54 42 24 5 4 0 0 0 0 0 0 0
40 25 45 53 64 80 81 90 80 82 83 99 138 159 162 166 137 139 139 162 77 73 31 28 0 14 0 0 0 0 0 0 31 101 49 43 37 29 6 9 0 0 0 0 0 0 0
36 49 44 58 61 74 88 71 89 72 72 102 108 110 117 100 147 178 130 8 0 32 67 0 0 0 0 0 0 1 0 2 112 77 28 28 39 24 9 0 0 1 0 0 0 0 0
37 31 24 62 60 71 70 77 80 73 65 74 81 55 76 90 160 189 77 0 8 11 1 5 0 0 1 0 0 0 0 16 33 44 24 16 13 5 0 1 0 10 0 0 0 0 0
25 23 25 70 61 72 68 73 73 71 66 32 34 60 65 89 103 37 1 6 11 6 0 18 0 3 0 0 0 0 1 9 0 51 16 5 0 1 0 0 0 0 0 0 0 0 0
17 25 26 61 65 61 58 54 52 70 28 27 11 35 60 92 37 14 0 38 9 1 20 13 0 1 0 0 0 0 22 9 13 0 7 7 0 0 11 0 0 0 0 0 0 0 0
31 32 56 52 54 57 65 49 59 65 55 43 33 50 141 121 22 35 12 23 12 9 6 0 0 1 0 0 3 37 36 4 0 7 0 0 0 0 3 0 0 0 0 0 0 0 0
20 33 45 34 54 59 42 0 0 53 66 86 121 143 141 72 25 38 16 11 1 21 5 30 0 22 0 0 0 30 29 14 11 3 0 0 0 0 0 0 0 0 0 0 0 0 0
23 31 39 48 47 27 0 0 0 19 122 110 106 34 30 60 58 16 13 0 0 0 0 0 10 19 0 0 24 23 10 20 12 5 0 1 0 0 0 0 0 0 0 0 0 0 0
14 30 41 30 41 0 0 0 0 12 70 83 5 9 50 58 30 29 0 0 0 0 6 0 0 0 0 0 22 13 1 3 2 0 0 0 0 0 0 0 0 0 0 0 0 0 0
14 0 29 37 0 0 0 0 0 12 90 56 0 0 2 28 0 0 1 17 36 0 0 0 0 0 0 0 5 0 3 0 1 0 0 0 0 0 0 0 0 0 0 0 0 0 0
19 0 6 36 0 0 0 0 0 17 52 0 0 0 0 9 0 0 0 3 0 2 0 0 0 0 0 0 0 0 0 0 0 0 0 0 0 0 0 0 0 0 0 0 0 0 0
24 0 0 19 23 0 0 0 0 0 40 0 0 0 0 0 0 0 0 0 2 0 0 0 0 0 0 0 0 0 0 0 0 0 0 0 0 0 0 0 0 0 0 0 0 0 0
23 0 0 0 0 0 0 0 0 0 26 0 0 0 0 0 0 0 0 0 0 0 0 0 0 0 0 0 0 0 0 0 0 0 0 0 0 0 0 0 0 0 0 0 0 0 0
22 0 0 0 13 0 0 0 0 0 10 0 0 0 0 0 0 0 0 0 0 0 0 0 0 0 0 0 0 0 0 0 0 0 0 0 0 0 0 0 0 0 0 0 0 0 0
0 0 0 0 0 0 0 0 0 0 0 0 0 0 0 0 0 0 0 0 0 0 0 0 0 0 0 0 0 0 0 0 0 1 8 0 0 0 0 0 0 0 0 0 0 0 0
0 0 0 0 0 0 0 0 0 0 0 0 0 0 0 0 0 0 0 0 0 0 0 0 0 0 0 0 0 0 0 0 0 5 0 0 0 0 0 0 0 0 0 0 0 0 0
0 0 0 0 0 0 0 0 0 0 0 0 0 0 0 0 0 0 0 0 0 0 0 0 0 0 0 0 0 0 0 0 0 0 0 0 0 0 0 0 0 0 0 0 0 0 0
0 0 0 0 0 0 0 0 0 0 0 0 0 0 0 0 0 0 0 0 0 0 0 1 0 0 0 0 0 0 0 0 0 0 0 0 0 0 0 0 0 0 0 0 0 0 0
0 0 0 0 0 0 0 0 0 0 0 0 0 0 0 0 0 0 0 0 0 0 0 0 0 0 0 0 0 0 0 0 0 0 0 0 0 0 0 0 0 0 0 0 0 0 0
0 0 0 0 0 0 0 0 0 0 0 0 0 0 0 0 0 0 0 0 0 0 0 0 0 0 0 0 0 0 0 0 0 0 0 0 0 0 0 0 0 0 0 0 0 0 0
0 0 0 0 0 0 0 0 0 0 0 0 0 0 0 0 0 0 0 0 0 0 0 0 0 0 0 0 0 0 0 0 0 0 0 0 0 0 0 0 0 0 0 0 0 0 0
0 0 0 0 0 0 0 0 0 0 0 0 0 0 0 0 0 0 0 0 0 0 0 5 3 1 0 0 0 0 0 0 0 0 0 0 0 0 0 0 0 0 0 0 0 0 0
0 0 0 0 0 0 0 0 0 0 0 0 0 1 0 0 0 0 0 0 0 1 0 1 0 0 0 0 0 0 0 0 0 0 0 0 0 0 0 0 0 0 0 0 0 0 0
0 0 0 19 8 0 0 0 0 0 0 0 0 0 1 0 0 5 0 29 16 13 11 1 0 0 0 0 0 0 0 0 0 0 0 0 0 0 0 0 0 0 0 0 0 0 0

GFSGBSN_con_mucape_039.txt.gz
CAPE
19 41 35 31 18 27 58 65 75 71 77 81 85 89 102 128 152 144 186 139 93 36 24 34 3 48 36 12 0 72 21 80 51 58 22 5 3 0 0 0 0 0 0 0 0 0 0
28 32 32 37 20 55 69 73 69 74 74 78 83 80 98 135 182 187 209 158 124 57 57 59 38 7 0 0 3 61 26 88 64 106 18 19 3 0 0 0 0 0 0 0 0 0 0
54 37 47 33 32 58 61 66 79 67 76 82 83 83 84 148 226 207 200 199 158 141 88 69 10 33 2 0 0 0 56 207 216 115 13 8 0 5 0 0 0 0 0 0 0 0 0
45 48 38 38 39 61 72 74 70 73 77 81 90 97 112 156 203 217 206 200 197 153 121 83 18 30 0 0 1 0 149 157 177 164 95 77 58 22 0 0 0 0 0 0 0 0 0
39 36 38 31 63 74 81 78 62 75 74 76 83 107 121 171 170 209 164 169 225 192 157 101 5 39 7 0 0 32 77 90 123 107 106 95 50 31 2 5 0 1 0 0 0 0 0
47 39 38 38 63 74 75 72 69 76 79 80 81 91 74 73 136 184 207 244 215 96 72 71 28 50 2 0 0 45 31 24 91 137 108 88 40 25 18 14 0 0 0 0 0 0 0
38 44 38 30 73 71 64 62 61 61 91 82 54 38 41 78 144 230 149 0 0 38 78 0 0 7 5 0 0 42 47 20 116 112 107 88 54 6 0 0 0 0 0 0 0 0 0
30 33 29 59 79 79 62 66 35 55 87 56 35 32 48 112 145 169 51 8 4 17 15 15 25 20 2 2 7 53 17 15 60 73 90 49 34 4 1 9 6 2 0 0 0 0 0
33 27 47 46 78 82 71 40 0 55 79 88 88 71 82 127 163 18 4 0 21 0 0 0 0 3 0 0 0 10 0 46 52 60 29 13 3 5 15 8 12 0 0 0 0 0 0
33 25 34 52 66 69 6 0 0 75 92 127 213 229 177 153 88 47 2 25 15 3 0 0 3 4 0 1 0 4 10 48 59 50 36 15 11 12 8 0 0 0 0 0 0 0 0
0 27 32 60 46 57 0 0 0 63 77 92 93 136 168 152 51 7 39 18 1 4 0 1 0 2 0 0 0 18 27 16 34 31 8 0 0 12 5 0 0 0 0 0 0 0 0
0 23 37 33 36 39 0 0 0 40 83 111 40 107 73 0 14 20 22 21 0 24 0 3 6 5 0 0 23 37 66 33 14 11 7 0 1 0 0 3 1 0 0 0 0 0 0
0 19 0 38 39 0 0 0 0 36 71 104 8 51 12 4 1 10 3 0 12 30 0 0 1 1 0 6 36 30 12 16 16 2 0 0 0 0 0 0 0 0 0 0 0 0 0
0 2 0 4 31 0 0 0 0 25 21 70 12 0 7 2 0 0 0 0 10 0 0 12 0 0 0 30 13 19 6 0 18 0 0 0 0 0 0 0 0 0 0 0 0 0 0
0 0 0 0 0 0 0 0 0 29 24 29 0 0 0 0 0 0 17 0 2 0 0 0 0 0 0 0 13 6 0 1 2 0 0 0 0 0 0 0 0 0 0 0 0 0 0
0 1 0 0 0 0 0 0 0 0 19 0 0 0 0 0 0 0 0 0 0 0 2 0 0 0 0 0 1 1 0 3 4 0 0 0 0 0 0 0 0 0 0 0 0 0 0
0 0 0 0 0 0 0 0 0 0 0 0 0 0 0 0 0 0 0 0 0 0 0 0 0 0 0 0 0 0 0 0 3 0 0 0 0 0 0 0 0 0 0 0 0 0 0
0 0 0 0 0 0 0 0 0 0 0 0 0 0 0 0 0 0 0 0 0 0 0 0 0 0 0 0 0 0 0 0 0 0 0 0 0 0 0 0 0 0 0 0 0 0 0
0 0 0 0 0 0 0 0 0 0 0 0 0 0 0 0 1 0 0 0 0 0 0 0 0 0 0 0 0 0 0 0 0 0 0 0 0 0 0 0 0 0 0 0 0 0 0
0 0 0 0 0 0 0 0 0 0 0 0 0 0 0 0 0 0 0 0 0 0 0 0 0 0 0 0 0 0 0 0 0 0 0 0 0 0 0 0 0 0 0 0 0 0 0
0 0 0 0 0 0 0 0 0 0 0 0 0 0 0 0 0 0 0 0 0 0 0 0 0 0 0 0 0 0 0 0 0 13 0 0 0 0 0 0 0 0 0 0 0 0 0
0 0 0 0 0 0 0 0 0 0 0 0 0 0 0 0 0 0 0 0 0 0 0 0 0 0 0 0 0 0 0 0 0 0 0 0 0 0 0 0 0 0 0 0 0 0 0
0 0 0 0 3 0 0 0 0 0 0 0 0 0 0 0 0 0 0 0 0 0 0 0 0 0 0 0 0 0 0 0 0 0 0 0 0 0 0 0 0 0 0 0 0 0 0
0 0 0 0 0 5 0 0 0 0 0 0 0 0 0 0 0 0 0 0 0 0 0 0 0 0 0 0 0 0 0 0 0 0 0 0 0 0 0 0 0 0 0 0 0 0 0
0 0 0 0 0 7 0 0 0 0 0 0 0 0 0 0 0 0 0 0 0 0 0 0 0 0 0 0 0 0 0 0 0 0 0 0 0 0 0 0 0 0 0 0 0 0 0
0 0 0 0 0 16 0 0 0 0 0 0 0 0 0 0 0 0 0 0 0 0 0 0 0 0 0 0 0 0 0 0 0 0 0 0 0 0 0 0 0 0 0 0 0 0 0
0 0 0 0 0 0 5 0 0 0 0 0 0 0 0 0 0 0 0 0 0 0 0 0 0 0 0 0 0 0 0 0 0 0 0 0 0 0 0 0 0 0 0 0 0 0 0
0 0 0 0 0 0 0 15 0 0 0 0 0 0 0 0 0 0 0 0 0 0 0 1 1 0 0 0 0 0 0 0 0 0 0 0 0 0 0 0 0 0 0 0 0 0 0
0 0 0 0 0 0 1 0 23 0 0 0 0 0 0 0 0 0 0 11 9 9 27 13 0 0 0 0 0 0 0 0 0 0 0 0 0 0 0 0 0 0 0 0 0 0 0

GFSGBSN_con_mucape_042.txt.gz
CAPE
29 43 34 54 44 56 66 78 76 91 97 92 91 77 87 69 87 103 145 212 172 180 125 45 32 33 70 16 12 149 221 201 0 11 58 38 14 11 1 0 0 0 0 0 0 0 0
49 28 41 46 48 51 67 92 93 94 101 80 92 80 78 87 100 145 222 269 221 224 154 71 65 58 6 0 2 1 133 199 0 169 82 50 18 4 0 0 0 0 0 0 0 0 0
29 36 45 54 55 67 72 85 92 94 92 91 88 99 97 122 168 182 242 244 229 186 169 145 72 42 11 0 0 6 120 123 95 287 134 74 25 1 0 0 0 0 0 0 0 0 0
20 39 38 43 45 61 74 75 70 83 86 118 107 99 121 128 170 223 247 209 188 218 198 135 90 37 3 0 0 1 0 185 146 252 139 62 25 24 0 0 0 0 0 0 0 0 0
0 28 32 46 56 66 61 64 68 60 47 71 125 122 72 76 72 169 170 169 216 254 202 176 36 25 24 2 2 0 56 256 203 138 122 88 87 44 17 1 0 0 0 0 0 0 0
0 30 22 52 58 67 59 63 68 36 33 74 106 17 9 71 105 195 230 251 197 52 62 119 61 13 13 0 11 35 73 134 115 127 118 51 58 30 27 2 0 0 0 0 0 0 0
0 27 27 55 56 58 56 70 0 8 73 91 89 89 37 41 131 202 123 0 0 0 59 0 0 16 25 1 4 79 61 105 95 91 103 20 70 0 0 15 0 0 0 0 0 0 0
0 19 36 35 68 53 71 0 0 61 74 95 163 209 203 99 113 173 22 0 0 3 0 27 0 59 40 11 12 64 57 36 46 41 0 0 0 5 0 0 3 0 0 0 0 0 0
0 3 36 43 41 0 32 0 3 65 81 143 161 166 205 204 114 17 10 3 10 6 0 4 7 14 2 0 10 20 21 48 36 62 31 1 9 25 15 9 13 17 0 0 0 0 0
0 0 24 23 43 0 0 0 3 54 75 102 153 217 123 134 20 6 1 21 10 0 0 0 6 14 19 0 3 15 24 41 51 9 47 16 15 12 0 0 21 0 0 0 0 0 0
0 0 14 19 37 0 0 0 3 39 85 75 104 185 92 54 7 3 16 4 0 0 0 0 0 2 32 0 0 21 34 67 40 36 12 0 33 7 0 0 0 0 0 0 0 0 0
0 0 29 0 23 0 0 0 0 40 42 99 23 48 20 0 2 11 16 0 0 0 0 1 3 3 2 0 0 36 31 15 29 40 8 1 8 22 14 3 0 0 0 0 0 0 0
0 0 5 0 0 0 0 0 0 41 23 57 2 6 0 1 0 0 0 0 0 0 0 0 0 1 0 0 0 8 1 1 0 0 0 2 1 2 0 5 1 0 0 0 0 0 0
0 0 0 0 0 0 0 0 0 1 10 29 2 0 0 0 1 0 0 0 0 0 0 5 2 0 0 0 0 3 5 0 13 1 0 0 0 0 0 0 0 0 0 0 0 0 0
0 0 0 0 0 0 0 0 0 0 0 0 0 0 0 0 0 0 0 0 0 0 0 0 0 0 0 0 0 5 1 0 0 1 0 0 0 0 0 0 0 0 0 0 0 0 0
0 0 0 0 0 0 0 0 0 0 0 0 0 0 0 0 0 0 0 0 0 0 0 0 0 0 0 0 0 0 0 0 0 0 0 0 0 0 0 0 0 0 0 0 0 0 0
0 0 0 0 0 0 0 0 0 0 0 0 0 0 0 0 0 0 0 0 0 0 0 0 0 0 0 0 0 0 0 0 0 0 0 0 0 0 0 0 0 0 0 0 0 0 0
0 0 0 0 0 0 0 0 0 0 0 0 0 0 0 0 0 0 0 0 0 0 0 0 0 0 0 0 0 0 0 0 0 0 0 0 0 0 0 0 0 0 0 0 0 0 0
0 0 0 0 0 0 0 0 0 0 0 0 0 0 0 0 0 0 0 0 0 0 0 0 0 0 0 0 0 0 0 0 0 0 0 0 0 0 0 0 0 0 0 0 0 0 0
0 0 0 0 0 0 0 0 0 0 0 0 0 0 0 0 0 0 0 0 0 0 0 0 0 0 0 0 0 0 0 0 0 0 0 0 0 0 0 0 0 0 0 0 0 0 0
0 0 0 0 0 0 0 0 0 0 0 0 0 0 0 0 0 0 0 0 0 0 0 0 0 0 0 0 0 0 0 0 0 0 0 0 0 0 0 0 0 0 0 0 0 0 0
0 0 0 0 0 0 0 0 0 0 0 0 0 0 0 0 0 0 0 0 0 0 0 0 0 0 0 0 0 0 0 0 0 0 0 0 0 0 0 0 0 0 0 0 0 0 0
0 0 0 0 0 0 0 0 0 0 0 0 0 0 0 0 0 0 0 0 0 0 0 0 0 0 0 0 0 0 0 0 0 0 0 0 0 0 0 0 0 0 0 0 0 0 0
0 0 0 0 0 0 0 1 0 0 0 0 0 0 0 0 0 0 0 0 0 0 0 0 3 0 0 0 0 0 0 0 0 0 0 0 0 0 0 0 0 0 0 0 0 0 0
0 0 0 0 0 0 0 9 0 0 0 0 0 0 0 0 0 0 0 0 0 0 0 2 0 0 0 0 0 0 0 0 0 0 0 0 0 0 0 0 0 0 0 0 0 0 0
0 0 0 0 0 0 0 0 9 0 0 0 0 0 0 0 0 0 0 0 0 0 0 0 0 0 0 0 0 0 0 0 0 0 0 0 0 0 0 0 0 0 0 0 0 0 0
0 0 0 0 0 0 0 0 1 5 7 0 0 0 0 0 0 0 0 0 0 0 0 0 0 0 0 0 0 0 0 0 0 0 0 0 0 0 0 0 0 0 0 0 0 0 0
0 0 0 0 0 0 0 0 0 10 23 0 0 0 0 0 0 0 0 0 3 0 0 0 1 0 0 0 0 0 0 0 0 0 0 0 0 0 0 0 0 0 0 0 0 0 0
0 0 0 0 0 0 0 0 0 0 0 21 0 0 0 0 0 0 0 0 0 7 2 2 0 0 0 0 0 0 0 0 0 0 0 0 0 0 0 0 0 0 0 0 0 0 0

GFSGBSN_con_mucape_045.txt.gz
CAPE
18 0 29 44 39 38 50 77 66 65 80 89 86 90 99 97 124 119 144 202 197 179 138 130 76 25 25 76 5 21 103 2 51 4 47 34 32 21 9 0 0 0 0 0 0 0 0
30 0 31 36 50 32 58 63 61 65 74 91 82 120 161 151 170 159 193 195 224 239 205 171 122 90 34 67 11 8 54 79 5 26 64 30 14 16 13 0 0 0 0 0 0 0 0
16 0 17 31 37 41 77 61 62 71 73 64 81 125 176 150 128 148 201 236 256 210 193 215 180 94 58 32 13 31 55 23 0 69 201 72 4 4 0 0 0 0 0 0 0 0 0
25 0 14 37 42 50 56 74 53 63 47 42 58 128 156 52 76 77 181 156 163 192 216 172 154 75 17 24 25 1 29 33 34 258 288 189 27 9 0 0 0 0 0 0 0 0 0
10 0 4 36 43 59 59 77 54 20 52 96 148 195 118 7 53 86 173 203 223 289 219 155 72 33 25 62 0 2 25 52 109 182 249 152 110 43 10 0 0 0 0 0 0 0 0
21 0 11 48 59 59 33 76 10 46 68 88 179 229 214 156 26 124 215 279 211 33 81 158 65 9 16 15 6 4 0 67 166 173 156 115 64 27 24 0 0 0 0 0 0 0 0
0 0 0 42 46 32 29 68 40 47 61 95 154 197 216 218 69 102 83 0 0 0 12 0 0 6 48 34 0 28 9 125 97 102 69 63 10 0 1 5 0 0 0 0 0 0 0
0 0 9 20 34 0 34 48 24 56 34 99 144 180 192 185 122 56 25 0 0 0 0 15 0 13 25 33 18 0 76 75 123 27 50 59 0 0 1 17 0 0 0 0 0 0 0
0 0 0 26 31 0 22 0 34 45 49 71 123 136 116 89 75 11 0 4 9 0 0 1 0 8 29 27 2 17 13 24 23 0 0 0 20 7 4 15 0 0 0 0 0 0 0
0 0 0 19 27 0 0 0 0 0 46 40 72 96 93 76 0 3 0 25 13 0 0 3 31 11 37 23 0 16 0 3 12 0 0 0 21 21 12 9 14 0 1 0 0 0 0
0 0 0 16 15 0 0 0 0 0 32 20 6 23 13 1 17 9 15 0 0 0 4 0 18 12 46 0 2 26 3 28 22 22 0 0 0 0 0 3 8 0 0 0 0 0 0
0 0 0 8 0 0 0 0 0 0 0 2 1 0 0 0 0 0 0 0 0 3 0 0 1 14 0 0 10 21 29 6 25 26 0 1 28 0 2 0 1 0 0 0 0 0 0
0 0 0 0 0 4 0 0 0 0 0 0 0 0 0 0 0 0 0 0 0 0 0 0 19 21 0 0 4 3 10 25 0 0 0 0 0 3 0 1 0 0 0 0 0 0 0
0 0 0 0 12 0 0 0 0 0 0 0 0 0 0 0 0 0 0 0 0 0 0 0 0 20 0 0 0 0 24 0 0 0 0 0 2 2 0 0 0 0 0 0 0 0 0
0 0 0 0 0 0 0 0 0 0 0 0 0 0 0 0 0 0 0 0 0 0 0 0 0 0 0 0 0 2 0 0 0 0 0 0 0 0 0 0 0 0 0 0 0 0 0
0 0 0 0 0 0 0 0 0 0 0 0 0 0 0 0 0 0 0 0 0 0 0 0 0 0 0 0 0 0 0 0 0 0 0 0 0 0 0 0 0 0 0 0 0 0 0
0 0 0 0 0 0 0 0 0 0 0 0 0 0 0 0 0 0 0 0 0 0 0 0 0 0 0 0 0 0 0 0 0 0 0 0 0 0 0 0 0 0 0 0 0 0 0
0 0 0 0 0 0 0 0 0 0 0 0 0 0 0 0 0 0 0 0 0 0 0 0 0 0 0 0 0 0 0 0 0 0 0 0 0 0 0 0 0 0 0 0 0 0 0
0 0 0 0 0 0 0 0 0 0 0 0 0 0 0 0 0 0 0 0 0 0 0 0 0 0 0 0 0 0 0 0 0 0 0 0 0 0 0 0 0 0 0 0 0 0 0
0 0 0 0 0 0 0 0 0 0 0 0 0 0 0 0 0 0 0 0 0 0 0 0 0 0 0 0 0 0 0 0 0 0 0 0 0 0 0 0 0 0 0 0 0 0 0
0 0 0 0 0 0 0 0 0 0 0 0 0 0 0 0 0 0 0 0 0 0 0 0 0 0 0 0 0 0 0 0 0 0 0 0 0 0 0 0 0 0 0 0 0 0 0
0 0 0 0 0 0 0 0 0 0 0 0 0 0 0 0 0 0 0 0 0 0 0 0 0 0 0 0 0 0 0 0 0 0 0 0 0 0 0 0 0 0 0 0 0 0 0
0 0 0 0 0 0 0 0 0 0 0 0 0 0 0 0 0 0 0 0 0 0 0 0 0 0 0 0 0 0 0 0 0 0 0 0 0 0 0 0 0 0 0 0 0 0 0
0 0 0 0 0 0 0 0 0 0 0 0 0 0 0 0 0 0 0 0 0 0 0 0 0 0 0 0 0 0 0 0 0 0 0 0 0 0 0 0 0 0 0 0 0 0 0
0 0 0 0 0 0 0 0 0 0 0 0 0 0 0 0 0 0 0 0 0 0 0 0 0 0 0 0 0 0 0 0 0 0 0 0 0 0 0 0 0 0 0 0 0 0 0
0 0 0 0 0 0 0 0 0 0 0 0 0 0 0 0 0 0 0 0 0 0 0 0 1 2 3 0 0 0 0 0 0 0 0 0 0 0 0 0 0 0 0 0 0 0 0
0 0 0 0 0 0 0 0 0 0 0 0 0 0 0 0 0 0 0 0 0 0 0 0 0 0 5 0 0 0 0 0 0 0 0 0 0 0 0 0 0 0 0 0 0 0 0
0 0 0 0 0 0 0 0 0 0 0 0 0 0 0 0 0 0 0 0 0 0 0 0 0 0 0 0 0 0 0 0 0 0 0 0 0 0 0 0 0 0 0 0 0 0 0
0 0 0 0 0 0 0 5 52 0 0 0 0 0 0 0 0 0 0 0 0 8 8 1 0 0 0 0 0 0 0 0 0 0 0 0 0 0 0 0 0 0 0 0 0 0 0

GFSGBSN_con_mucape_048.txt.gz
CAPE
18 28 16 23 33 44 50 45 42 38 56 77 78 60 75 120 163 167 178 180 199 253 240 234 152 123 59 11 2 15 58 117 322 118 45 25 88 80 25 10 0 0 0 0 0 0 0
19 29 3 27 40 46 41 33 51 58 65 51 58 58 95 165 154 131 137 201 251 248 217 259 185 124 64 0 15 52 115 21 110 137 72 76 21 44 34 26 0 0 0 0 0 0 0
20 19 29 25 35 39 54 28 61 38 23 54 128 150 168 130 50 38 99 141 209 182 168 201 210 133 46 0 77 48 28 0 134 37 97 167 33 45 24 17 2 0 0 0 0 0 0
21 21 10 20 35 31 39 23 61 40 61 91 147 176 196 130 0 11 71 159 202 201 197 154 211 127 24 2 44 23 25 9 230 57 205 231 183 56 27 4 0 0 0 0 0 0 0
17 23 0 30 28 27 33 40 58 60 64 90 148 187 182 185 85 13 89 212 286 276 254 101 93 120 24 111 30 5 6 4 189 99 265 166 180 74 14 14 0 0 0 0 0 0 0
18 12 0 23 27 26 24 59 49 55 62 74 124 159 182 197 171 5 114 217 117 83 214 61 26 87 31 85 102 21 20 48 142 99 208 119 144 88 57 19 0 0 0 0 0 0 0
15 16 0 24 29 0 0 0 0 64 49 78 85 105 127 119 84 12 146 24 11 64 74 0 1 0 63 43 68 1 2 43 112 179 43 62 91 37 23 10 0 0 0 0 0 0 0
11 15 0 16 28 0 4 0 0 0 59 54 31 59 76 74 52 119 72 4 2 2 11 42 0 4 2 33 7 0 28 68 76 23 66 0 0 23 38 25 0 0 0 0 0 0 0
12 11 0 0 21 19 0 19 0 0 45 46 15 25 37 76 67 54 32 16 5 0 23 4 0 1 28 32 0 1 0 0 42 19 51 0 0 0 38 31 0 0 0 0 0 0 0
10 12 0 0 19 15 0 0 0 0 0 27 22 7 0 0 5 23 33 48 0 0 1 0 0 8 23 32 0 0 0 0 0 0 0 3 35 13 0 29 15 0 0 0 0 0 0
0 2 0 0 0 0 0 0 0 0 0 0 6 5 0 0 0 0 0 0 0 0 1 5 7 0 26 0 0 20 0 1 0 0 0 0 0 58 28 7 22 0 0 0 0 0 0
0 0 0 0 0 0 0 0 0 0 0 0 0 0 0 0 0 0 0 0 0 0 0 2 1 1 1 0 8 31 0 0 0 0 0 0 0 0 4 12 17 0 0 0 0 0 0
0 0 0 0 0 0 2 0 0 0 0 0 0 0 0 0 0 0 0 0 0 0 0 1 0 0 0 2 0 9 12 27 43 0 0 0 0 0 1 0 0 0 0 0 0 0 0
0 0 5 0 0 0 0 0 0 0 0 0 0 0 0 0 0 0 0 0 0 0 0 0 11 11 2 0 0 3 5 0 0 0 0 0 0 0 5 0 0 0 0 0 0 0 0
0 0 0 0 0 0 0 0 0 0 0 0 0 0 0 0 0 0 0 0 0 0 5 9 0 0 0 0 0 3 0 0 0 0 0 0 0 0 0 0 0 0 0 0 0 0 0
0 0 0 0 0 0 0 0 0 0 0 0 0 0 0 0 0 0 1 0 0 0 0 0 0 0 0 0 0 0 0 0 0 1 0 0 0 0 0 0 0 0 0 0 0 0 0
0 0 0 0 0 0 0 0 0 2 0 0 0 0 0 0 0 0 0 0 0 0 0 0 0 0 0 0 0 0 0 0 0 0 0 0 0 0 0 0 0 0 0 0 0 0 0
0 0 0 0 0 0 0 0 0 0 2 0 0 0 0 0 0 0 0 0 0 0 0 0 0 0 0 0 0 0 0 0 0 0 0 0 0 0 0 0 0 0 0 0 0 0 0
0 0 0 0 0 0 0 0 0 0 0 0 0 0 0 0 0 0 0 0 0 0 0 0 0 0 0 0 0 0 0 0 0 0 0 0 0 0 0 0 0 0 0 0 0 0 0
0 0 0 0 0 0 0 0 0 0 0 0 0 0 0 0 0 0 0 0 0 0 0 0 0 0 0 0 0 0 0 0 0 0 0 0 0 0 0 0 0 0 0 0 0 0 0
0 0 0 0 0 0 0 0 0 0 0 0 0 0 0 0 0 0 0 0 0 0 0 0 0 0 0 0 0 0 0 0 0 0 0 0 0 0 0 0 0 0 0 0 0 0 0
0 0 0 0 0 0 0 0 0 0 0 0 0 0 0 0 0 0 0 0 0 0 0 0 0 0 0 0 0 0 0 0 0 0 0 0 0 0 0 0 0 0 0 0 0 0 0
0 0 0 0 0 0 0 0 0 0 0 0 0 0 0 0 0 0 0 0 0 0 0 0 0 0 0 0 0 0 0 0 0 0 0 0 0 0 0 0 0 0 0 0 0 0 0
0 0 0 0 0 0 0 0 0 0 0 0 0 0 0 0 0 0 0 0 0 0 0 0 0 0 0 0 0 0 0 0 0 0 0 0 0 0 0 0 0 0 0 0 0 0 0
0 0 0 0 0 0 0 0 0 0 0 0 0 0 0 0 0 0 0 0 0 0 0 0 0 2 1 0 0 0 0 0 0 0 0 0 0 0 0 0 0 0 0 0 0 0 0
1 0 0 0 0 0 0 0 0 0 0 0 0 0 0 0 0 0 0 0 0 0 0 0 0 0 3 22 0 0 0 0 0 0 0 0 0 0 0 0 0 0 0 0 0 16 0
0 0 0 0 0 0 0 0 0 0 0 0 0 0 0 0 0 0 0 0 0 0 0 0 0 0 10 30 0 0 0 0 0 0 0 0 0 0 0 0 0 0 0 1 0 1 0
0 0 0 0 0 0 0 0 56 45 0 0 0 0 0 0 0 0 0 0 0 0 0 0 0 0 0 34 0 0 0 0 0 0 0 0 0 0 0 0 0 0 0 0 0 0 0
0 0 0 0 0 0 0 0 2 15 0 0 0 0 0 0 0 0 0 0 0 0 2 4 0 0 1 22 0 0 0 0 0 0 0 0 0 0 0 0 0 0 3 0 0 0 0

GFSGBSN_con_mucape_051.txt.gz
CAPE
13 18 28 5 39 48 46 41 44 61 36 16 32 92 176 164 173 166 150 154 156 219 237 287 251 163 74 59 0 91 234 544 433 240 45 30 22 74 26 3 0 0 0 0 0 0 0
5 19 22 0 39 38 49 41 34 55 31 52 87 117 197 225 205 150 90 113 115 199 238 247 251 127 72 50 7 30 48 113 338 245 17 54 11 61 25 23 0 0 0 0 0 0 0
0 20 26 0 30 37 51 37 58 44 31 84 101 121 173 175 74 90 35 35 113 177 170 158 191 139 90 50 78 136 98 79 137 267 13 28 25 118 73 31 16 0 0 0 0 0 0
0 16 20 0 31 28 32 38 35 45 61 88 90 103 139 157 148 71 22 66 133 167 112 159 162 130 58 10 1 47 112 62 108 369 36 112 132 130 55 34 24 9 0 0 0 0 0
0 11 17 0 28 34 30 23 0 60 62 85 80 79 97 117 152 120 15 105 228 219 220 80 70 129 53 116 50 28 126 43 322 329 92 278 302 141 60 48 40 36 0 0 0 0 0
0 13 15 0 24 22 0 38 0 57 59 65 68 57 91 98 85 103 15 94 88 114 213 57 25 92 14 82 115 143 174 42 291 217 323 209 120 102 85 50 0 0 0 0 0 0 0
0 0 13 0 0 20 8 0 0 0 54 53 65 57 38 71 64 11 131 142 196 152 117 33 35 27 19 51 95 46 30 69 236 96 42 130 27 0 0 0 0 0 0 0 0 0 0
0 0 7 0 0 16 14 0 0 0 0 46 61 52 39 69 96 42 101 38 9 42 36 20 3 0 4 33 10 26 62 166 25 35 66 83 0 39 27 25 9 0 0 0 0 0 0
0 0 3 5 0 14 12 0 0 0 0 0 26 27 13 11 7 38 38 28 10 0 51 37 18 4 40 17 7 2 2 35 11 32 30 15 0 23 46 10 17 0 0 0 0 0 0
0 0 0 4 0 1 11 3 0 0 0 0 14 27 0 0 12 34 10 8 3 1 23 0 6 6 20 18 5 14 4 3 12 55 54 16 31 6 38 25 20 0 0 0 0 0 0
0 0 0 0 0 0 10 12 0 0 0 0 0 6 0 0 0 0 0 0 0 0 0 0 0 34 0 0 0 0 0 0 15 2 0 2 0 0 3 37 26 2 3 0 0 0 0
0 0 0 0 0 0 3 7 4 0 0 0 0 0 0 0 0 0 0 0 0 4 0 0 4 0 3 0 1 0 0 0 12 0 3 0 4 0 0 2 28 8 0 0 0 0 0
0 0 0 0 0 0 0 2 5 0 0 0 0 0 0 0 0 0 0 0 1 9 0 0 16 1 16 1 0 0 0 0 0 0 0 0 1 4 7 2 22 5 32 0 0 0 0
0 0 0 0 0 0 0 0 4 6 0 0 0 0 0 0 0 0 0 0 2 0 0 0 0 0 0 0 0 0 0 0 0 31 0 0 0 0 1 0 0 6 37 0 0 0 0
0 0 0 0 0 0 0 0 0 7 22 0 0 0 0 0 0 0 0 0 0 0 0 0 0 0 14 0 1 1 0 12 2 12 0 0 0 0 0 0 0 0 0 0 0 0 0
0 0 0 0 0 0 0 0 0 3 12 0 0 0 0 0 0 0 3 0 0 1 0 6 0 0 0 1 15 0 0 0 0 0 0 0 0 0 0 0 0 0 0 0 0 0 0
0 0 0 0 0 0 0 0 0 0 8 1 0 1 0 0 0 5 0 0 0 0 0 0 0 0 0 0 4 1 0 0 0 0 0 0 0 0 0 0 0 0 0 0 0 0 0
0 0 0 0 0 0 0 0 0 0 0 0 1 9 0 0 14 17 10 8 0 0 0 0 0 0 1 1 5 3 0 0 0 0 0 0 0 0 0 0 0 0 0 0 0 0 0
0 0 0 0 0 0 0 0 0 0 0 0 0 0 0 0 24 8 0 0 0 0 0 0 0 0 0 0 0 0 0 0 0 0 0 0 0 0 0 0 0 0 0 0 0 0 0
0 0 0 0 0 0 0 0 0 0 0 0 0 1 0 0 0 2 0 0 0 0 0 0 0 0 0 0 0 0 0 0 0 0 0 0 0 0 0 0 0 0 0 0 0 0 0
0 0 0 0 0 0 0 0 0 0 0 0 0 0 0 11 4 0 0 0 0 0 0 0 0 0 0 0 0 0 0 0 0 0 0 0 0 0 0 0 0 0 0 0 0 0 0
0 0 0 0 0 0 0 0 0 0 0 0 0 0 0 0 0 0 0 0 0 0 0 0 0 0 0 0 0 0 0 0 0 0 0 0 0 0 0 0 0 0 0 0 0 0 0
0 0 0 0 0 0 0 0 0 0 0 0 0 0 0 0 0 0 5 0 0 0 0 0 0 0 0 0 0 0 0 0 0 0 0 0 0 0 0 0 0 0 0 0 0 0 0
0 0 0 0 0 0 0 0 0 0 0 0 0 0 0 0 0 0 0 0 0 1 0 0 0 0 0 0 0 0 0 0 0 0 0 0 0 0 0 0 0 0 0 0 0 0 0
0 0 0 0 0 0 0 0 0 0 0 0 0 0 0 0 0 0 0 0 0 0 0 0 0 0 0 0 0 0 0 0 0 0 0 0 0 0 0 0 0 0 0 0 0 0 0
0 0 0 0 0 0 0 0 0 0 0 0 0 0 0 0 0 0 0 0 0 0 12 5 0 0 1 27 0 0 0 0 0 0 0 0 0 0 0 0 0 2 0 0 0 1 0
0 0 0 0 0 0 0 0 0 0 0 0 0 0 0 0 0 0 0 0 0 0 0 21 13 5 5 38 0 0 0 0 0 0 0 0 0 0 0 0 0 0 0 0 2 2 0
0 0 0 0 0 0 0 0 0 0 0 0 0 0 0 0 0 0 0 0 0 1 0 1 24 18 41 38 0 0 0 0 0 0 0 0 0 0 0 0 0 0 0 0 7 1 0
0 0 0 0 0 0 0 0 0 0 0 0 0 0 0 0 0 0 0 0 0 0 0 1 11 6 56 47 25 16 0 15 5 0 0 0 0 0 0 0 0 0 6 16 6 0 0

GFSGBSN_con_mucape_054.txt.gz
CAPE
0 2 24 0 0 17 24 39 27 54 16 30 59 94 129 165 240 207 192 86 111 60 152 199 240 212 79 51 1 8 189 71 322 318 31 45 0 21 11 0 0 0 0 0 0 0 0
0 0 19 0 0 25 40 35 45 22 24 47 53 84 109 140 205 182 123 15 62 75 151 147 173 129 115 78 3 11 92 145 264 229 89 27 0 0 16 13 0 0 0 0 1 0 0
0 0 0 3 0 25 25 30 44 28 43 43 67 94 87 119 194 140 25 29 44 80 109 166 138 97 75 8 31 246 84 72 186 257 129 7 0 82 97 75 6 2 1 0 0 0 0
0 0 0 0 0 18 25 0 51 36 34 48 54 79 82 131 141 140 24 55 87 165 177 156 169 85 14 16 2 30 107 49 92 249 183 34 15 45 86 82 30 14 7 0 0 0 0
0 0 0 0 0 5 29 5 0 0 0 34 57 67 42 83 89 122 16 67 193 236 243 116 74 111 23 202 0 0 4 71 90 220 246 96 206 87 57 26 32 17 0 0 0 0 0
0 0 0 0 0 0 30 4 0 0 0 25 40 57 51 62 77 84 11 114 95 96 196 80 55 25 4 54 9 0 38 87 149 179 177 126 98 66 32 45 14 0 0 0 0 0 0
0 0 0 0 0 0 24 26 0 0 0 27 30 49 41 53 55 69 134 164 149 110 74 4 18 11 11 4 63 27 67 114 317 158 86 62 10 2 0 0 0 0 0 0 0 0 0
0 0 0 0 0 0 10 21 0 0 0 0 30 18 50 17 24 78 118 10 0 2 26 6 15 0 2 8 42 0 106 100 190 37 26 35 11 0 24 22 11 0 0 0 1 0 0
0 0 0 0 0 0 0 23 0 0 0 0 1 4 34 5 0 34 6 6 5 3 40 9 8 28 5 0 2 13 73 37 5 4 15 4 7 1 0 4 0 0 0 0 0 0 0
0 0 0 0 0 0 0 3 24 0 0 0 0 0 2 3 0 0 0 0 4 0 24 5 20 11 5 5 0 30 39 1 17 3 42 31 1 0 15 24 0 0 0 0 3 0 0
0 0 0 0 0 0 0 0 17 17 0 0 0 0 0 0 0 0 0 0 0 0 0 0 0 11 0 0 0 2 0 27 33 24 11 3 2 6 20 19 17 3 18 0 3 0 0
0 0 0 0 0 0 0 0 0 3 3 0 0 0 0 0 0 0 0 0 0 0 1 0 0 1 4 0 0 9 4 0 0 12 4 0 6 0 16 0 12 30 1 0 0 0 0
0 0 0 0 0 0 0 0 0 0 4 0 0 0 0 0 0 0 0 0 0 0 0 0 2 5 0 1 0 0 0 17 0 16 0 0 3 0 0 0 8 17 4 0 0 0 0
0 0 0 0 0 0 0 0 0 0 0 6 0 0 0 0 0 0 0 0 0 0 0 0 0 1 0 0 0 1 0 0 0 0 0 0 10 0 0 0 0 0 1 0 0 0 0
0 0 0 0 0 0 0 0 0 0 0 3 0 0 0 0 0 0 0 0 0 0 0 0 2 0 0 0 0 0 3 0 0 0 0 0 0 0 0 0 0 0 0 0 0 0 0
0 0 0 0 0 0 0 0 0 0 0 0 0 0 0 0 0 0 0 0 0 0 1 0 0 0 0 0 0 0 0 0 0 0 0 0 1 0 0 0 0 0 0 0 6 0 0
0 0 0 0 0 0 0 0 0 0 0 0 0 0 0 0 0 2 0 0 0 0 0 0 0 0 0 1 3 4 0 0 0 0 0 0 0 0 0 0 0 0 0 0 0 0 0
0 0 0 0 0 0 0 0 0 0 0 0 0 7 0 0 2 69 7 0 0 0 0 0 0 0 2 0 3 1 0 0 0 0 0 0 0 0 0 0 0 0 0 0 0 0 0
0 0 0 0 0 0 0 0 0 0 0 0 0 0 0 0 32 14 0 0 0 0 0 0 0 0 0 0 0 0 0 0 0 0 0 0 0 0 0 0 0 0 0 0 0 0 0
0 0 0 0 0 0 0 0 0 0 0 0 0 0 0 1 0 0 4 0 0 0 0 0 0 0 0 0 0 0 0 0 0 0 0 0 0 0 0 0 0 0 0 0 0 0 0
0 0 0 0 0 0 0 0 0 0 0 0 0 0 0 0 2 0 0 1 0 0 0 0 0 0 0 0 0 0 0 0 0 0 0 0 0 0 0 0 0 0 0 0 0 0 0
0 0 0 0 0 0 0 0 0 0 0 0 0 0 0 0 0 0 0 11 0 0 0 0 0 0 0 0 0 0 0 0 0 0 0 0 0 0 0 0 0 0 0 0 0 0 0
0 0 0 0 0 0 0 0 0 0 0 0 0 0 0 0 0 0 1 1 0 0 0 0 0 0 0 0 0 0 0 0 0 0 0 0 0 0 0 0 0 0 0 0 0 0 0
0 0 0 0 0 0 0 0 0 0 0 0 0 0 0 0 0 0 0 0 0 0 0 1 0 0 0 0 0 0 0 0 0 0 0 0 0 0 0 0 0 0 0 0 0 0 0
0 0 0 0 0 0 0 0 0 0 0 0 0 0 0 0 0 0 0 0 0 0 0 4 0 0 0 0 0 0 0 0 0 0 0 0 0 0 0 0 0 0 0 0 0 0 0
0 0 0 0 0 0 0 0 0 0 0 0 0 0 0 0 0 0 0 0 0 0 9 13 0 0 0 14 4 0 0 0 0 0 0 0 0 0 0 0 0 0 0 0 0 0 0
0 0 0 0 0 0 0 0 0 0 0 0 0 0 0 0 0 0 0 0 0 0 0 6 9 1 3 16 0 0 0 0 0 0 0 0 0 0 0 0 0 0 0 0 1 0 0
0 0 0 0 0 0 0 0 0 0 0 0 0 0 0 0 0 0 0 0 0 0 0 4 13 12 18 0 0 0 0 0 0 0 0 0 0 0 0 0 0 0 0 0 0 9 0
0 0 0 0 0 0 0 0 0 0 0 0 0 0 0 0 0 0 0 0 0 0 0 4 6 13 24 18 0 0 0 0 0 0 0 0 0 0 0 0 0 0 0 3 5 5 4

GFSGBSN_con_mucape_057.txt.gz
CAPE
0 0 0 0 0 0 12 38 40 40 44 43 60 72 87 96 115 168 188 112 87 123 27 93 165 172 85 24 0 6 0 46 12 194 56 38 4 89 20 44 33 2 0 16 51 31 3
0 0 0 0 0 0 15 23 35 54 46 44 67 58 53 72 106 164 88 35 45 101 126 119 98 117 51 2 3 5 11 24 92 184 82 39 0 45 86 73 7 0 2 2 10 31 15
0 0 0 0 0 0 0 20 0 0 26 55 48 59 23 64 97 130 59 22 91 145 60 98 128 86 39 2 23 65 118 27 67 88 92 28 0 33 62 28 3 0 39 17 0 0 0
0 0 0 0 0 0 0 14 0 0 0 52 37 46 22 55 49 94 30 71 130 211 232 248 151 82 12 16 8 36 50 17 27 32 89 93 37 33 65 19 11 28 27 0 0 0 0
0 0 0 0 0 0 0 13 0 0 0 40 37 34 16 40 26 54 5 66 183 211 216 203 70 55 35 179 1 1 7 1 44 71 189 155 49 28 43 32 31 43 0 0 0 0 0
0 0 0 0 0 0 0 12 10 0 0 0 38 16 19 10 0 2 42 137 68 96 118 98 106 17 8 30 23 1 16 0 48 144 133 126 50 42 29 7 1 0 0 0 0 0 0
0 0 0 0 0 0 0 0 10 0 0 0 0 13 11 6 9 30 7 0 0 1 8 0 17 0 7 25 92 39 2 0 64 153 34 44 1 0 0 0 0 0 0 0 0 0 0
0 0 0 0 0 0 0 0 10 16 0 0 0 3 12 0 7 6 0 0 3 2 1 9 24 1 3 32 20 15 17 0 32 0 0 0 0 1 0 6 3 0 0 0 0 0 0
0 0 0 0 0 0 0 0 0 12 16 0 0 0 5 5 0 0 0 0 1 0 1 3 0 2 0 1 0 0 0 0 8 0 0 0 1 0 0 6 0 0 0 0 0 0 0
0 0 0 0 0 0 0 0 0 1 10 0 0 0 0 0 0 0 0 0 0 0 0 0 4 5 2 0 0 17 2 2 30 26 24 30 0 0 8 0 0 0 0 0 0 0 0
0 0 0 0 0 0 0 0 0 0 4 9 0 0 0 0 0 0 0 0 0 0 16 0 0 0 1 0 0 0 0 36 38 1 2 3 4 18 7 0 3 0 5 3 0 0 0
0 0 0 0 0 0 0 0 0 0 0 8 0 0 0 0 0 0 0 0 0 0 0 0 1 4 1 5 0 41 1 0 0 2 0 5 20 25 7 18 30 0 11 19 7 0 0
0 0 0 0 0 0 0 0 0 0 0 0 0 0 0 0 0 0 0 0 0 0 0 0 0 0 0 0 0 5 25 1 0 4 0 0 5 1 3 0 5 0 0 0 0 0 0
0 0 0 0 0 0 0 0 0 0 0 1 0 0 0 0 0 0 0 0 0 0 0 0 0 0 2 0 0 0 21 0 7 0 0 1 32 0 0 3 0 0 0 0 0 0 0
0 0 0 0 0 0 0 0 0 0 0 0 0 0 0 0 0 0 0 0 0 0 0 0 0 0 0 0 0 0 0 6 2 0 0 0 4 0 0 0 0 0 0 0 0 0 0
0 0 0 0 0 0 0 0 0 0 0 0 0 0 0 0 0 0 0 0 0 0 0 0 0 0 0 3 0 0 0 0 3 0 0 0 0 0 1 0 0 0 0 0 0 0 0
0 0 0 0 0 0 0 0 0 0 0 0 0 0 0 0 0 0 0 0 0 0 0 0 0 0 0 3 0 0 0 0 0 0 0 0 0 0 0 0 0 0 0 0 1 0 0
0 0 0 0 0 0 0 0 0 0 0 0 0 0 0 0 0 11 0 0 0 0 0 0 0 0 0 0 0 0 0 0 0 0 0 0 0 0 0 0 0 0 0 0 0 0 0
0 0 0 0 0 0 0 0 0 0 0 0 0 0 0 0 1 2 0 0 0 0 0 0 0 0 0 0 0 0 0 0 0 0 0 0 0 0 0 0 0 0 0 0 0 0 0
0 0 0 0 0 0 0 0 0 0 0 0 0 0 0 0 0 0 0 0 0 0 0 0 0 0 0 0 0 0 0 0 0 0 0 0 0 0 0 0 0 0 0 0 0 0 0
0 0 0 0 0 0 0 0 0 0 0 0 0 0 0 0 0 0 0 1 0 0 0 0 0 0 0 0 0 0 0 0 0 0 0 0 0 0 0 0 0 0 0 0 0 0 0
0 0 0 0 0 0 0 0 0 0 0 0 0 0 0 0 0 0 0 0 0 0 0 0 0 0 0 0 0 0 0 0 0 0 0 0 0 0 0 0 0 0 0 0 0 0 0
0 0 0 0 0 0 0 0 0 0 0 0 0 0 0 0 0 0 0 5 1 0 3 0 0 0 0 0 0 0 0 0 0 0 0 0 0 0 0 0 0 0 0 0 0 0 0
0 0 0 0 0 0 0 0 0 0 0 0 0 0 0 0 0 0 0 1 1 0 0 0 1 0 0 0 0 0 0 0 0 0 0 0 0 0 0 0 0 0 0 0 0 0 0
0 0 0 0 0 0 0 0 0 0 0 0 0 0 0 0 0 0 0 0 0 0 0 0 0 1 0 0 0 0 0 0 0 0 0 0 0 0 0 0 0 0 0 0 0 0 0
0 0 0 0 0 0 0 0 0 0 0 0 0 0 0 0 0 0 0 0 0 4 18 14 9 0 0 9 0 0 0 0 0 0 0 0 0 0 0 0 0 0 0 0 0 0 0
0 0 0 0 0 0 0 0 0 0 0 0 0 0 0 0 0 0 0 0 0 0 1 21 14 0 3 0 0 0 0 1 0 0 0 0 0 0 0 0 0 0 0 0 0 0 0
0 0 0 0 0 0 0 0 0 0 0 0 0 0 0 0 0 0 0 0 0 0 0 0 4 11 2 0 0 0 0 0 0 0 0 0 0 0 0 0 0 0 0 1 0 1 1
0 0 0 0 0 0 0 0 0 0 0 0 0 0 0 0 0 0 0 0 0 0 0 0 3 2 18 0 0 0 0 0 0 0 0 0 0 0 0 0 0 0 0 0 2 10 3

GFSGBSN_con_mucape_060.txt.gz
CAPE
0 0 0 0 0 0 0 0 28 11 37 51 54 54 31 67 82 154 143 122 63 96 25 39 91 115 14 1 0 21 27 15 65 19 144 0 0 53 84 103 121 17 0 0 3 6 0
0 0 0 0 0 0 0 20 24 13 36 51 64 45 25 35 57 119 51 64 115 174 124 89 61 88 9 5 0 8 18 5 65 11 102 67 0 83 77 70 114 23 1 37 24 0 59
0 0 0 0 0 0 0 0 12 0 35 42 62 38 18 31 33 36 10 73 132 166 76 56 140 55 14 0 0 3 10 58 7 33 75 47 0 68 10 109 83 0 36 26 0 0 0
0 0 0 0 0 0 0 0 16 0 21 0 54 27 25 4 19 1 0 30 104 176 211 244 157 78 5 0 0 1 24 29 49 117 85 107 24 74 60 8 84 12 42 0 0 0 0
0 0 0 0 0 0 0 0 10 19 0 1 3 29 19 1 3 0 4 36 85 91 137 200 44 35 1 83 36 9 4 26 52 78 45 153 66 36 41 16 18 23 0 0 0 0 0
0 0 0 0 0 0 0 0 0 18 18 0 0 12 6 18 0 2 69 64 79 18 55 100 85 13 28 49 15 51 55 20 0 30 1 219 58 25 25 17 3 0 0 0 0 0 0
0 0 0 0 0 0 0 0 0 0 15 0 0 0 9 11 0 0 0 0 0 0 0 0 0 0 0 18 61 78 8 0 1 0 10 44 10 0 0 4 0 0 0 0 0 0 0
0 0 0 0 0 0 0 0 0 0 24 17 0 0 0 6 0 0 0 0 0 0 0 1 1 32 40 20 37 0 4 0 0 32 16 0 0 0 2 2 0 0 0 0 0 0 0
0 0 0 0 0 0 0 0 0 0 0 14 0 0 0 0 1 0 0 0 0 0 0 4 11 3 0 0 6 0 0 0 0 5 0 0 0 3 20 4 0 0 0 0 0 0 0
0 0 0 0 0 0 0 0 0 0 0 13 0 0 0 0 0 0 0 0 0 0 0 0 0 15 6 6 1 0 0 38 0 0 0 0 0 0 17 5 10 0 0 0 0 0 0
0 0 0 0 0 0 0 0 0 0 0 7 0 0 0 0 0 0 0 0 0 0 0 0 0 0 9 0 0 0 0 0 0 0 0 0 0 13 12 7 13 4 0 0 0 0 0
0 0 0 0 0 0 0 0 0 0 0 0 0 0 0 0 0 0 0 0 0 0 0 3 3 0 0 0 0 2 10 8 0 0 0 7 19 15 10 18 24 8 0 0 0 0 0
0 0 0 0 0 0 0 0 0 0 0 0 1 0 0 0 0 0 0 0 0 0 0 0 7 1 0 0 0 0 1 9 0 0 0 11 20 1 4 24 24 1 0 0 0 0 0
0 0 0 0 0 0 0 0 0 0 0 0 0 0 0 0 0 0 0 0 0 0 0 0 2 1 0 0 4 0 1 2 0 0 0 0 0 0 0 0 0 0 0 0 0 0 0
0 0 0 0 0 0 0 0 0 0 0 0 0 0 0 0 0 0 0 0 0 0 0 0 0 2 0 0 3 0 0 0 0 0 0 0 0 0 0 0 0 0 0 0 0 0 0
0 0 0 0 0 0 0 0 0 0 0 0 0 0 0 0 0 0 0 0 0 0 0 0 0 0 0 0 0 0 0 0 0 0 0 0 0 0 0 0 0 0 0 0 0 0 0
0 0 0 0 0 0 0 0 0 0 0 0 0 0 0 0 0 0 0 0 0 0 0 0 0 0 0 0 0 0 0 2 8 4 0 0 0 0 0 0 0 0 0 0 0 0 0
0 0 0 0 0 0 0 0 0 0 0 0 0 0 0 0 0 0 0 0 0 0 0 0 0 0 0 0 0 0 0 0 0 0 0 0 0 0 0 0 0 0 0 0 0 0 0
0 0 0 0 0 0 0 0 0 0 0 0 0 0 0 0 0 0 0 0 0 0 0 0 0 0 0 0 0 0 0 0 0 0 0 0 0 0 0 0 0 0 0 0 0 0 0
0 0 0 0 0 0 0 0 0 0 0 0 0 0 0 0 0 0 0 0 0 0 0 0 0 0 0 0 0 0 0 0 0 0 0 0 0 0 0 0 0 0 0 0 0 0 0
0 0 0 0 0 0 0 0 0 0 0 0 0 0 0 0 0 0 0 0 0 0 0 0 0 0 0 0 0 0 0 0 0 0 0 0 0 0 0 0 0 0 0 0 0 0 0
0 0 0 0 0 0 0 0 0 0 0 0 0 0 0 0 0 0 0 0 0 0 0 0 0 0 0 0 0 0 0 0 0 0 0 0 0 0 0 0 0 0 0 0 0 0 0
0 0 0 0 0 0 0 0 0 0 0 0 0 0 0 0 0 0 0 0 4 1 4 0 0 0 0 0 0 0 0 0 0 0 0 0 0 0 0 0 0 0 0 0 0 0 0
0 0 0 0 0 0 0 0 0 0 0 0 0 0 0 0 0 0 0 0 1 2 0 0 0 0 0 1 0 0 0 0 0 0 0 0 0 0 0 0 0 0 0 0 0 0 0
0 0 0 0 0 0 0 0 0 0 0 0 0 0 0 0 0 0 0 0 0 0 1 0 9 5 3 8 0 0 0 0 0 0 0 0 0 0 0 0 0 0 0 0 0 0 0
0 0 0 0 0 0 0 0 0 0 0 0 0 0 0 0 0 0 0 0 0 0 0 16 19 2 4 1 0 0 0 0 0 0 0 0 0 0 0 0 0 0 0 0 0 0 0
0 0 0 0 0 0 0 0 0 0 0 0 0 0 0 0 0 0 0 0 0 0 0 10 12 3 2 0 0 0 0 0 0 0 0 0 0 0 0 0 0 0 0 0 0 0 0
0 0 0 0 0 0 0 0 0 0 0 0 0 0 0 0 0 0 0 0 0 0 0 0 7 0 0 0 0 0 0 0 0 0 0 0 0 0 0 0 0 0 0 0 0 0 0
0 0 0 0 0 0 0 0 0 0 0 0 0 0 0 0 0 0 0 0 0 0 0 0 1 7 5 0 0 0 0 0 0 0 0 0 0 0 0 0 0 0 0 0 0 6 3

GFSGBSN_con_mucape_063.txt.gz
CAPE
0 0 0 0 0 0 0 0 13 21 42 45 64 46 21 26 32 4 1 31 121 121 20 34 35 106 10 5 0 71 49 44 22 14 26 36 28 2 25 42 164 59 6 25 35 0 0
0 0 0 0 0 0 0 0 1 14 30 39 49 34 21 10 19 6 0 49 143 144 141 102 68 135 0 0 0 1 41 20 24 70 11 57 3 0 62 130 165 76 27 65 37 8 29
0 0 0 0 0 0 0 0 0 19 17 37 27 38 24 14 9 3 0 11 48 113 54 68 149 15 0 0 0 2 29 1 18 80 0 15 0 56 31 161 166 96 35 13 20 17 0
0 0 0 0 0 0 0 0 0 6 26 10 0 34 27 19 4 2 7 23 59 155 164 199 149 15 0 5 40 2 0 8 54 40 2 26 27 60 51 36 133 82 28 22 10 0 0
0 0 0 0 0 0 0 0 0 0 28 21 0 0 31 10 9 5 43 138 72 59 94 132 18 8 0 60 61 13 13 7 36 67 9 80 66 44 48 63 44 30 1 0 0 4 0
0 0 0 0 0 0 0 0 0 0 12 16 0 0 15 8 22 19 8 51 54 3 2 43 34 0 3 11 42 49 53 6 32 78 0 104 62 28 33 22 0 0 0 0 0 0 0
0 0 0 0 0 0 0 0 0 0 0 10 0 0 0 0 10 21 0 0 0 0 0 0 0 0 0 27 50 81 17 12 19 15 0 63 0 0 0 0 0 0 0 0 0 0 0
0 0 0 0 0 0 0 0 0 0 0 11 0 0 0 0 2 10 0 0 0 0 0 9 4 2 1 21 62 8 0 0 0 0 0 0 0 0 15 9 0 0 0 0 0 0 0
0 0 0 0 0 0 0 0 0 0 0 16 0 0 0 0 0 0 0 0 0 0 0 4 12 2 1 0 42 0 0 3 0 0 1 0 0 15 20 10 3 0 0 0 0 0 1
0 0 0 0 0 0 0 0 0 0 0 0 11 0 0 0 0 0 0 0 0 0 0 0 0 2 13 0 17 4 7 0 7 0 0 0 0 19 29 13 2 1 0 0 0 0 0
0 0 0 0 0 0 0 0 0 0 0 0 0 0 0 0 0 0 0 0 0 0 0 0 0 0 0 0 0 27 15 42 0 0 0 0 0 13 18 0 0 0 0 0 0 0 0
0 0 0 0 0 0 0 0 0 0 0 0 1 0 0 0 0 0 0 0 0 0 0 0 0 0 0 2 4 0 23 30 0 0 0 0 6 29 10 9 4 0 1 0 0 0 0
0 0 0 0 0 0 0 0 0 0 0 0 0 0 0 0 0 0 0 0 0 0 0 0 0 0 1 1 1 0 6 5 0 0 0 0 0 7 19 18 11 9 0 0 0 0 0
0 0 0 0 0 0 0 0 0 0 0 0 0 0 0 0 0 0 0 0 0 0 0 0 4 0 3 0 0 0 0 1 0 0 0 0 0 0 1 7 0 9 0 0 0 0 0
0 0 0 0 0 0 0 0 0 0 0 0 0 0 0 0 0 0 0 0 0 0 0 0 0 0 1 0 0 0 0 0 0 0 0 0 0 0 0 0 0 13 0 0 0 0 0
0 0 0 0 0 0 0 0 0 0 0 0 0 0 0 0 0 0 0 0 0 0 0 0 0 1 0 0 0 0 0 0 0 0 0 0 0 0 0 0 1 0 9 0 0 0 0
0 0 0 0 0 0 0 0 0 0 0 0 0 0 0 0 0 0 0 0 0 0 0 0 0 0 0 0 0 0 0 0 0 0 0 0 0 0 0 0 0 0 0 0 0 0 0
0 0 0 0 0 0 0 0 0 0 0 0 0 0 0 0 0 0 0 0 0 0 0 0 0 0 0 0 0 0 0 0 0 0 0 0 0 0 0 0 0 0 0 0 0 0 0
0 0 0 0 0 0 0 0 0 0 0 0 0 0 0 0 0 0 0 0 0 0 0 0 0 0 0 0 0 0 0 0 0 0 0 0 0 0 0 0 0 0 0 0 0 0 0
0 0 0 0 0 0 0 0 0 0 0 0 0 0 0 0 0 0 0 0 0 0 0 0 0 0 0 0 0 0 0 0 0 0 0 0 0 0 0 0 0 0 0 0 0 0 0
0 0 0 0 0 0 0 0 0 0 0 0 0 0 0 0 0 0 0 0 0 0 0 0 0 0 0 0 0 0 0 0 0 0 0 0 0 0 0 0 0 0 0 0 0 0 0
0 0 0 0 0 0 0 0 0 0 0 0 0 0 0 0 0 0 0 0 0 1 0 0 0 0 0 0 0 0 0 0 0 0 0 0 0 0 0 0 0 0 0 0 0 0 0
0 0 0 0 0 0 0 0 0 0 0 0 0 0 0 0 0 0 0 0 0 0 2 0 0 0 0 0 0 0 0 0 0 0 0 0 0 0 0 0 0 0 0 0 0 0 0
0 0 0 0 0 0 0 0 0 0 0 0 0 0 0 0 0 0 0 0 0 0 0 7 0 0 0 0 0 0 0 0 0 0 0 0 0 0 0 0 0 0 0 0 0 0 0
0 0 0 0 0 0 0 0 0 0 0 0 0 0 0 0 0 0 0 0 0 0 0 0 0 3 2 4 0 0 0 0 0 0 0 0 0 0 0 0 0 0 0 0 0 0 0
0 0 0 0 0 0 0 0 0 0 0 0 0 0 0 0 0 0 0 0 0 0 0 0 27 16 13 0 0 0 0 0 0 0 0 0 0 0 0 0 0 0 0 0 0 0 0
0 0 0 0 0 0 0 0 0 0 0 0 0 0 0 0 0 0 0 0 0 0 0 0 11 22 5 0 0 0 0 0 0 0 0 0 0 0 0 0 0 0 0 0 0 0 0
0 0 0 0 0 0 0 0 0 0 0 0 0 0 0 0 0 0 0 0 0 0 0 0 3 1 7 0 0 0 0 0 0 0 0 0 0 0 0 0 0 0 0 0 0 0 0
0 0 0 0 0 0 0 0 0 0 0 0 0 0 0 0 0 0 0 0 0 0 0 0 0 0 0 0 0 0 0 0 0 0 0 0 0 0 0 0 0 0 0 0 0 0 2

GFSGBSN_con_mucape_066.txt.gz
CAPE
0 0 0 0 0 0 0 0 0 0 17 30 39 46 22 28 17 4 5 9 50 74 82 59 33 128 1 0 0 20 20 82 66 113 57 63 47 10 11 18 94 46 7 28 43 0 0
0 0 0 0 0 0 16 2 12 0 0 17 34 52 24 28 8 6 1 6 17 26 10 64 40 101 0 0 0 0 24 74 23 15 13 47 54 11 10 36 88 27 28 20 41 0 4
0 0 0 0 0 0 0 16 20 30 0 16 17 33 49 22 14 10 6 7 19 55 4 18 102 0 0 0 0 0 0 48 11 6 50 26 29 18 36 78 100 79 105 100 63 5 25
1 0 0 0 0 0 2 10 21 27 0 27 3 0 28 23 21 5 3 69 95 26 64 121 108 1 0 0 13 0 0 24 26 16 49 10 35 17 46 44 101 60 59 54 33 1 1
4 0 0 0 0 7 0 0 0 0 0 28 11 0 0 31 16 21 1 22 101 26 18 74 12 1 0 25 84 1 0 13 82 106 108 53 39 11 40 98 38 50 5 0 0 9 0
11 0 0 0 0 2 0 0 0 0 0 24 13 0 0 0 12 24 3 0 8 0 0 6 23 0 6 6 55 42 132 39 52 84 36 0 1 5 35 27 0 0 1 2 0 0 0
1 0 0 0 0 0 0 0 0 0 0 0 6 0 0 0 0 17 0 0 0 0 0 1 0 0 13 27 34 50 37 14 26 34 0 0 0 0 1 0 0 0 0 0 0 0 0
2 0 0 0 0 0 0 0 0 0 0 0 13 0 0 0 0 9 0 0 0 0 0 0 8 0 4 6 20 10 1 1 10 2 0 0 0 0 26 18 2 0 0 0 0 0 0
2 0 0 0 0 0 0 0 0 0 0 0 2 0 0 0 0 0 0 0 0 0 0 0 11 3 5 17 37 1 5 3 3 0 0 0 0 10 39 38 9 0 0 0 0 0 4
1 0 0 0 0 0 0 0 0 0 0 0 0 0 0 0 0 0 0 0 0 0 0 0 0 5 15 13 23 20 7 0 1 0 0 0 5 12 45 23 7 0 0 0 0 0 0
2 0 0 0 0 0 0 0 0 0 0 0 0 3 0 0 0 0 0 0 0 0 0 0 0 1 0 0 5 13 2 0 0 0 0 1 0 14 30 13 11 0 0 0 0 12 1
0 0 0 0 0 0 0 0 0 0 0 0 0 0 0 0 0 0 0 0 0 0 0 0 0 0 10 4 6 4 0 4 6 0 0 0 0 22 17 20 21 0 0 0 3 0 0
0 0 0 0 0 0 0 0 0 0 0 0 0 0 0 0 0 0 0 0 0 0 0 0 0 5 0 0 2 0 0 0 0 0 0 0 0 29 19 24 33 12 0 0 0 0 0
0 0 0 0 0 0 0 0 0 0 0 0 0 0 0 0 0 0 0 0 0 0 0 0 2 0 11 2 0 0 0 0 0 0 0 1 0 3 15 6 4 0 0 0 0 0 0
0 0 0 0 0 0 0 0 0 0 0 0 0 0 0 0 0 0 0 0 0 0 0 0 0 0 0 0 0 0 1 0 0 0 0 0 0 0 20 12 6 10 0 0 0 0 0
0 0 0 0 0 0 0 0 0 0 0 0 0 0 0 0 0 0 0 0 0 0 0 0 0 0 0 0 0 0 0 0 0 0 0 0 0 0 0 0 0 5 0 0 0 0 0
0 0 0 0 0 0 0 0 0 0 0 0 0 0 0 0 0 0 0 0 0 0 0 0 0 0 0 0 0 0 0 0 0 0 0 0 0 0 0 0 0 1 0 0 0 0 0
0 0 0 0 0 0 0 0 0 0 0 0 0 0 0 0 0 0 0 0 0 0 0 0 0 0 0 0 0 0 0 0 0 0 0 0 0 0 0 0 0 0 0 0 0 0 0
0 0 0 0 0 0 0 0 0 0 0 0 0 0 0 0 0 0 0 0 0 0 0 0 0 0 0 0 0 0 0 0 0 0 0 0 0 0 0 0 0 0 0 0 0 0 0
0 0 0 0 0 0 0 0 0 0 0 0 0 0 0 0 0 0 0 0 0 0 0 0 0 0 0 0 0 0 0 0 0 0 0 0 0 0 0 0 0 0 0 0 0 0 0
0 0 0 0 0 0 0 0 0 0 0 0 0 0 0 0 0 0 0 0 0 0 0 0 0 0 0 0 0 0 0 0 0 0 0 1 0 0 0 0 0 0 0 0 0 0 0
0 0 0 0 0 0 0 0 0 0 0 0 0 0 0 0 0 0 0 0 0 0 0 0 0 0 0 0 0 0 0 0 0 0 0 0 0 0 0 0 0 0 0 0 0 0 0
0 0 0 0 0 0 0 0 0 0 0 0 0 0 0 0 0 0 0 0 0 0 0 1 0 0 0 0 0 0 0 0 0 0 1 1 0 0 0 0 0 0 0 0 0 0 0
0 0 0 0 0 0 0 0 0 0 0 0 0 0 0 0 0 0 0 0 0 0 0 0 6 0 0 0 0 0 0 0 0 0 0 0 0 0 0 0 0 0 0 0 0 0 0
0 0 0 0 0 0 0 0 0 0 0 0 0 0 0 0 0 0 0 0 0 0 0 0 4 24 6 4 0 0 0 0 0 0 0 0 0 0 0 0 0 0 0 0 0 0 0
0 0 0 0 0 0 0 0 0 0 0 0 0 0 0 0 0 0 0 0 0 0 0 0 12 34 24 0 0 0 0 0 0 0 0 0 0 0 0 0 0 0 0 0 0 0 1
0 0 0 0 0 0 0 0 0 0 0 0 0 0 0 0 0 0 0 0 0 0 0 0 0 15 24 15 0 0 0 0 0 0 0 0 0 0 0 0 0 0 0 0 0 0 0
0 0 0 0 0 0 0 0 0 0 0 0 0 0 0 0 0 0 0 0 0 0 0 0 0 0 4 0 0 0 0 0 0 0 0 0 0 0 0 0 0 0 0 0 0 0 0
0 0 0 0 0 0 0 0 0 0 0 0 0 0 0 0 0 0 0 0 0 0 0 0 0 0 0 0 0 0 0 0 0 0 0 0 0 0 0 0 0 0 0 0 0 0 0

GFSGBSN_con_mucape_069.txt.gz
CAPE
0 0 0 0 0 0 15 14 23 21 34 0 16 22 35 15 7 8 6 9 12 10 4 25 17 97 10 0 0 2 2 12 68 94 85 145 83 7 3 17 79 18 60 35 101 7 0
0 3 0 0 0 0 13 12 19 28 33 0 15 11 27 28 18 7 10 9 12 17 0 6 78 37 0 0 0 0 0 1 85 45 50 105 87 11 9 34 49 25 50 70 100 60 22
0 2 0 0 0 0 9 3 0 22 0 0 15 0 16 41 17 29 8 11 90 59 53 48 83 0 0 0 0 0 0 4 0 33 3 30 40 52 12 58 85 41 51 65 94 81 49
2 7 0 0 0 0 0 0 2 0 22 0 15 8 0 0 29 20 18 6 63 61 1 112 93 0 0 0 1 0 0 0 9 48 0 34 8 44 26 21 71 69 54 36 73 89 5
11 0 0 0 0 0 4 0 0 0 0 0 2 5 0 0 0 18 30 18 25 27 7 60 0 0 0 7 34 6 14 39 55 167 55 84 35 15 27 67 43 56 5 5 24 33 1
24 1 1 0 0 0 7 0 0 0 0 0 0 7 0 0 0 5 23 0 0 0 0 0 0 0 0 1 23 55 54 73 66 149 141 47 4 0 24 22 0 0 0 1 1 18 13
8 2 2 0 0 0 8 0 0 0 0 0 0 0 0 0 0 0 0 0 0 0 0 0 0 0 0 22 44 84 60 0 65 99 29 0 0 0 0 0 0 0 0 0 0 0 0
33 18 3 0 0 0 3 0 0 0 0 0 0 0 0 0 0 0 0 0 0 0 0 0 0 0 12 1 1 28 21 42 0 7 0 0 0 0 14 10 0 0 5 0 0 0 0
21 14 4 0 0 0 0 0 0 0 0 0 0 0 0 0 0 0 0 0 0 0 0 4 2 1 19 2 34 5 4 5 2 1 0 0 0 0 0 19 0 9 0 0 0 2 7
10 7 1 0 0 0 0 0 0 0 0 0 0 0 1 0 0 0 0 0 0 0 0 0 0 1 29 8 38 8 11 0 7 0 0 0 0 0 18 0 14 0 0 0 0 0 0
4 6 0 0 0 0 0 0 0 0 0 0 0 0 0 0 0 0 0 0 0 0 0 1 0 0 20 9 12 35 11 43 7 1 0 0 0 0 0 13 30 0 0 0 0 0 0
20 14 0 0 0 0 0 0 0 0 0 0 0 0 0 0 0 0 0 0 0 0 0 0 0 16 0 18 13 26 52 6 31 0 0 0 5 30 28 12 20 8 0 2 3 5 0
6 1 0 0 0 0 0 0 0 0 0 0 0 0 0 0 0 0 0 0 0 0 0 0 0 22 16 6 12 7 7 4 0 0 0 0 0 23 32 22 20 6 15 0 0 0 0
7 0 0 0 0 0 0 0 0 0 0 0 0 0 0 0 0 0 0 0 0 0 0 0 0 0 2 0 3 12 0 0 0 0 0 0 0 30 31 25 10 5 4 0 0 0 0
0 0 0 0 0 0 0 0 0 0 0 0 0 0 0 0 0 0 0 0 0 0 0 0 0 0 0 0 0 0 0 0 0 0 0 0 0 0 28 8 11 0 0 0 0 0 0
0 0 0 0 0 0 0 0 0 0 0 0 0 0 0 0 0 0 0 0 0 0 0 0 0 0 0 0 0 0 0 0 0 0 0 0 0 0 0 5 10 2 0 0 0 0 0
0 0 0 0 0 0 0 0 0 0 0 0 0 0 0 0 0 0 0 0 0 0 0 0 0 0 0 0 0 0 0 0 0 0 0 0 0 0 0 0 0 1 0 0 0 0 0
0 0 0 0 0 0 0 0 0 0 0 0 0 0 0 0 0 0 0 0 0 0 0 0 0 0 0 0 0 0 0 0 0 0 0 0 0 0 0 0 0 0 0 0 0 0 0
11 0 0 0 0 0 0 0 0 0 0 0 0 0 0 0 0 0 0 0 0 0 0 0 0 1 0 0 0 0 0 0 0 0 0 0 0 0 0 0 0 0 0 0 0 0 0
3 0 0 0 0 0 0 0 0 0 0 0 0 0 0 0 0 0 0 0 0 0 0 0 0 0 0 0 0 0 0 0 0 0 0 0 0 0 0 0 0 0 0 0 0 0 0
0 0 0 0 0 0 0 0 0 0 0 0 0 0 0 0 0 0 0 0 0 0 0 0 0 0 0 0 0 0 0 0 0 2 3 5 0 0 0 0 0 0 0 0 0 0 0
0 0 0 0 0 0 0 0 0 0 0 0 0 0 0 0 0 0 0 0 0 0 0 0 0 0 0 0 0 0 0 0 0 0 0 8 0 0 0 0 0 0 0 0 0 0 0
0 0 0 0 0 0 0 0 0 0 0 0 0 0 0 0 0 0 0 0 0 0 0 0 0 0 0 0 0 0 0 0 0 0 0 0 0 0 0 0 0 0 0 0 0 0 0
0 0 0 0 0 0 0 0 0 0 0 0 0 0 0 0 0 0 0 0 0 0 1 8 10 5 0 0 0 0 0 0 0 0 0 0 0 0 0 0 0 0 0 0 0 0 0
0 0 0 0 0 0 0 0 0 0 0 0 0 0 0 0 0 0 0 0 0 0 0 0 15 27 6 2 0 0 0 0 0 0 0 0 0 0 0 0 0 0 0 0 0 0 0
0 0 0 0 0 0 0 0 0 0 0 0 0 0 0 0 0 0 0 0 0 0 0 0 11 5 19 17 0 0 0 0 0 0 0 0 0 0 0 0 0 0 0 0 0 0 0
0 0 0 0 0 0 0 0 0 0 0 0 0 0 0 0 0 0 0 0 0 0 0 0 0 0 25 0 0 0 0 0 0 0 0 0 0 0 0 0 0 0 0 0 0 0 0
0 0 0 0 0 0 0 0 0 0 0 0 0 0 0 0 0 0 0 0 0 0 0 0 0 0 0 0 9 0 0 0 0 0 0 0 0 0 0 0 0 0 0 0 0 0 0
0 0 0 0 0 0 0 0 0 0 0 0 0 0 0 0 0 0 0 0 0 0 0 0 0 0 0 0 0 0 0 0 0 0 0 0 0 0 0 0 0 0 0 0 0 0 0

GFSGBSN_con_mucape_072.txt.gz
CAPE
0 0 2 0 0 0 0 13 15 25 27 36 3 12 18 34 17 16 4 8 11 10 0 1 21 54 4 0 0 32 0 22 82 24 60 114 142 137 79 55 94 109 92 116 96 119 81
3 0 0 0 0 0 0 8 10 12 24 27 0 20 10 26 30 9 17 5 29 36 0 0 30 3 0 0 0 0 0 5 134 61 130 110 127 67 26 46 127 40 92 159 130 148 86
13 1 6 0 0 0 0 5 1 14 12 35 0 23 13 0 26 15 21 2 11 38 0 0 1 0 0 0 0 0 0 0 117 126 198 69 144 73 0 4 100 88 137 182 137 170 100
15 11 3 5 0 0 0 3 11 0 0 25 33 0 20 1 0 0 13 8 6 29 0 6 8 0 0 0 0 0 0 0 34 65 12 49 61 97 100 72 105 127 124 125 202 164 78
10 7 5 6 1 0 0 3 9 0 0 22 27 0 21 0 0 0 5 19 1 10 0 0 1 8 1 0 26 2 33 1 24 76 22 86 42 48 111 108 99 117 41 49 76 172 77
21 3 1 6 3 0 0 4 8 0 0 5 23 0 0 0 0 0 10 0 0 0 0 0 0 0 7 16 44 54 20 60 60 69 9 112 6 0 62 114 0 0 33 26 40 109 58
9 13 1 2 1 0 0 2 7 0 0 0 17 0 0 0 0 0 0 0 0 0 0 0 1 0 0 0 94 102 78 73 48 10 23 8 16 0 0 25 1 7 25 19 26 96 75
4 10 15 8 0 0 0 2 0 0 0 0 0 0 0 0 0 0 0 0 0 0 0 0 1 0 1 1 26 70 63 65 17 7 2 0 22 1 18 19 0 35 29 51 71 178 171
6 10 17 16 0 0 0 0 0 0 0 0 0 0 0 0 0 0 0 0 0 0 0 0 0 23 29 1 37 63 41 40 0 0 0 0 0 0 38 0 0 24 20 25 7 126 50
20 11 9 3 0 0 0 0 0 0 0 0 0 0 0 0 0 0 0 0 0 0 0 0 13 6 38 20 44 7 12 0 1 10 14 6 0 0 45 0 3 0 16 9 46 79 2
27 4 2 6 0 0 0 0 0 0 0 0 0 0 0 0 0 0 0 0 0 0 0 0 0 0 36 13 13 28 69 28 16 1 0 0 0 0 0 1 30 0 0 7 4 1 1
12 7 6 0 0 0 0 0 0 0 0 0 0 0 0 0 0 0 0 0 0 0 0 0 0 2 17 38 20 15 92 13 29 19 0 0 0 41 40 13 26 0 0 3 6 22 0
13 13 9 4 0 0 0 0 0 0 0 0 0 5 0 0 0 0 0 0 0 0 0 0 0 4 37 2 16 38 15 21 2 32 0 0 0 11 26 0 8 13 16 0 0 0 0
18 13 5 2 0 0 0 0 0 0 0 0 0 1 0 0 0 0 0 0 0 0 0 0 0 0 25 31 2 9 1 0 0 0 0 0 0 5 8 26 0 40 22 0 0 0 0
13 10 3 0 0 0 0 0 0 0 0 0 0 0 0 0 0 0 0 0 0 0 0 0 0 0 0 1 1 0 0 0 0 0 0 0 0 0 7 23 17 2 0 0 0 0 0
6 7 0 0 0 0 0 0 0 0 0 0 0 0 0 0 3 0 0 0 0 0 0 0 0 0 0 0 0 0 0 0 0 0 0 0 0 0 3 13 16 22 1 0 0 0 0
2 4 0 0 0 0 0 0 0 0 0 0 0 0 0 0 2 0 0 0 0 0 0 0 0 0 0 0 0 0 0 0 0 0 0 0 0 0 0 0 33 0 0 0 0 0 0
5 1 6 0 0 0 0 0 0 0 0 0 0 0 0 1 0 0 0 0 0 0 0 0 2 0 0 0 0 0 0 0 0 0 0 0 0 0 0 0 0 0 0 0 0 0 0
40 17 5 0 0 0 0 0 0 0 0 0 0 0 0 1 0 0 0 0 0 0 0 0 0 1 0 0 0 0 0 0 0 0 0 0 0 0 0 0 0 0 0 0 0 0 0
24 8 4 0 0 0 0 0 0 0 0 0 0 0 0 0 0 0 0 0 0 0 0 0 0 0 0 0 0 0 0 0 0 0 0 0 0 0 0 0 0 0 0 0 0 0 0
3 12 8 0 0 0 0 0 0 0 0 0 0 0 0 0 0 0 0 0 0 0 0 0 0 0 0 0 0 0 0 0 0 0 0 0 0 0 0 0 0 0 0 0 1 0 0
14 29 22 0 0 0 0 0 0 0 0 0 0 0 0 0 0 0 0 0 0 0 0 0 0 0 0 0 1 0 0 0 0 0 0 10 0 0 0 0 0 0 0 0 0 0 0
15 8 36 0 0 0 0 0 0 0 0 0 0 0 0 0 0 0 0 0 0 0 0 0 0 0 0 0 0 0 0 0 0 0 0 0 0 0 0 0 0 0 0 0 0 0 0
18 32 26 0 0 0 0 0 0 0 0 0 0 0 0 0 0 0 0 0 0 0 0 2 2 0 0 0 0 0 0 0 0 0 0 0 0 0 0 0 0 0 0 0 0 0 0
9 8 11 0 0 0 0 0 0 0 0 0 0 0 0 0 0 0 0 0 0 0 0 0 12 4 0 3 0 0 0 0 0 0 0 0 0 0 0 0 0 0 0 0 0 0 0
15 4 2 0 0 0 0 0 0 0 0 0 0 0 0 0 0 0 0 0 0 0 0 0 6 28 2 12 9 0 0 0 0 0 0 0 0 0 0 0 0 0 0 0 0 0 0
37 4 13 0 0 0 0 0 0 0 0 0 0 0 0 0 0 0 0 0 0 0 0 0 0 0 1 0 0 24 0 0 0 0 0 0 0 0 0 0 0 0 0 0 0 0 0
26 5 0 0 0 0 0 0 0 0 0 0 0 0 0 0 0 0 0 0 0 0 0 0 0 0 0 0 12 4 0 0 0 0 0 0 0 0 0 0 0 0 0 0 0 0 0
12 3 0 0 0 0 0 0 0 0 0 0 0 0 0 0 0 0 0 0 0 0 0 0 0 0 0 0 0 0 0 0 0 0 0 0 0 0 0 0 0 0 0 0 0 0 0

GFSGBSN_con_mucape_075.txt.gz
CAPE
3 11 3 0 0 0 0 4 8 4 8 16 29 41 14 11 35 30 26 9 8 49 9 0 2 0 27 14 0 4 0 2 65 92 17 88 129 114 94 13 62 146 112 87 55 26 31
14 20 16 14 0 0 0 0 4 4 6 14 27 40 0 15 12 38 20 33 4 36 3 0 10 0 7 1 0 3 1 4 76 95 40 83 66 84 55 39 42 21 39 49 133 22 78
19 18 21 7 0 0 1 0 4 7 4 9 25 32 0 18 0 14 25 33 5 17 18 0 0 0 6 5 0 3 0 6 165 106 78 122 106 89 63 57 28 85 108 112 118 1 81
5 6 8 5 0 0 0 0 0 8 6 6 21 23 12 16 0 0 0 21 26 9 2 0 11 13 19 1 2 1 0 1 139 168 52 42 60 77 92 80 99 118 153 93 68 49 125
103 3 4 10 0 7 2 0 0 6 5 0 22 19 21 13 0 0 0 17 14 0 0 0 8 21 26 19 30 16 9 12 100 97 30 28 64 54 62 64 84 97 0 39 57 135 93
118 8 1 5 0 7 3 0 0 3 6 0 17 16 0 4 0 0 0 4 0 0 0 1 1 50 10 19 83 34 19 21 86 118 79 63 54 91 44 135 0 0 0 0 0 89 76
114 26 3 7 13 9 5 0 0 1 5 0 0 0 0 0 0 0 0 0 0 0 0 0 0 9 1 3 77 105 30 8 94 54 45 22 15 0 8 45 14 0 0 20 39 83 103
112 30 7 4 11 8 1 0 0 1 4 0 0 0 0 0 0 0 0 0 0 0 0 0 4 15 0 2 54 154 93 61 74 63 0 24 1 0 15 38 7 49 9 60 55 47 95
101 42 36 3 8 9 0 0 0 0 0 0 0 0 0 0 0 0 0 0 0 0 0 14 10 18 13 0 77 93 130 90 3 7 0 9 13 0 0 13 3 22 28 74 63 62 73
87 33 13 4 0 0 0 0 0 0 0 0 0 0 0 0 0 0 0 0 0 0 0 0 18 2 38 42 12 8 95 42 0 0 0 17 9 8 16 34 13 4 28 51 53 93 2
71 13 17 2 0 0 0 0 0 0 0 0 0 0 0 0 0 0 0 0 0 0 0 9 7 4 40 16 0 0 44 23 0 1 44 19 1 0 87 16 27 1 43 53 51 103 52
56 34 38 15 0 8 5 0 0 0 0 0 0 0 0 0 0 0 0 0 0 0 0 0 13 10 14 26 29 29 3 1 24 43 60 11 10 10 45 44 35 33 65 41 51 38 0
46 9 29 3 7 17 4 0 0 0 0 0 0 0 0 0 1 0 0 0 0 0 0 1 22 9 11 0 0 31 32 21 47 35 101 6 21 20 28 47 41 50 26 0 0 0 0
51 8 22 9 1 4 0 0 0 0 0 0 0 1 0 0 0 0 0 0 0 0 0 0 27 19 19 1 0 24 14 41 33 15 0 20 108 24 27 7 4 30 0 0 0 0 0
54 3 7 2 5 14 0 0 0 0 0 0 0 8 0 0 0 0 0 0 0 0 0 0 27 12 0 12 12 22 28 22 3 12 50 1 0 3 37 23 63 33 0 0 0 0 0
49 1 6 4 9 1 0 0 0 0 0 0 0 0 0 0 1 0 0 0 0 0 0 5 0 0 0 0 0 0 0 0 0 3 0 0 0 0 29 35 24 36 24 0 0 0 0
51 19 3 8 14 1 0 0 0 0 0 0 0 0 0 0 1 0 0 0 0 0 0 9 0 0 0 0 0 0 1 0 11 0 0 19 0 0 42 41 0 3 0 4 0 0 0
53 25 6 41 14 15 0 0 0 0 0 0 0 0 0 0 0 0 0 0 0 0 0 0 0 15 1 3 7 0 1 13 2 0 0 0 0 0 0 7 1 11 26 24 0 0 0
48 19 9 8 25 32 0 0 0 0 0 0 0 0 1 0 0 0 0 0 0 0 0 0 0 0 4 13 0 7 0 0 4 0 0 0 0 0 0 0 0 0 3 11 29 21 12
41 24 50 12 20 39 0 0 0 0 0 0 0 0 0 0 0 0 0 0 0 0 0 0 0 0 1 0 0 1 0 0 0 0 0 0 0 0 0 0 0 0 0 0 4 0 0
16 20 44 16 39 17 0 0 0 0 0 0 0 0 0 0 0 0 0 0 0 0 0 0 0 1 5 2 5 10 0 0 0 0 0 0 0 0 0 0 0 0 0 0 0 0 0
22 38 29 12 24 15 0 0 0 0 0 0 0 0 0 0 0 0 0 0 0 0 0 0 0 0 0 14 1 13 5 8 6 0 0 0 0 0 0 0 0 0 0 0 0 3 9
10 51 34 21 26 23 0 0 0 0 0 0 0 0 0 0 0 0 0 0 0 0 0 0 0 0 7 0 0 0 0 0 0 1 0 33 0 0 0 0 0 0 0 0 0 0 0
52 85 30 6 48 0 0 0 0 0 0 0 0 0 0 0 0 0 0 0 0 0 0 0 4 7 0 0 0 0 0 0 0 0 3 35 0 0 0 0 0 0 0 0 0 0 0
15 78 38 4 42 0 0 0 0 0 0 0 0 0 0 0 0 0 0 0 0 0 0 0 1 0 0 0 1 2 3 5 0 0 0 1 27 0 0 0 0 0 0 0 0 0 0
52 77 35 10 33 0 0 0 0 0 0 0 0 0 0 0 0 0 0 0 0 0 0 0 0 0 0 26 29 0 0 0 1 0 0 0 0 1 0 0 0 0 0 0 0 0 0
21 20 18 9 4 0 0 0 0 0 0 0 0 0 0 0 0 0 0 0 0 0 0 0 0 0 0 0 0 0 0 1 0 0 1 0 0 0 0 0 0 0 0 0 0 0 0
7 12 23 2 0 0 0 0 0 0 0 0 0 0 0 0 0 0 0 0 0 0 0 0 0 0 0 0 0 0 0 4 0 0 5 11 0 0 0 0 0 0 0 0 0 0 0
8 33 26 1 0 0 0 0 0 0 0 0 0 0 0 0 0 0 0 0 0 0 0 0 0 0 0 0 0 0 0 0 3 0 0 0 23 8 0 0 0 0 0 0 0 0 0

GFSGBSN_con_mucape_078.txt.gz
CAPE
18 17 15 6 12 9 4 0 0 1 3 13 13 19 27 32 13 9 43 18 28 7 28 0 2 0 0 12 0 14 3 0 5 51 66 22 105 81 51 3 79 54 75 64 59 13 35
76 27 2 3 6 12 4 0 1 0 5 7 10 17 27 34 18 8 18 25 29 3 24 2 0 0 2 4 0 5 19 1 50 56 80 52 49 79 9 7 50 69 43 74 13 2 15
89 89 33 13 6 4 12 2 2 0 7 7 8 17 19 29 15 0 0 24 16 10 7 0 0 0 7 0 0 4 12 1 91 112 127 99 105 112 67 64 8 64 99 81 49 46 7
115 85 80 13 3 4 9 2 3 1 9 6 10 14 24 22 6 0 0 0 4 20 1 0 0 0 15 0 0 2 6 0 45 250 188 108 135 75 45 39 25 97 54 0 3 48 39
112 74 98 15 9 2 9 20 14 3 7 6 8 12 17 0 0 0 0 0 5 1 0 0 0 25 13 0 4 4 0 32 81 91 203 102 100 78 37 35 40 49 0 0 34 16 0
92 104 72 43 16 2 5 18 18 0 6 6 7 10 16 0 0 0 0 0 0 0 0 0 3 12 13 6 15 8 0 0 28 69 111 35 24 5 27 68 5 0 0 0 0 0 0
94 93 44 5 1 7 4 7 0 0 5 5 6 6 4 0 0 0 0 0 0 0 0 0 0 11 23 1 30 26 1 0 57 12 19 13 0 0 0 0 13 0 0 0 0 86 56
109 75 73 11 3 13 8 8 0 0 1 4 0 5 0 0 12 0 0 0 0 0 0 0 1 6 4 0 32 44 2 18 21 28 0 0 0 13 0 0 8 0 0 0 28 93 45
36 71 65 38 3 1 8 4 1 0 0 3 0 0 0 13 0 0 0 0 0 0 0 7 0 7 6 3 74 33 41 25 13 5 0 2 0 3 4 37 3 0 0 0 1 21 19
93 84 51 56 0 0 16 5 3 4 0 0 0 0 0 2 0 2 0 0 0 0 0 3 2 0 8 0 2 28 86 48 1 12 1 7 13 2 0 4 1 4 5 32 9 30 0
88 100 43 49 0 2 13 2 10 5 0 0 0 0 0 0 2 0 0 0 0 0 0 3 1 0 8 0 0 0 35 51 1 0 0 3 0 0 18 2 23 17 0 20 54 57 16
145 56 28 61 0 4 16 9 13 7 0 0 0 0 0 0 0 0 0 0 0 0 0 0 14 10 0 0 0 0 9 0 10 1 6 22 11 13 82 46 2 2 28 13 27 2 0
79 53 61 71 0 2 9 4 24 0 0 0 0 0 0 2 0 0 0 0 0 0 0 0 1 4 3 0 2 7 2 0 11 13 20 54 18 12 21 17 21 19 10 0 0 0 0
11 54 38 53 0 3 22 9 7 0 0 0 0 1 0 2 0 0 0 0 0 0 0 0 6 1 7 0 12 12 2 7 32 55 0 6 3 0 4 24 14 12 0 0 0 0 0
7 39 29 50 20 4 13 16 7 1 0 0 3 1 5 0 0 0 0 0 0 0 0 0 0 11 1 1 2 23 8 28 58 13 38 5 0 0 8 12 13 0 0 1 0 0 0
45 7 21 47 38 3 14 25 8 0 0 0 0 0 0 0 0 0 0 0 0 0 0 13 6 15 0 0 4 4 6 2 15 4 0 0 0 0 8 17 9 9 3 0 0 0 0
63 1 32 63 56 25 13 21 20 0 0 0 0 0 0 0 2 0 0 0 0 0 0 3 0 0 0 0 1 3 0 0 2 0 0 1 0 0 13 16 0 3 1 0 0 0 0
46 1 28 41 60 30 15 8 20 0 0 0 0 0 1 3 0 0 0 0 0 0 0 0 1 11 0 0 0 0 0 0 5 0 0 0 0 0 0 1 2 6 15 2 0 0 0
8 0 8 25 69 32 8 18 54 0 0 0 0 0 0 0 0 0 0 0 0 0 0 0 1 0 6 3 0 2 0 0 0 0 0 0 0 0 0 0 0 0 17 33 4 0 0
12 0 11 4 49 46 17 56 2 0 0 0 0 0 0 0 0 0 0 0 0 0 0 0 0 0 0 5 5 0 0 0 0 0 0 0 0 0 0 0 0 0 0 2 4 0 0
26 0 1 4 11 41 8 45 0 1 0 0 0 0 0 0 0 0 0 0 0 0 0 0 0 0 3 8 7 9 0 0 0 0 0 0 0 0 0 0 0 0 0 0 0 0 0
23 18 1 11 33 18 14 77 0 1 0 0 0 0 0 0 0 0 0 0 0 0 0 0 0 0 0 2 1 8 0 0 0 0 0 0 0 0 0 0 0 0 0 0 0 0 0
30 45 5 4 80 44 74 34 0 0 0 0 0 0 0 0 0 0 0 0 0 0 0 0 0 0 0 0 0 0 5 2 6 5 0 0 0 0 0 0 0 0 0 0 0 0 0
39 14 27 9 74 52 76 2 0 0 0 0 0 0 0 0 0 0 0 0 0 0 0 0 0 0 0 0 0 0 0 0 0 0 6 15 0 0 0 0 0 0 0 0 0 0 0
20 0 1 42 3 41 7 0 0 0 0 0 0 0 0 0 0 0 0 0 0 0 0 0 0 0 0 0 0 0 0 0 0 0 1 16 6 0 0 0 0 0 0 0 0 0 0
18 1 2 19 46 10 5 0 0 0 0 0 0 0 0 0 0 0 0 0 0 0 0 0 0 0 0 7 0 0 0 0 0 0 0 0 2 6 0 0 0 0 0 0 0 0 0
7 0 1 11 40 0 0 0 0 0 0 0 0 0 0 0 0 0 0 0 0 0 0 0 0 0 1 0 0 0 0 1 0 0 0 0 0 0 0 0 0 0 0 0 0 0 0
0 0 1 0 40 9 0 0 0 0 0 0 0 0 0 0 0 0 0 0 0 0 0 0 0 0 0 0 0 0 0 0 0 0 0 0 0 0 0 0 0 0 0 0 0 0 0
0 0 1 11 11 2 0 0 0 0 0 0 0 0 0 0 0 0 0 0 0 0 0 0 0 0 0 0 0 0 0 0 0 0 0 0 3 8 0 0 0 0 0 0 0 0 0

GFSGBSN_con_mucape_081.txt.gz
CAPE
116 114 77 5 7 9 10 8 12 2 2 0 10 10 20 20 29 9 13 19 23 35 4 28 3 0 0 0 3 0 53 2 0 9 72 90 34 114 78 0 87 60 72 44 85 54 52
170 124 100 78 33 12 12 5 2 3 9 0 13 9 21 20 25 9 10 0 25 27 5 30 1 0 0 0 0 0 7 0 17 10 0 31 57 72 52 21 36 24 19 48 29 22 2
172 187 157 121 65 0 10 7 6 9 8 0 11 12 18 21 18 0 0 0 18 7 20 20 0 0 6 4 0 0 18 0 51 81 6 98 97 84 46 35 1 69 75 9 8 0 6
14 191 219 167 104 40 15 20 11 16 5 0 7 10 15 22 9 0 0 21 0 4 12 9 0 1 17 0 0 0 11 26 166 151 207 158 105 107 51 19 33 98 69 0 5 57 6
9 15 167 207 166 80 5 14 9 6 1 0 5 8 14 14 0 0 0 14 0 4 0 0 0 10 5 1 0 0 1 15 113 175 161 38 76 30 31 43 29 20 0 0 0 19 1
3 18 27 118 158 100 0 22 7 2 9 0 4 5 8 15 0 13 10 0 0 0 0 0 1 6 2 2 2 0 0 0 25 63 14 19 6 3 24 44 0 0 0 0 0 0 2
6 21 55 20 141 102 13 21 31 4 12 0 1 5 5 1 0 14 0 0 0 0 0 0 0 0 9 0 10 2 0 0 11 0 5 15 19 1 1 38 24 0 0 0 0 2 0
0 10 24 53 24 117 17 22 16 6 14 1 0 3 2 1 3 9 0 0 0 0 0 0 0 0 0 0 5 2 0 0 0 0 3 18 0 9 5 39 17 2 0 0 34 63 10
10 6 13 47 55 98 74 29 8 9 18 1 1 0 0 0 2 0 0 0 0 0 0 4 0 0 0 0 3 1 2 1 4 0 0 0 0 0 1 2 1 0 0 0 0 33 11
42 13 6 25 40 50 75 13 8 8 7 3 5 0 0 1 0 0 0 0 0 0 0 0 0 0 0 0 0 0 29 36 0 0 0 0 16 0 0 3 0 1 0 1 21 19 0
25 36 28 1 21 34 68 32 25 22 16 5 5 0 0 0 0 0 0 0 0 0 0 5 0 0 0 0 0 0 25 32 0 0 0 6 49 0 3 0 0 3 4 2 0 19 0
27 42 80 37 24 4 20 13 51 20 8 17 2 0 0 0 0 0 0 0 0 0 0 1 3 1 0 0 0 7 55 1 0 0 13 16 17 14 37 6 1 20 8 32 20 1 0
115 49 73 66 8 6 20 4 24 23 13 10 0 0 0 2 0 0 0 0 0 0 0 0 0 3 7 0 9 0 5 0 11 2 0 50 22 44 47 11 6 12 3 8 14 0 0
174 131 112 125 0 6 16 9 0 33 7 7 0 0 0 1 0 0 0 0 0 0 0 9 0 0 0 1 1 1 22 0 9 9 3 16 3 2 17 13 1 5 0 6 0 0 0
179 182 202 198 74 5 13 3 7 39 30 18 0 0 0 0 0 0 0 0 0 0 0 0 0 0 0 13 1 21 5 0 26 0 21 10 0 1 5 0 1 75 0 0 0 0 0
222 216 233 105 15 1 9 8 7 31 21 35 0 0 0 0 0 0 0 0 0 0 0 0 0 0 0 0 0 6 8 14 12 11 15 0 2 1 2 0 0 0 0 0 0 0 0
156 64 88 5 1 0 14 29 38 20 46 41 0 0 0 7 0 0 0 0 0 0 0 3 9 0 0 0 0 0 0 1 0 1 0 0 0 0 2 0 0 0 0 0 0 0 0
82 53 20 148 82 0 14 6 28 7 43 5 0 0 0 5 0 0 0 0 1 0 0 0 7 0 0 0 0 5 0 0 0 0 0 0 0 0 0 0 0 0 0 0 0 0 0
90 0 16 133 96 0 0 23 10 12 54 0 0 0 0 0 0 0 0 0 0 0 0 0 0 4 17 3 0 0 0 0 0 0 0 0 0 0 0 0 0 0 0 3 0 0 0
106 0 0 32 83 0 3 25 9 13 25 0 0 0 0 0 0 0 0 0 0 0 0 0 0 0 14 15 10 0 0 0 0 0 0 0 0 0 0 0 0 0 0 0 0 0 0
84 85 3 4 95 0 10 38 19 29 0 0 0 0 0 0 0 0 0 0 0 0 0 0 0 0 3 0 16 4 0 0 0 1 0 0 0 0 0 0 0 0 0 0 0 0 0
119 3 5 21 83 1 16 13 20 16 0 0 0 0 0 0 0 0 0 0 0 0 0 0 0 0 0 0 5 5 0 0 0 0 0 0 0 0 0 0 0 0 0 0 0 0 0
92 0 12 14 37 0 8 27 19 35 0 0 0 0 0 0 0 0 0 0 0 0 0 0 0 0 0 0 10 6 6 5 2 0 0 0 0 0 0 0 0 0 0 0 0 0 0
75 21 9 2 0 0 1 36 51 58 0 0 0 0 0 0 0 0 0 0 0 0 0 0 0 0 0 0 0 0 0 0 1 2 2 5 2 0 0 0 0 0 0 0 0 0 0
0 4 29 18 0 18 5 49 48 6 0 0 0 0 0 0 0 0 0 0 0 0 0 0 0 0 0 0 0 0 0 0 0 0 10 21 6 0 0 0 0 0 0 0 0 0 0
0 11 0 29 0 1 5 44 25 0 0 0 0 0 0 0 0 0 0 0 0 0 0 0 0 0 0 0 0 0 0 0 0 0 0 0 10 1 0 0 0 0 0 0 0 0 0
0 5 1 23 0 1 1 49 31 0 0 0 0 0 0 0 0 0 0 0 0 0 0 0 0 0 0 0 0 0 0 0 0 0 0 0 1 0 0 0 0 0 0 0 0 0 0
0 0 2 0 0 0 9 8 0 7 0 0 0 0 0 0 0 0 0 0 0 0 0 0 0 0 0 0 0 0 0 0 0 0 0 0 0 0 0 0 0 0 0 0 0 0 0
0 12 0 0 0 0 0 5 0 6 0 0 0 0 0 0 0 0 0 0 0 0 0 0 0 0 0 0 0 0 0 0 0 0 0 0 0 0 0 0 6 0 0 0 8 15 9

GFSGBSN_con_mucape_084.txt.gz
CAPE
28 73 123 156 149 161 86 2 7 8 10 13 0 3 6 9 18 23 10 15 12 29 32 1 33 6 0 0 0 0 41 20 6 10 31 43 105 118 71 16 88 86 123 80 47 45 62
17 14 14 49 157 168 163 54 14 31 8 9 0 0 7 7 14 12 10 0 9 20 16 5 34 4 0 0 0 0 12 4 0 0 1 89 104 101 59 50 0 15 53 18 41 52 52
9 32 8 5 10 142 149 140 20 17 14 8 2 0 4 7 9 11 8 11 19 8 2 28 36 3 2 0 0 0 12 0 30 1 2 5 32 63 93 35 0 43 47 41 0 27 62
0 1 11 25 25 49 75 116 20 48 7 3 11 0 0 7 3 6 0 0 13 0 2 15 32 2 0 0 0 0 17 54 61 41 21 99 144 159 62 10 10 44 84 0 21 91 1
12 6 1 14 21 27 48 88 24 12 25 3 14 10 0 6 4 0 9 4 3 0 2 1 5 4 0 0 0 0 5 21 63 118 89 73 76 45 47 40 51 43 0 0 0 0 13
23 16 4 0 5 12 36 30 75 15 53 13 18 18 0 3 0 0 2 1 0 0 0 0 0 0 0 0 0 0 0 7 20 26 0 21 18 5 31 38 0 0 0 0 0 0 0
0 18 10 9 0 7 20 9 63 5 41 17 15 11 0 0 0 2 0 0 0 0 0 0 0 0 0 0 0 0 0 0 5 0 0 0 16 0 29 29 33 7 0 0 0 0 2
19 32 33 29 7 3 10 13 46 15 31 9 15 42 21 0 0 2 0 0 0 0 0 0 0 0 0 0 0 0 0 0 0 0 0 5 1 2 9 36 18 18 0 0 0 28 0
5 10 16 31 39 7 0 22 20 20 5 8 29 34 29 0 0 0 0 0 0 0 0 0 0 0 0 0 0 0 9 0 0 0 0 1 1 9 7 9 17 4 0 0 0 0 0
30 17 10 4 12 30 26 0 17 30 3 11 6 42 23 0 0 0 0 0 0 0 0 0 0 0 0 0 0 0 13 0 0 0 0 0 3 22 0 0 0 0 0 0 22 0 0
34 26 30 26 27 34 27 5 9 34 4 1 11 27 10 0 0 0 0 0 0 0 0 0 0 0 0 0 0 0 0 1 0 0 0 5 24 25 0 1 8 1 8 11 36 0 0
62 55 53 91 30 43 97 24 13 12 16 8 7 16 11 0 0 0 0 0 0 0 0 0 0 0 0 0 1 8 12 0 0 0 54 23 23 0 26 12 0 10 18 24 0 0 0
85 78 102 136 115 51 92 61 53 2 19 25 8 21 19 0 0 0 0 0 0 0 0 0 0 0 0 0 4 0 10 0 0 0 1 21 8 10 28 10 9 21 13 0 0 0 0
104 156 129 128 124 108 84 112 117 1 9 8 9 16 2 0 0 0 0 0 0 0 0 0 0 0 0 1 1 17 3 0 0 0 1 4 14 10 5 9 11 25 6 0 0 0 0
196 249 256 241 223 123 64 77 44 1 1 2 5 0 11 0 0 0 0 0 0 0 0 0 0 0 0 0 6 7 0 0 0 0 0 4 12 0 25 4 0 18 4 0 0 0 3
304 316 239 258 188 160 78 65 46 0 4 4 19 3 24 0 0 0 0 0 0 0 0 0 0 0 0 0 0 4 0 3 7 9 1 0 0 13 7 3 0 0 0 0 1 0 0
305 206 194 194 120 21 50 70 8 17 11 1 0 0 11 2 0 0 0 0 0 0 0 0 0 0 0 0 0 0 1 0 2 0 0 0 0 0 0 0 0 0 0 0 0 0 0
198 166 124 101 64 0 61 88 0 43 1 17 0 0 0 1 0 0 0 0 0 0 0 0 0 0 0 0 0 1 0 0 0 0 0 0 0 0 0 0 0 0 0 0 0 0 0
132 107 105 144 86 0 42 15 0 1 10 0 0 1 0 0 0 0 0 0 0 0 0 0 0 2 10 0 0 0 1 0 2 0 0 0 0 0 0 0 0 0 0 0 0 0 0
87 83 100 99 0 1 9 69 1 1 11 5 0 0 0 0 0 0 0 0 0 0 0 0 0 0 9 9 0 0 0 0 1 0 0 0 0 0 0 0 0 0 0 0 0 0 0
69 62 67 108 0 3 35 94 0 19 13 1 0 0 0 0 0 0 0 0 0 0 0 0 0 0 5 3 2 0 0 0 0 1 0 0 0 0 0 0 0 0 0 0 0 0 0
63 57 21 66 1 6 2 12 0 1 3 1 0 0 0 0 0 0 0 0 0 0 0 0 0 0 0 0 1 0 0 0 0 0 0 0 0 0 0 0 0 0 0 0 0 0 0
50 35 0 0 13 0 0 0 0 0 0 0 0 0 0 0 0 0 0 0 0 0 0 0 0 0 0 0 9 0 0 0 0 0 0 0 0 0 0 0 0 0 0 0 0 0 0
40 24 0 0 1 17 29 0 0 0 5 0 0 0 0 0 0 0 0 0 0 0 0 0 0 0 0 1 13 4 9 3 1 0 0 0 0 0 0 0 0 0 0 0 0 0 0
32 2 0 0 6 22 27 0 10 0 7 0 0 0 0 0 0 0 0 0 0 0 0 0 0 0 0 0 0 0 0 0 0 0 2 2 0 0 0 0 0 0 0 0 0 0 0
19 0 2 14 2 38 0 0 0 0 0 0 0 0 0 0 0 0 0 0 0 0 0 0 0 0 0 0 0 0 0 0 0 0 0 11 11 2 0 0 0 0 0 0 0 0 0
14 0 1 13 25 0 0 0 0 25 0 0 0 0 0 0 0 0 0 0 0 0 0 0 0 0 0 0 0 0 0 0 0 0 0 0 9 0 0 0 0 0 0 0 0 0 0
8 0 0 7 0 0 0 0 0 9 0 0 0 0 0 0 0 0 0 0 0 0 0 0 0 0 0 0 0 0 0 0 0 0 0 0 0 0 0 0 0 0 0 0 0 0 0
2 2 1 0 0 0 0 0 2 7 0 0 0 0 0 0 0 0 0 0 0 0 0 0 0 0 0 0 0 0 0 0 0 0 0 0 0 0 0 0 0 0 0 0 0 0 0

GFSGBSN_con_mucape_087.txt.gz
CAPE
1 0 7 10 9 1 4 152 126 30 10 16 9 5 4 0 12 17 6 7 5 7 38 37 14 33 0 0 0 0 0 47 17 0 13 44 91 53 44 50 51 48 0 30 255 147 135
0 0 0 0 2 10 3 24 75 121 26 36 17 9 8 4 0 14 5 8 10 16 25 25 19 13 0 0 0 0 1 7 0 0 5 32 43 81 54 73 16 45 90 0 231 110 132
7 11 10 0 0 0 12 14 38 22 62 7 9 4 24 0 0 10 9 0 6 26 9 25 26 7 0 0 0 0 0 5 8 15 0 5 47 127 75 54 30 17 74 15 173 43 101
8 2 17 17 13 0 0 11 22 17 127 18 5 4 24 0 0 15 5 3 1 8 1 19 8 3 0 0 0 0 2 0 59 5 0 46 53 45 97 55 82 73 58 0 91 18 38
0 0 13 23 26 17 3 0 0 18 17 35 10 16 6 7 0 15 3 6 1 2 5 4 0 0 0 0 0 0 1 4 53 22 20 107 63 5 117 66 45 60 10 2 13 12 13
33 17 0 19 12 14 19 13 0 9 22 23 9 10 6 11 0 3 2 2 0 0 0 0 0 0 0 0 0 0 0 4 5 0 0 19 12 2 31 57 0 3 2 7 0 0 0
27 28 27 29 24 14 8 11 0 0 36 23 2 16 5 10 12 0 2 0 0 0 0 0 0 0 0 0 0 0 0 0 3 0 0 9 5 0 34 10 1 0 0 0 0 0 18
12 7 8 16 27 26 16 13 8 0 1 17 8 20 29 16 14 0 0 0 0 0 0 0 0 0 0 0 0 0 0 0 0 0 0 0 0 1 26 62 38 31 10 0 0 4 0
14 14 10 10 11 18 30 23 12 8 0 15 8 4 15 10 28 0 0 0 0 0 0 0 0 0 0 0 0 0 0 0 0 1 0 0 1 0 26 53 44 23 40 36 19 30 0
8 7 6 9 4 5 9 35 20 14 12 0 3 0 20 12 9 0 0 0 0 0 0 0 0 0 0 0 0 0 0 0 0 0 2 0 19 3 0 23 24 61 16 26 67 0 0
69 54 39 37 12 2 6 11 29 13 23 20 2 3 1 16 14 13 0 0 0 0 0 0 0 0 0 0 0 0 0 0 0 0 0 6 19 1 11 8 13 28 5 5 16 0 0
80 73 81 115 53 20 8 4 14 34 26 53 1 6 2 16 3 0 0 0 0 0 0 0 0 0 0 0 0 0 2 0 0 1 33 31 6 2 7 18 2 7 7 4 0 0 0
104 96 112 80 82 85 22 46 23 48 47 92 0 6 1 1 6 0 0 0 0 0 0 0 0 0 0 23 0 1 1 0 0 5 9 5 4 12 25 32 0 15 0 3 0 0 0
113 200 192 80 259 226 115 123 90 88 51 77 0 1 1 9 1 0 0 0 0 0 0 0 0 0 0 6 4 25 0 0 0 0 0 1 1 11 3 3 6 21 0 2 0 0 0
211 339 386 76 272 202 130 146 155 82 42 20 10 0 0 0 0 0 0 0 0 0 0 0 0 0 0 0 16 0 0 0 0 0 0 0 1 1 44 33 9 3 0 0 0 0 0
295 345 379 315 273 201 191 165 86 76 43 5 0 0 1 1 2 1 0 0 0 0 0 0 0 0 0 0 5 5 0 0 2 4 4 0 0 0 3 0 2 0 0 0 0 0 0
327 260 263 214 153 150 171 125 63 26 67 2 0 4 0 0 0 0 0 0 0 0 0 0 0 0 0 0 10 0 0 0 0 8 0 0 0 0 0 0 0 0 0 0 0 0 0
264 245 126 104 134 78 69 70 0 34 67 0 0 0 0 0 0 0 0 0 0 0 1 0 0 0 0 0 0 18 0 0 0 0 0 0 0 0 0 0 0 0 0 0 0 0 0
196 157 106 130 137 60 50 90 21 37 4 0 0 0 0 0 0 0 0 0 0 0 0 0 4 2 0 0 0 12 0 0 0 0 0 0 0 0 0 0 0 0 0 0 0 0 0
233 94 78 106 109 83 70 0 37 88 55 0 0 0 0 0 0 0 0 0 0 0 0 0 0 2 0 0 2 2 0 0 0 0 0 0 0 0 0 0 0 0 0 0 0 0 0
149 101 43 51 114 13 0 1 24 42 0 0 0 0 0 0 0 0 0 0 0 0 0 0 0 0 1 0 0 0 0 0 0 1 0 0 0 0 0 0 0 0 0 0 0 0 0
130 65 36 34 0 0 5 3 10 0 0 0 0 0 0 0 0 0 0 0 0 0 0 0 0 0 0 0 0 0 0 0 0 0 0 0 0 0 0 0 0 0 0 0 0 0 0
69 42 29 28 0 0 0 0 18 9 0 0 0 2 0 0 0 0 0 0 0 0 0 0 0 0 0 0 0 0 0 0 0 0 0 0 0 0 0 0 0 0 0 0 0 0 0
61 36 26 45 0 0 0 8 5 26 0 0 0 2 0 0 0 0 0 0 0 0 0 0 0 0 0 0 0 0 0 0 0 0 0 0 0 0 0 0 0 0 0 0 0 0 0
27 17 29 0 3 2 0 32 0 0 0 0 0 0 0 0 0 0 0 0 0 0 0 0 0 0 1 2 0 0 0 0 0 0 0 0 0 0 0 0 0 0 0 0 0 0 0
9 13 0 4 2 1 0 0 0 0 0 0 0 0 0 0 0 0 0 0 0 0 0 0 0 0 0 0 0 0 0 0 0 0 0 3 5 0 0 0 0 0 0 0 0 0 0
6 8 1 1 0 0 0 0 0 0 0 0 0 0 0 0 0 0 0 0 0 0 0 0 0 0 0 0 0 0 0 0 0 0 0 0 0 0 0 0 0 0 0 0 0 0 0
4 1 2 0 0 1 0 0 0 0 0 0 0 0 0 0 0 0 0 0 0 0 0 0 0 0 0 0 0 0 0 0 0 0 0 0 0 0 0 0 0 0 0 0 0 0 0
0 0 0 0 0 0 0 0 0 0 0 0 0 0 0 0 0 0 0 0 0 0 0 0 0 0 0 0 0 0 0 0 0 0 0 0 0 0 0 0 0 0 0 0 0 0 0

GFSGBSN_con_mucape_090.txt.gz
CAPE
17 14 5 0 0 0 0 0 0 4 35 74 97 4 5 3 7 8 0 19 20 9 6 22 28 21 0 0 0 0 0 2 18 23 0 2 31 49 24 101 71 59 0 26 11 20 0
27 24 20 19 22 18 5 0 0 0 4 5 138 5 2 16 8 3 4 14 12 16 36 5 23 13 0 0 0 0 0 0 5 13 4 0 25 72 37 28 8 33 3 10 25 4 6
35 25 20 17 15 22 15 17 0 0 10 8 5 27 14 19 14 10 0 16 10 24 31 0 22 4 0 0 0 0 0 0 12 32 52 0 19 52 46 93 13 3 54 54 17 8 169
49 43 43 38 25 21 21 21 20 2 1 28 81 9 13 23 5 11 5 15 1 27 25 6 16 9 0 0 0 0 0 0 29 1 0 14 21 3 1 16 79 39 58 55 8 0 0
35 27 29 33 33 31 22 19 16 11 6 0 19 43 23 9 11 8 5 10 7 24 30 29 0 0 0 0 0 0 0 0 34 0 6 51 39 2 0 17 36 51 3 34 1 0 0
25 19 19 22 26 27 36 35 22 15 8 0 5 16 35 7 7 3 5 3 8 11 5 0 0 0 0 0 0 0 0 0 2 0 0 13 0 0 7 18 0 6 24 5 0 36 0
51 48 34 24 33 37 37 38 35 12 6 3 3 15 11 0 4 26 4 0 0 0 0 0 0 0 0 0 0 0 0 0 0 0 0 0 0 5 1 3 7 30 18 0 0 0 0
48 40 41 52 45 45 39 37 35 33 10 6 20 4 9 4 3 5 8 0 0 0 0 0 0 0 0 0 0 0 0 0 0 0 0 0 0 0 44 33 35 59 49 42 8 0 0
42 49 36 41 41 44 35 34 29 50 24 5 1 28 6 11 3 3 1 0 0 0 0 0 0 0 0 0 0 0 0 0 0 0 0 0 0 0 21 75 44 37 7 4 0 0 0
24 33 26 34 29 43 40 35 31 33 42 9 0 14 6 1 0 0 0 0 0 0 0 0 0 0 0 0 0 0 0 0 0 0 0 0 2 0 10 27 41 39 16 58 45 0 0
71 76 80 82 90 74 103 42 26 19 40 61 4 26 23 7 0 1 0 0 0 0 0 0 0 0 0 0 0 0 0 0 0 0 0 22 21 3 32 16 51 35 17 43 8 0 0
88 87 94 101 107 103 81 27 75 8 40 54 39 21 31 3 8 0 0 0 0 0 0 0 0 0 1 0 0 0 0 0 0 0 64 3 4 1 23 17 40 27 3 20 0 3 0
82 77 79 110 161 221 212 62 135 38 21 20 42 19 17 3 0 0 0 0 0 0 0 0 0 0 0 0 1 0 0 0 0 4 43 1 6 1 26 10 17 53 21 0 0 0 0
102 92 107 171 280 288 105 139 168 86 42 32 34 45 0 1 0 0 0 0 0 0 0 0 0 0 0 0 2 10 0 0 0 0 1 5 0 0 2 0 1 0 14 3 0 0 0
92 111 162 239 198 193 209 277 221 147 121 124 98 6 16 3 0 0 0 0 0 0 0 0 0 0 0 0 1 0 0 0 5 0 0 0 0 56 23 11 7 0 0 0 15 4 0
100 139 224 212 184 156 172 210 201 178 131 127 38 13 12 1 0 0 0 0 0 0 0 0 0 0 0 0 0 0 0 0 0 1 0 0 10 8 23 16 0 0 0 0 1 0 0
146 180 254 271 97 82 74 108 138 112 149 64 0 0 0 25 0 0 0 0 0 0 0 0 0 0 0 0 0 0 0 0 3 0 0 0 0 1 0 1 0 0 0 0 0 0 0
111 130 218 236 74 65 56 48 46 41 1 0 0 0 0 0 0 0 0 0 0 0 0 0 0 0 0 0 0 0 0 0 0 0 0 0 0 0 0 0 0 0 0 0 0 0 0
125 240 195 191 68 83 60 40 55 50 19 3 0 0 9 0 0 0 0 0 0 0 0 0 0 4 0 0 0 1 0 0 3 0 0 0 0 0 0 0 0 0 0 0 0 0 0
202 277 222 86 80 76 94 32 0 0 3 5 0 0 0 0 0 0 0 0 0 0 0 0 3 10 0 0 4 0 0 0 3 0 0 0 0 0 0 0 0 0 0 0 0 0 0
107 129 95 51 52 55 4 0 0 13 48 0 0 0 0 0 0 0 0 0 0 0 0 0 0 0 0 0 0 0 0 0 0 0 0 0 0 0 0 0 0 0 0 0 0 0 0
181 130 69 48 36 0 0 2 18 28 0 0 0 0 0 0 0 0 0 0 0 0 0 0 0 0 24 0 0 0 0 0 0 0 0 0 0 0 0 0 0 0 0 0 0 0 0
102 52 59 30 0 0 0 2 2 15 0 0 0 0 0 0 1 0 0 0 0 0 0 0 0 0 15 5 2 0 0 0 0 0 0 0 0 0 0 0 0 0 0 0 0 0 0
36 36 20 4 0 0 0 0 0 0 0 0 0 0 0 0 0 0 0 0 0 0 0 0 0 3 6 11 3 0 0 0 0 0 0 0 0 0 0 0 0 0 0 0 0 0 0
30 22 12 0 0 0 0 18 56 0 0 0 0 0 0 0 0 0 0 0 0 0 0 0 0 5 8 9 0 0 0 1 0 0 0 0 0 0 0 0 0 0 0 0 0 0 0
30 26 0 0 0 0 0 56 0 0 0 0 0 0 0 0 0 0 0 0 0 0 0 0 0 6 6 4 0 0 0 0 0 0 0 3 1 0 0 0 0 0 0 0 0 0 0
16 8 0 2 0 0 0 0 0 1 0 0 0 0 0 0 0 0 0 0 0 0 0 0 0 0 8 0 0 0 0 0 0 0 0 0 0 0 0 0 0 0 0 0 0 0 0
8 0 0 0 0 0 0 0 0 0 0 0 0 0 0 0 0 0 0 0 0 0 0 0 0 0 0 0 0 0 0 0 0 0 0 0 0 0 0 0 0 0 0 0 0 0 0
0 0 0 0 0 0 0 0 0 0 0 0 0 0 0 0 0 0 0 0 0 0 0 0 0 0 0 0 0 0 0 0 0 0 0 0 0 0 0 0 0 0 0 0 0 0 0

GFSGBSN_con_mucape_093.txt.gz
CAPE
0 20 19 19 19 15 15 13 12 11 16 0 2 0 31 42 18 15 1 11 4 6 16 6 25 32 0 0 0 0 0 0 0 1 0 0 0 3 0 0 6 47 0 64 66 67 145
0 0 38 40 33 26 20 18 20 19 26 18 1 11 0 30 73 36 4 8 14 6 15 29 12 22 0 0 0 0 0 0 0 4 3 2 2 20 1 3 41 56 66 45 91 97 119
0 0 0 41 44 48 30 23 22 19 18 16 0 5 13 6 44 27 31 10 3 8 18 23 9 17 0 0 0 0 0 0 2 17 24 16 5 2 23 17 32 0 13 75 68 99 89
0 52 62 62 60 47 43 43 32 25 16 13 8 6 1 48 48 19 27 13 12 2 7 9 31 0 0 0 0 0 0 0 13 2 0 0 7 21 22 5 8 1 10 40 75 82 26
30 52 79 77 75 74 60 51 42 29 22 13 7 9 10 4 27 21 13 40 12 0 12 21 18 0 0 0 0 0 0 0 33 5 6 28 38 20 0 0 3 50 35 36 101 41 26
24 57 75 83 73 82 78 66 41 36 46 18 4 11 8 6 20 19 13 13 6 0 0 11 2 0 0 0 0 0 0 0 10 1 0 9 0 0 0 0 14 1 28 81 70 42 0
35 69 71 69 76 68 75 68 72 59 41 29 4 5 4 6 9 20 14 7 3 0 0 0 0 0 0 0 0 0 0 0 13 7 0 0 0 0 0 0 9 25 39 114 133 40 8
50 55 64 67 75 73 72 75 65 66 38 49 1 5 2 44 8 3 23 18 1 0 3 0 0 0 0 0 0 0 0 0 0 0 0 0 0 0 0 0 21 57 95 86 42 17 19
68 65 68 67 64 74 82 84 85 75 61 32 6 2 17 67 19 13 36 11 0 0 0 0 0 0 0 0 0 0 0 0 0 0 0 0 0 0 52 36 24 47 42 43 1 6 1
38 56 78 80 88 105 89 116 131 106 75 22 32 3 35 37 24 18 6 2 0 0 0 0 0 0 0 0 0 0 0 0 0 0 0 0 18 3 40 11 7 46 53 29 0 0 1
66 85 86 94 99 94 77 116 191 203 110 31 35 19 27 18 23 21 3 0 0 0 0 0 0 0 0 0 0 0 0 0 0 9 0 20 27 22 0 7 27 42 60 38 0 2 0
71 83 91 98 100 118 114 203 82 233 75 58 31 40 27 57 25 12 20 0 0 1 0 0 0 0 0 0 2 0 0 0 0 3 1 7 5 6 14 53 38 25 27 36 13 0 0
60 88 101 106 117 147 234 97 19 77 100 71 42 43 31 43 14 22 18 1 13 0 0 0 0 0 0 0 1 0 0 0 0 12 7 0 11 12 19 11 35 9 0 0 0 0 0
102 94 96 107 136 185 239 72 96 94 119 90 56 36 13 0 36 23 19 0 2 0 0 0 0 0 0 0 0 0 0 0 0 0 0 0 0 1 2 8 9 0 0 0 0 0 0
103 100 99 150 179 277 43 131 104 133 177 112 55 6 15 12 49 16 9 0 1 0 0 0 0 0 0 0 0 0 0 0 0 0 7 0 14 0 3 4 3 17 3 0 0 0 0
105 131 141 163 240 242 36 83 91 114 150 95 25 8 1 60 20 20 0 0 0 0 0 0 0 0 0 0 0 0 0 0 0 2 0 0 54 5 33 0 0 1 1 1 1 0 0
126 141 174 198 288 169 107 48 66 95 86 9 4 2 16 5 38 6 0 0 0 0 0 0 0 0 0 0 0 0 0 0 3 2 0 1 1 2 5 0 0 0 0 0 0 0 0
83 153 190 218 206 126 70 43 47 59 42 0 6 0 2 0 1 0 0 0 0 0 0 0 0 0 0 0 0 0 0 0 0 0 0 0 0 1 0 0 0 0 0 0 0 0 0
245 231 206 115 141 65 26 38 67 56 19 0 0 0 3 0 0 0 0 0 0 0 0 0 0 0 0 0 0 0 0 0 3 0 0 0 0 0 0 0 0 0 0 0 0 0 0
175 201 172 132 61 83 58 41 53 0 0 0 24 0 1 0 0 0 0 0 0 7 4 11 9 0 0 0 0 0 0 0 2 0 0 0 0 0 0 0 0 0 0 0 0 0 0
96 92 46 42 46 30 5 0 0 2 17 31 0 0 0 0 0 0 0 0 0 0 25 22 15 0 0 0 0 0 0 0 0 0 0 0 0 0 0 0 0 0 0 0 0 0 0
47 50 34 32 0 0 0 0 1 8 57 0 0 0 0 0 0 0 0 0 0 0 0 0 2 0 0 0 0 0 0 0 0 0 0 0 0 0 0 0 0 0 0 0 0 0 0
25 24 15 0 0 1 0 1 43 16 0 6 0 0 0 0 0 0 0 0 0 0 9 5 0 0 1 0 0 0 0 0 0 0 0 0 0 0 0 0 0 0 0 0 0 0 0
22 21 17 0 0 0 0 0 73 11 1 0 0 0 0 0 0 0 0 0 0 0 0 2 0 6 5 2 0 0 0 0 0 0 0 0 0 0 0 0 0 0 0 0 0 0 0
2 8 5 0 0 0 0 31 7 0 1 0 0 0 0 0 0 0 0 0 0 0 0 0 0 10 7 9 0 0 0 0 0 0 0 0 0 0 0 0 0 0 0 0 0 0 0
0 0 0 1 0 1 0 0 0 0 0 0 0 0 0 0 0 0 0 0 0 0 0 0 0 9 10 6 0 0 0 0 0 0 0 0 0 0 0 0 0 0 0 0 0 0 0
9 0 0 3 0 0 0 0 0 0 0 0 0 0 0 0 0 0 0 0 0 0 0 0 0 5 15 0 0 0 0 0 0 0 0 0 0 0 0 0 0 0 0 0 0 0 0
0 0 0 3 0 0 0 0 0 0 0 0 0 0 0 0 0 0 0 0 0 0 0 0 0 0 0 0 0 0 0 0 0 0 0 0 0 0 0 0 0 0 0 0 0 0 0
0 0 0 4 0 0 0 0 0 0 0 0 0 0 0 0 0 0 0 0 0 0 0 0 0 0 0 0 0 0 0 0 0 0 0 0 0 0 0 0 0 0 0 0 0 0 0

GFSGBSN_con_mucape_096.txt.gz
CAPE
0 0 0 0 34 47 33 36 26 23 27 26 16 17 0 19 25 41 31 11 21 15 0 0 0 7 0 0 0 0 0 0 0 0 0 0 14 0 0 0 21 1 0 0 1 0 26
0 0 0 0 59 68 56 35 30 30 25 24 24 19 0 2 14 54 50 36 25 19 23 10 0 2 0 0 0 0 0 0 0 0 0 8 1 12 1 40 44 10 16 5 2 3 65
0 0 0 66 77 65 68 64 57 42 29 32 21 16 11 3 1 64 43 31 15 43 18 14 0 0 0 0 0 0 0 0 0 5 16 21 22 3 18 7 26 26 23 30 63 15 100
0 0 0 58 60 73 79 72 63 68 59 33 21 11 10 2 2 85 44 22 30 12 23 2 7 0 0 0 0 0 0 0 28 7 0 16 4 4 6 20 15 0 0 29 25 62 103
0 0 52 81 78 70 78 84 70 61 54 46 16 6 6 0 5 49 42 4 19 38 12 9 0 0 0 0 0 0 0 0 28 20 24 10 16 28 16 12 0 0 127 31 93 97 159
0 59 74 77 74 96 92 92 100 86 72 63 4 2 3 0 10 37 43 25 38 10 3 0 0 1 0 0 0 0 0 0 9 4 7 11 6 2 0 0 0 48 114 93 97 143 121
0 10 65 77 88 93 106 107 104 108 94 74 16 0 1 5 36 30 29 33 24 14 16 5 0 1 0 0 0 0 0 4 21 44 0 0 0 0 0 0 0 0 44 85 104 114 90
0 50 72 71 77 88 108 100 104 96 91 85 31 2 1 10 121 49 46 35 2 1 4 0 0 0 0 0 0 0 0 6 2 18 17 0 0 16 0 0 0 10 48 92 118 57 16
0 43 52 74 89 109 119 120 102 98 118 111 35 12 0 97 58 47 40 13 0 6 5 0 0 0 0 0 0 0 0 0 0 3 12 9 3 0 22 11 30 100 19 68 26 37 6
0 30 47 78 104 116 124 124 121 133 140 190 60 19 3 90 40 42 14 23 3 3 0 0 2 0 0 0 0 0 0 0 0 1 0 3 0 19 18 14 80 45 15 62 0 11 0
0 0 48 86 134 128 115 146 173 157 76 84 102 58 30 22 71 14 4 21 2 1 0 0 0 0 0 0 0 0 0 0 0 0 10 12 30 36 6 17 27 48 73 0 0 0 30
0 52 121 139 152 131 144 201 178 2 13 49 56 52 40 107 69 27 10 0 1 0 0 0 0 0 0 0 8 0 0 0 0 5 3 13 0 10 17 9 0 89 57 24 73 33 0
0 61 129 162 161 192 254 316 114 61 1 47 67 70 58 39 47 19 12 1 0 0 0 0 0 0 0 0 8 0 0 0 8 105 45 3 1 2 33 3 7 11 62 0 0 36 0
24 107 137 227 189 287 197 106 50 117 59 64 63 65 64 36 79 28 13 1 0 0 0 0 0 0 0 0 0 0 0 0 0 3 7 3 11 0 0 0 0 1 0 0 0 0 0
67 97 224 96 203 254 209 72 75 46 82 47 59 154 142 102 52 39 3 0 0 0 0 0 0 0 0 0 0 0 0 0 0 0 25 5 3 0 0 0 0 0 0 0 0 5 0
75 184 292 238 117 207 49 0 76 42 95 41 144 59 5 99 56 30 5 0 0 1 0 0 0 0 0 0 0 0 0 0 11 0 0 0 25 2 8 0 3 0 0 0 0 0 0
70 155 186 247 134 141 62 83 81 101 75 0 40 33 11 77 41 4 0 0 0 0 1 0 0 0 0 0 0 0 0 0 0 3 0 0 2 5 2 14 1 1 1 0 0 0 0
50 79 75 85 71 84 70 88 70 73 2 0 16 0 0 2 2 1 0 0 0 0 8 0 0 0 0 0 0 0 0 0 0 0 0 0 0 0 0 0 0 0 0 0 0 0 0
44 71 53 52 58 32 45 29 47 48 0 0 0 0 0 0 0 0 0 0 0 4 18 0 18 0 0 0 0 0 0 0 0 0 0 0 0 11 5 0 0 0 0 0 0 0 0
35 38 64 67 72 0 18 0 1 32 0 0 0 0 0 0 0 0 0 0 0 3 5 24 13 0 0 0 0 0 0 0 0 0 0 0 0 0 0 0 0 0 0 0 0 4 0
30 28 32 24 0 0 8 0 0 0 0 0 0 0 0 0 0 0 0 0 0 0 18 18 3 0 0 0 0 0 0 0 0 0 0 0 0 0 0 0 0 0 0 0 0 0 0
24 20 17 0 3 4 0 26 31 33 4 0 0 0 0 0 0 0 0 0 0 0 6 0 0 1 0 0 0 0 0 0 0 0 0 0 0 0 0 0 0 0 0 0 0 0 0
22 15 17 0 0 0 44 66 22 17 13 0 0 0 0 0 0 0 0 0 0 0 7 3 21 4 0 0 0 0 0 0 0 0 0 0 0 0 0 0 0 0 0 0 0 0 0
13 0 0 0 1 2 9 52 47 0 0 0 0 0 0 0 0 0 0 0 0 0 0 5 7 0 0 0 0 0 0 0 0 0 0 0 0 0 0 0 0 0 0 0 0 0 0
0 0 0 0 6 0 7 12 0 0 1 0 0 0 0 0 0 0 0 0 0 0 0 6 0 1 1 0 0 0 0 0 0 0 0 0 0 0 0 0 0 0 0 0 0 0 0
0 0 0 1 0 6 3 2 0 0 0 0 0 0 0 0 0 0 0 0 0 0 0 0 13 1 4 2 0 0 0 0 0 0 0 0 0 0 0 0 0 0 0 0 0 0 0
0 0 7 0 0 0 1 0 0 0 0 0 0 0 0 0 0 0 0 0 0 0 0 0 13 5 11 0 0 0 0 0 0 0 0 0 0 0 0 0 0 0 0 0 0 0 0
0 0 0 0 0 0 0 0 0 0 0 0 0 0 0 0 0 0 0 0 0 0 0 0 1 1 0 0 0 0 0 0 0 0 0 0 0 0 0 0 0 0 0 0 0 0 0
0 0 0 0 0 0 0 0 0 0 0 0 0 0 0 0 0 0 0 2 0 0 0 0 0 0 0 0 0 0 0 0 0 0 0 0 0 0 0 0 0 0 0 0 0 0 0

GFSGBSN_con_mucape_099.txt.gz
CAPE
0 0 0 0 0 62 63 26 27 12 5 27 41 31 26 25 10 20 59 53 45 21 13 3 1 3 0 0 0 0 0 0 0 0 4 8 0 0 0 0 3 0 2 5 1 0 2
0 0 0 0 0 51 65 67 65 56 45 23 1 22 17 13 10 8 56 62 39 23 3 0 9 0 2 0 0 0 0 0 0 0 11 8 0 0 0 36 22 23 28 18 9 4 2
0 0 0 0 0 53 67 69 79 77 73 55 18 6 9 9 8 2 31 67 41 33 13 17 11 2 1 0 0 0 0 0 0 2 20 11 16 3 26 19 4 28 27 26 7 10 14
0 0 0 32 71 63 73 76 101 86 87 75 40 11 4 4 3 0 80 65 68 35 7 23 2 0 0 0 0 0 0 0 0 3 8 9 28 26 0 15 21 3 0 0 0 10 18
0 0 0 0 50 83 99 115 107 113 110 85 73 46 8 0 2 9 83 44 45 12 0 9 5 0 0 0 0 0 0 0 17 22 19 5 30 5 0 0 17 10 0 0 0 21 49
0 0 0 0 11 89 101 124 137 144 125 114 97 98 25 0 0 36 51 35 36 12 7 0 0 1 0 0 0 0 0 0 6 38 26 3 0 13 30 1 0 9 21 27 126 36 32
0 0 0 0 58 72 118 123 131 160 164 162 127 107 50 9 0 37 40 35 36 1 0 0 0 0 0 0 0 0 0 0 9 21 32 25 18 0 0 0 0 2 0 0 21 0 27
67 11 17 39 65 87 107 136 175 182 203 180 190 141 37 23 276 211 37 48 16 4 0 0 2 2 0 0 0 0 0 3 12 9 34 18 0 0 2 0 4 16 10 0 102 89 20
73 63 56 29 100 112 156 205 245 269 282 217 179 101 35 39 120 61 46 24 11 0 2 0 0 0 0 0 0 0 0 3 4 11 17 4 17 21 9 0 8 10 10 33 62 47 64
130 84 0 21 90 141 234 263 249 266 301 234 96 129 25 166 96 45 1 3 1 7 3 0 0 0 0 0 0 0 0 3 0 6 18 23 18 24 24 9 10 61 29 0 8 19 0
93 0 9 35 102 198 256 217 242 140 118 97 22 64 33 17 165 111 30 27 19 1 0 0 0 0 0 0 0 0 0 6 1 13 16 35 26 27 41 59 27 42 26 0 0 0 20
0 2 19 79 144 213 190 272 90 67 56 10 49 70 48 31 87 124 38 13 6 0 0 0 0 0 0 8 1 0 0 0 5 10 12 8 17 15 37 16 8 1 0 0 0 13 52
5 13 39 128 192 147 52 276 86 0 57 25 18 50 22 22 64 115 33 6 1 0 0 0 0 0 0 16 23 2 0 13 11 168 15 27 21 7 7 0 2 40 0 0 0 0 0
1 14 67 95 79 140 100 19 63 23 39 52 80 35 7 8 77 19 4 0 0 0 0 0 0 0 0 0 19 6 1 17 0 7 40 31 5 1 0 0 6 8 0 0 0 1 0
6 42 69 67 63 68 36 23 64 70 39 79 43 137 79 42 46 17 0 0 0 0 1 0 0 0 0 0 0 0 0 20 20 21 0 0 0 0 0 0 0 24 0 0 0 0 0
23 39 41 67 56 36 65 72 77 74 62 42 231 141 57 49 71 32 5 0 0 0 0 0 0 9 0 0 0 0 6 5 26 0 3 33 90 0 0 0 0 0 0 0 11 0 0
45 34 47 72 64 37 43 42 65 62 3 0 117 35 44 91 35 30 0 0 0 0 0 0 0 3 0 0 0 15 6 0 3 17 0 0 0 0 0 0 0 2 0 0 0 0 0
52 34 50 61 48 49 58 17 57 27 0 2 36 16 15 47 0 0 0 0 0 5 0 8 15 9 0 0 5 18 14 10 1 0 0 0 0 4 3 6 0 0 0 0 0 0 0
45 29 31 5 0 0 0 0 43 0 0 6 0 0 34 2 0 0 0 0 0 5 25 29 27 23 0 26 10 4 19 0 0 0 0 0 0 5 0 0 0 0 0 0 0 0 0
44 15 20 3 0 4 5 0 0 0 0 1 0 0 0 0 0 0 0 0 0 0 6 7 17 1 0 13 1 9 13 0 0 0 0 0 0 0 0 0 0 0 0 0 0 1 0
32 13 2 0 2 0 23 13 7 0 0 0 0 0 0 0 0 0 0 0 0 0 10 14 15 13 24 3 0 3 0 0 0 0 0 0 0 0 0 0 0 0 0 0 0 0 0
16 0 0 0 0 0 12 44 20 0 0 0 0 0 0 0 0 0 0 0 0 0 0 23 0 12 19 0 2 0 0 0 0 0 0 0 5 0 0 0 0 0 0 0 0 0 0
11 0 0 0 0 0 15 1 16 9 0 0 0 0 0 0 0 0 0 0 0 0 0 0 12 12 11 0 0 0 0 0 0 0 0 0 0 0 0 0 0 0 0 0 0 0 0
0 0 0 0 0 0 0 2 6 1 0 0 0 0 0 0 0 0 0 0 0 0 0 0 8 19 0 0 0 0 0 0 0 0 0 0 0 0 0 0 0 0 0 0 0 0 0
0 0 0 0 0 0 0 0 0 0 0 0 0 0 0 0 0 0 0 0 0 0 0 0 0 0 0 0 6 0 0 0 0 0 0 0 0 0 0 0 0 0 0 0 0 0 0
0 0 0 9 3 0 0 0 0 0 0 0 0 0 0 0 0 0 0 0 0 0 0 0 0 1 0 0 0 0 0 0 0 0 0 0 0 0 0 0 0 0 0 0 0 0 0
0 0 0 0 0 0 8 0 0 0 0 0 0 0 0 0 0 0 0 0 0 0 0 0 1 3 3 0 0 0 0 0 0 0 0 0 0 0 0 0 0 0 0 0 0 0 0
0 0 0 0 0 0 0 0 0 0 0 0 0 0 0 0 0 0 0 0 0 0 0 0 0 0 0 0 0 0 0 0 0 0 0 0 0 0 0 0 0 0 0 0 0 0 0
0 0 0 0 0 0 0 0 0 0 0 0 0 0 0 0 0 0 0 0 0 0 0 0 0 0 0 0 0 0 0 0 0 0 0 0 0 0 0 0 0 0 0 0 0 0 0

GFSGBSN_con_mucape_102.txt.gz
CAPE
0 0 0 0 0 0 0 47 54 65 59 64 59 53 17 21 20 13 12 24 34 51 40 17 8 14 1 0 0 0 0 0 0 0 0 0 0 0 0 0 0 0 0 0 0 0 0
0 0 0 0 0 0 63 55 52 51 75 73 69 63 45 12 17 8 6 15 47 52 50 30 13 4 0 0 0 0 0 0 0 0 0 5 0 0 0 0 0 0 0 0 3 6 0
0 0 0 0 0 0 40 65 72 61 63 83 95 97 54 28 13 4 1 10 135 34 44 45 6 15 3 0 0 0 0 0 0 0 4 6 5 0 0 0 3 8 0 0 0 1 0
0 0 0 0 0 21 14 37 71 93 97 88 86 104 92 55 12 1 2 131 103 70 25 12 10 8 32 0 0 0 0 0 0 0 1 3 4 4 0 0 0 0 0 0 0 0 0
64 68 48 29 29 21 19 71 76 83 113 88 49 91 112 78 22 0 120 113 77 84 14 4 3 23 8 0 0 0 0 0 1 13 11 6 8 0 0 0 0 0 0 0 0 0 0
98 102 89 75 80 27 3 80 112 156 142 98 61 58 120 99 21 3 68 47 51 54 1 6 0 0 0 0 0 0 0 0 3 24 25 8 2 0 0 0 0 0 0 0 0 1 0
147 160 123 79 0 3 13 96 101 104 250 292 240 130 140 108 33 161 61 26 28 0 31 0 2 3 0 0 0 0 0 0 2 6 0 6 11 0 0 0 0 0 0 0 0 3 0
158 167 6 1 0 44 94 141 190 166 63 183 229 178 112 77 231 299 41 30 33 1 0 0 0 0 0 0 0 0 0 0 4 0 19 3 0 0 1 0 0 11 0 0 0 35 0
169 0 13 20 36 52 184 210 248 217 116 173 211 162 85 63 165 77 28 16 8 30 13 7 0 2 0 0 0 0 0 1 0 5 6 11 0 0 0 1 15 0 0 0 0 0 11
0 0 12 38 47 80 83 171 279 161 49 25 5 38 53 49 12 101 0 4 17 16 1 0 0 0 0 0 0 1 0 6 2 0 7 3 0 0 21 31 33 0 13 20 0 0 5
52 13 43 47 18 58 90 70 74 202 30 8 3 40 87 24 118 91 54 38 12 2 0 0 0 0 0 0 0 0 0 4 0 8 1 0 21 2 0 19 14 0 0 0 0 0 0
1 29 47 23 26 42 64 108 7 1 2 10 13 8 25 11 45 84 22 14 8 0 0 0 0 0 0 1 0 0 0 0 0 2 3 0 0 7 24 21 9 0 0 0 1 0 0
2 34 32 27 71 75 35 93 42 9 0 0 28 18 14 35 84 79 20 3 0 0 0 0 0 0 5 0 8 0 0 0 2 1 0 5 4 17 2 0 0 0 0 1 0 0 0
4 31 44 73 57 73 95 141 81 34 63 45 17 8 1 28 69 24 1 0 0 0 0 0 0 0 0 12 10 0 0 0 0 1 0 5 0 0 1 0 0 0 0 0 0 0 1
12 23 50 65 32 28 75 105 56 34 15 17 5 63 53 54 65 18 0 0 0 0 0 0 14 0 0 0 0 0 0 2 22 9 51 0 0 0 0 0 3 0 0 0 0 0 1
14 19 39 47 29 20 6 14 13 4 5 0 136 63 39 55 22 1 0 0 0 0 0 2 0 3 0 0 0 0 0 10 18 4 0 9 0 0 0 0 0 0 0 0 0 0 0
16 16 23 0 0 0 16 3 0 0 0 0 38 7 47 56 8 0 0 0 0 0 0 5 0 0 0 0 1 7 11 15 2 8 0 0 0 0 0 4 0 0 0 0 0 0 0
21 24 11 0 0 0 0 0 0 0 0 0 17 0 42 35 0 0 0 0 0 0 0 2 31 10 0 0 4 12 19 12 1 0 0 0 0 0 0 0 0 0 0 0 0 0 0
17 19 0 0 0 0 0 0 0 0 0 2 0 0 19 20 0 0 0 0 0 3 19 10 8 0 0 11 0 10 6 0 0 0 0 0 0 0 0 0 0 0 0 0 0 0 0
22 0 0 0 0 0 0 6 6 0 0 0 0 0 0 0 0 0 0 0 0 0 10 2 0 0 13 0 0 0 0 0 0 0 0 0 0 0 0 0 0 0 0 0 0 0 0
0 0 0 0 0 30 45 32 6 0 0 0 0 0 0 0 0 0 0 0 0 0 6 0 0 0 8 0 0 1 0 0 0 0 0 0 0 0 0 0 0 0 0 0 0 0 0
0 0 0 0 0 37 30 39 19 0 0 0 0 0 0 0 0 0 0 0 0 0 0 0 0 0 0 0 2 0 0 0 0 0 0 0 0 0 0 0 0 0 0 0 0 0 0
0 0 0 0 23 31 14 22 33 0 0 0 0 0 0 0 0 0 0 0 0 0 0 0 0 0 0 0 0 0 0 0 0 0 0 0 0 0 0 0 0 0 0 0 0 0 0
0 0 0 0 22 8 0 4 17 0 0 0 0 0 0 0 0 0 0 0 0 0 0 0 0 0 0 0 0 0 0 0 0 0 0 0 0 0 0 0 0 0 0 0 0 0 0
0 0 0 0 21 0 1 5 0 0 0 0 0 0 0 0 0 0 0 0 0 0 0 0 0 0 0 0 0 0 0 0 0 0 0 0 0 0 0 0 0 0 0 0 0 0 0
0 0 0 0 0 0 0 0 0 0 0 0 0 0 0 0 0 0 0 0 0 0 0 0 0 0 0 0 0 0 0 0 0 0 0 0 0 0 0 0 0 0 0 0 0 0 0
0 0 0 0 0 0 0 0 0 0 0 0 0 0 0 0 0 0 0 0 0 0 0 0 0 0 0 0 0 0 0 0 0 0 0 0 0 0 0 0 0 0 0 0 0 0 0
0 0 0 0 0 0 0 0 0 0 0 0 0 0 0 0 0 0 0 0 0 0 0 0 0 0 0 0 0 0 0 0 0 0 0 0 0 0 0 0 0 0 0 0 0 0 0
0 0 0 0 0 0 0 0 0 0 0 0 0 0 0 0 0 0 0 0 0 0 0 0 0 0 0 0 0 0 0 0 0 0 0 0 0 0 0 0 0 0 0 0 0 0 0

GFSGBSN_con_mucape_105.txt.gz
CAPE
0 0 0 0 0 0 23 19 76 98 114 108 107 115 92 86 55 21 17 10 12 30 101 54 39 18 6 0 0 0 0 15 0 0 0 0 0 0 0 0 0 0 0 0 0 0 0
66 68 63 62 48 50 49 48 21 58 102 139 131 117 108 81 70 37 12 4 7 41 147 27 42 14 3 0 0 0 0 0 0 0 0 0 0 0 0 0 0 0 0 0 0 0 0
94 77 86 93 81 58 47 32 32 59 80 114 152 147 110 53 72 52 21 9 12 131 157 16 30 16 7 0 0 0 0 0 0 0 0 14 10 0 0 0 0 0 0 0 0 0 0
99 131 147 164 171 116 82 40 31 28 155 145 138 120 92 65 82 39 22 158 207 170 101 35 99 40 0 0 0 0 0 0 0 0 4 3 0 4 0 0 0 0 0 0 0 0 0
147 175 234 309 65 8 17 80 34 99 182 172 137 186 80 51 85 23 20 85 209 89 55 36 1 1 6 0 0 0 0 0 0 2 7 8 3 4 0 0 0 0 0 0 0 0 0
160 130 5 36 20 43 38 49 89 172 263 213 0 66 33 25 72 34 40 66 109 104 23 18 2 2 0 0 0 0 0 0 0 45 37 9 0 0 0 0 0 0 0 0 0 0 5
18 66 9 12 21 58 69 51 64 166 248 162 104 158 68 72 68 73 63 38 0 10 18 3 0 0 0 1 0 0 0 0 5 26 0 8 0 0 0 0 0 0 0 0 0 0 0
64 32 17 40 59 64 54 84 136 136 229 105 125 164 71 77 80 329 26 28 6 0 0 0 0 0 1 0 0 0 0 0 0 0 0 0 0 0 0 0 0 0 0 0 0 0 2
70 6 58 49 86 100 101 116 170 145 147 34 26 30 24 14 22 63 21 16 1 8 0 0 0 0 2 0 0 0 0 0 0 0 0 0 0 0 0 0 0 0 0 0 0 0 0
2 31 71 62 86 65 114 27 15 41 104 19 1 25 7 6 0 0 0 4 9 10 0 0 0 0 0 0 0 0 0 0 0 0 0 0 0 0 0 2 15 2 0 0 0 0 0
0 50 46 58 81 90 163 87 18 40 17 16 1 22 0 3 4 27 11 0 6 12 0 0 0 0 0 0 0 0 0 0 0 0 2 0 16 2 0 0 6 0 0 0 0 0 0
8 44 57 34 41 122 150 95 23 31 50 38 9 31 25 0 6 17 18 6 0 0 0 0 0 0 0 0 0 1 0 0 0 0 0 0 0 0 0 1 8 2 0 0 0 0 0
12 40 60 38 16 64 97 60 31 47 21 36 30 28 5 23 11 4 0 0 0 0 0 0 0 0 5 0 0 0 0 0 0 0 0 0 0 2 7 0 0 0 0 2 1 0 0
12 37 45 31 14 37 40 41 13 1 3 18 15 17 0 6 0 0 0 0 0 0 0 0 0 6 17 3 13 0 0 0 0 0 0 0 0 0 0 0 0 0 0 0 0 0 0
13 33 0 20 16 28 19 29 4 0 0 0 0 0 0 0 0 0 0 0 0 0 0 0 3 0 0 0 0 0 0 0 6 0 0 0 0 0 0 0 0 0 0 0 0 0 1
10 0 0 30 22 24 25 21 18 0 0 0 0 0 1 2 0 0 0 0 0 0 3 18 0 0 0 0 0 0 0 7 18 12 0 0 0 0 0 0 0 0 0 0 0 0 0
0 0 0 0 31 41 28 0 13 7 0 0 0 0 0 0 0 0 0 0 0 1 0 7 0 0 0 3 2 0 0 0 0 0 0 0 0 0 0 0 0 0 0 0 0 0 0
0 0 0 0 0 32 41 27 0 0 0 0 0 0 0 0 0 0 0 0 0 0 0 0 5 0 0 0 3 0 0 0 0 0 0 0 0 0 0 0 0 0 0 0 0 0 0
0 0 0 0 33 49 42 59 32 0 0 0 0 0 0 0 0 0 0 0 0 2 0 0 0 0 0 0 0 0 0 0 0 0 0 0 0 0 0 0 0 0 0 0 0 0 0
0 0 0 0 0 33 49 39 19 0 0 0 0 0 0 0 0 0 0 0 0 0 0 0 0 0 3 0 0 0 0 0 0 0 0 0 0 0 0 0 0 0 0 0 0 0 0
0 0 0 0 17 31 37 32 10 0 0 0 0 0 0 0 0 0 0 0 0 0 0 0 0 0 0 0 0 0 0 0 0 0 0 0 0 0 0 0 0 0 0 0 0 0 0
0 0 0 0 17 31 27 4 4 0 0 0 0 0 0 0 0 0 0 0 0 0 0 0 0 0 0 0 0 0 0 0 0 0 0 0 0 0 0 0 0 0 0 0 0 0 0
0 0 0 0 13 9 0 0 0 0 0 0 0 0 0 0 0 0 0 0 0 0 0 0 0 0 0 0 0 0 0 0 0 0 0 0 0 0 0 0 0 0 0 0 0 0 0
0 0 0 0 26 0 2 6 0 0 0 0 0 0 0 0 0 0 0 0 0 0 0 0 0 0 0 0 0 0 0 0 0 0 0 0 0 0 0 0 0 0 0 0 0 0 0
0 0 0 0 25 0 0 1 0 0 0 0 1 0 0 0 0 0 0 0 0 0 0 0 0 0 0 0 0 0 0 0 0 0 0 0 0 0 0 0 0 0 0 0 0 0 0
0 0 0 0 0 0 0 0 0 0 0 0 0 0 0 0 0 0 0 0 0 0 0 0 0 0 0 0 0 0 0 0 0 0 0 0 0 0 0 0 0 0 0 0 0 0 0
0 0 0 0 0 0 0 0 0 0 0 0 0 0 0 0 0 0 0 0 0 0 0 0 0 0 0 0 0 0 0 0 0 0 0 0 0 0 0 0 0 0 0 0 0 0 0
0 0 0 0 0 0 0 0 0 0 0 0 0 0 0 0 0 0 0 0 0 0 0 0 0 0 0 0 0 0 0 0 0 0 0 0 0 0 0 0 0 0 0 0 0 0 0
0 0 0 0 0 0 0 0 0 0 0 0 0 0 0 0 0 0 0 0 0 0 0 0 0 0 0 0 0 0 0 0 0 0 0 0 0 0 0 0 0 0 0 0 0 0 0

GFSGBSN_con_mucape_108.txt.gz
CAPE
95 123 135 157 177 187 144 91 67 66 98 120 157 199 177 163 163 105 50 24 1 0 22 89 60 41 30 3 2 0 3 10 0 0 0 0 0 0 0 0 0 0 0 0 0 0 0
121 145 169 222 256 275 223 172 120 90 49 34 105 173 170 164 133 137 46 23 7 3 55 158 47 59 22 4 0 0 0 0 0 0 0 0 0 0 0 0 0 0 0 0 0 0 0
106 143 143 63 45 27 12 133 161 39 171 79 147 141 154 139 112 113 35 15 14 59 55 116 61 29 13 0 0 0 0 0 0 0 0 0 0 0 0 0 0 0 0 0 0 0 0
145 57 111 103 123 117 106 80 92 99 91 112 97 103 99 208 103 74 8 1 122 160 82 94 104 6 0 6 4 1 0 0 0 0 1 4 1 0 0 0 0 0 0 0 0 0 0
51 141 90 25 69 107 138 145 122 106 132 174 182 112 76 18 53 64 6 4 223 261 211 125 41 10 0 3 4 5 0 0 0 3 7 22 0 0 0 0 0 0 0 0 0 0 0
135 103 24 107 125 205 228 223 249 185 175 232 65 45 62 8 29 59 67 1 115 112 57 10 6 0 0 0 1 0 0 0 0 0 0 0 0 0 0 0 0 0 0 0 0 0 0
111 15 104 92 144 200 214 147 326 227 186 150 110 97 32 52 78 57 68 4 14 55 9 0 0 0 0 0 0 0 0 0 0 0 0 0 0 0 0 0 0 0 0 0 0 0 0
9 44 74 107 159 216 211 151 108 126 150 54 48 62 99 59 225 265 29 0 6 1 0 0 0 0 10 3 3 0 0 0 0 0 0 0 0 0 0 0 0 0 0 0 0 0 0
8 52 63 110 145 207 202 93 113 37 112 40 17 3 24 32 44 24 17 9 1 0 0 0 0 0 0 0 0 0 0 0 0 0 0 0 0 0 0 0 0 0 0 0 0 0 0
18 38 79 91 105 169 132 59 135 84 20 15 20 7 12 18 1 0 2 17 0 0 0 0 0 0 0 0 0 0 0 0 0 0 0 0 0 0 0 0 0 0 0 0 0 0 0
31 34 42 70 48 111 107 57 84 85 35 45 36 11 22 0 3 20 3 0 0 0 3 0 0 0 0 0 0 0 0 0 0 0 0 0 0 13 0 0 9 0 0 0 0 0 0
35 4 37 44 27 26 62 60 29 39 23 34 33 2 3 0 0 0 3 0 0 1 0 0 0 0 0 0 0 0 0 0 0 0 0 0 0 0 0 2 8 2 0 0 0 0 1
0 0 37 28 22 15 39 38 28 14 4 2 2 1 0 0 0 0 0 0 0 0 0 0 0 0 0 0 0 0 0 0 0 0 0 0 0 0 3 0 0 0 0 0 0 0 0
0 0 0 24 31 7 11 30 41 22 1 12 3 0 0 0 0 0 0 0 0 0 0 0 0 0 0 0 0 0 0 0 0 0 0 0 0 0 0 0 0 0 0 0 0 0 0
0 0 0 7 18 42 5 0 7 9 10 10 0 0 0 0 0 0 0 0 0 0 0 0 6 0 0 0 0 0 0 0 0 0 0 0 0 0 0 0 0 0 0 0 0 0 0
0 0 0 0 3 15 38 4 0 0 4 8 0 0 0 0 0 0 0 0 0 0 0 0 0 0 0 0 0 0 0 8 7 0 0 0 0 0 0 0 0 0 0 0 0 0 0
0 0 0 0 0 3 24 33 2 0 0 0 0 0 0 0 0 0 0 0 3 1 0 0 0 0 0 0 0 0 0 0 0 0 0 0 0 0 0 0 0 0 0 0 0 0 0
0 0 0 0 1 0 2 16 4 0 0 0 0 0 0 0 0 0 0 0 0 0 0 0 0 0 0 0 0 0 0 0 0 0 0 0 0 0 0 0 0 0 0 0 0 0 0
0 0 0 0 11 0 0 0 4 0 0 0 0 0 0 0 0 0 0 0 0 0 0 0 0 0 0 0 0 0 0 0 0 0 0 0 0 0 0 0 0 0 0 0 0 0 1
0 0 0 0 0 22 8 0 0 0 0 0 0 0 0 0 0 0 0 0 0 0 0 0 0 0 0 0 0 0 0 0 0 0 0 0 0 0 0 0 0 0 0 0 0 0 0
0 0 0 0 0 2 21 0 0 0 0 0 0 0 0 0 0 0 0 0 0 0 0 0 0 0 0 0 0 0 0 0 0 0 0 0 0 0 0 0 0 0 0 0 0 0 0
0 0 0 0 0 0 0 0 0 0 0 0 0 0 0 0 0 0 0 0 0 0 0 0 0 0 0 0 0 0 0 0 0 0 0 0 0 0 0 0 0 0 0 0 0 0 0
0 0 0 0 0 0 0 0 0 0 0 0 0 0 0 0 0 0 0 0 0 0 0 0 0 0 0 0 0 0 0 0 0 0 0 0 0 0 0 0 0 0 0 0 0 0 0
0 0 0 0 2 0 0 0 0 0 0 0 0 0 0 0 0 0 0 0 0 0 0 0 0 0 0 0 0 0 0 0 0 0 0 0 0 0 0 0 0 0 0 0 0 0 0
0 0 0 0 0 0 0 0 0 0 0 0 0 0 0 0 0 0 0 0 0 0 0 0 0 0 0 0 0 0 0 0 0 0 0 0 0 0 0 0 0 0 0 0 0 0 0
0 0 0 0 0 0 0 0 0 0 0 0 0 0 0 0 0 0 0 0 0 0 0 0 0 0 0 0 0 0 0 0 0 0 0 0 0 0 0 0 0 0 0 0 0 0 0
0 0 0 0 0 0 0 0 0 0 0 0 0 0 0 0 0 0 0 0 0 0 0 0 0 0 0 0 0 0 0 0 0 0 0 0 0 0 0 0 0 0 0 0 0 0 0
0 0 0 0 0 0 0 0 0 0 0 0 0 0 0 0 0 0 0 0 0 0 0 0 0 0 0 0 0 0 0 0 0 0 0 0 0 0 0 0 0 0 0 0 0 0 0
0 0 0 0 0 0 0 0 0 0 0 0 0 0 0 0 0 0 0 0 0 0 0 0 0 0 0 0 0 0 0 0 0 0 0 0 0 0 0 0 0 0 0 0 0 0 0

GFSGBSN_con_mucape_111.txt.gz
CAPE
136 155 162 158 154 152 133 109 94 177 114 141 130 87 74 130 186 179 139 65 31 2 0 58 59 23 3 0 12 0 42 18 0 0 0 0 0 0 0 0 0 0 0 0 0 0 0
150 105 141 41 30 56 120 190 196 86 144 182 159 121 99 98 172 127 50 57 41 35 8 77 176 74 46 0 11 20 0 0 0 0 0 0 0 0 0 0 0 0 0 0 0 0 0
123 124 23 62 126 173 258 297 278 265 203 158 136 81 69 18 71 108 80 54 23 5 31 56 165 1 23 6 1 1 32 0 0 0 0 0 0 0 0 0 0 0 0 0 0 0 0
101 18 70 86 137 199 254 233 253 295 231 144 118 58 35 28 91 126 34 14 0 105 81 65 57 59 9 0 3 0 3 0 0 0 0 0 0 0 0 0 0 0 0 0 0 0 0
11 47 46 92 136 149 213 231 235 284 234 152 118 39 19 154 22 3 63 1 104 364 142 138 0 0 3 0 1 2 4 0 0 0 0 0 0 0 0 0 0 0 0 0 0 0 0
24 61 53 72 100 121 116 164 162 169 232 156 76 48 49 60 50 69 17 4 74 48 38 2 0 0 0 0 0 1 0 0 0 0 0 0 0 0 0 0 0 0 0 0 0 0 0
48 63 42 30 57 60 47 178 120 134 182 68 119 108 26 54 58 63 0 0 1 28 0 0 0 0 0 0 0 0 0 1 0 0 0 0 0 0 0 0 0 0 0 0 0 0 0
51 51 32 24 45 49 39 92 75 50 61 18 2 39 24 64 206 51 0 0 0 0 0 0 0 0 0 0 0 0 0 0 0 0 0 0 0 0 0 0 0 0 0 0 0 0 0
29 42 28 23 28 27 13 70 53 56 47 8 2 7 1 9 10 12 3 0 0 0 0 0 0 2 0 0 0 0 0 0 0 0 0 0 0 0 0 0 0 0 0 0 0 0 0
17 42 25 26 21 19 5 26 52 66 53 32 14 0 1 1 0 0 0 0 0 0 0 0 0 0 0 0 0 0 0 0 0 0 0 0 0 0 0 0 0 0 0 0 0 0 0
0 39 29 22 11 12 3 2 22 58 60 39 26 37 0 0 0 0 0 0 0 0 0 0 0 0 0 0 0 0 0 0 0 0 0 0 0 0 0 0 0 0 2 0 0 0 0
21 5 33 25 6 4 2 0 0 22 51 69 11 0 0 0 1 10 3 0 0 0 0 0 0 0 0 0 0 0 0 0 0 0 0 0 0 0 0 0 0 2 0 0 0 0 0
0 0 30 22 8 0 0 0 0 0 15 74 18 0 0 0 0 0 0 0 0 0 0 0 0 0 0 0 0 0 0 0 0 0 0 0 0 0 0 0 0 0 0 0 0 0 0
0 0 0 27 11 2 0 0 0 0 0 14 0 0 0 0 0 0 0 0 0 0 0 0 0 0 0 0 0 0 0 0 0 0 0 0 0 0 0 0 0 0 0 0 0 0 0
0 0 0 15 21 3 0 1 0 0 0 0 0 0 0 0 0 0 0 0 0 0 0 0 0 0 0 0 0 0 0 0 0 0 0 0 0 0 0 0 0 0 0 0 0 0 0
0 0 0 0 25 10 2 0 0 0 0 0 0 0 0 0 0 0 0 0 0 0 0 0 0 0 0 0 0 1 1 0 0 0 0 0 0 0 0 0 0 0 0 0 0 0 0
0 0 0 0 18 18 6 1 0 0 0 0 0 0 0 0 0 0 0 0 0 4 0 0 0 0 0 0 0 5 4 0 0 0 0 0 0 0 0 0 0 0 0 0 0 0 0
0 0 0 0 0 23 14 3 0 0 0 0 0 0 0 0 0 0 0 0 0 0 0 0 0 0 0 1 6 0 0 0 0 0 0 0 0 0 0 0 0 0 0 0 0 0 0
0 0 0 0 0 0 21 5 0 0 0 0 0 0 0 0 0 0 0 0 0 0 0 0 0 0 0 0 0 0 0 0 0 0 0 0 0 0 0 0 0 0 0 0 0 0 0
0 0 0 0 0 0 0 0 0 0 0 0 0 0 0 0 0 0 0 0 0 0 0 0 0 0 0 0 0 0 0 0 0 0 0 0 0 0 0 0 0 0 0 0 0 0 0
0 0 0 0 0 0 0 0 0 0 0 0 0 0 0 0 0 0 0 0 0 0 0 0 0 0 0 0 0 0 0 0 0 0 0 0 0 0 0 0 0 0 0 0 0 0 0
0 0 0 0 0 0 0 0 0 0 0 0 0 0 0 0 0 0 0 0 0 0 0 0 0 0 0 0 0 0 0 0 0 0 0 0 0 0 0 0 0 0 0 0 0 0 0
0 0 0 0 0 0 0 0 0 0 0 0 0 0 0 0 0 0 0 0 0 0 0 0 0 0 0 0 0 0 0 0 0 0 0 0 0 0 0 0 0 0 0 0 0 0 0
0 0 0 0 0 0 0 0 0 0 0 0 0 0 0 0 0 0 0 0 0 0 0 0 0 0 0 0 0 0 0 0 0 0 0 0 0 0 0 0 0 0 0 0 0 0 0
0 0 0 0 0 0 0 0 0 0 0 0 0 0 0 0 0 0 0 0 0 0 0 0 0 0 0 0 0 0 0 0 0 0 0 0 0 0 0 0 0 0 0 0 0 0 0
0 0 0 0 0 0 0 0 0 0 0 0 0 0 0 0 0 0 0 0 0 0 0 0 0 0 0 0 0 0 0 0 0 0 0 0 0 0 0 0 0 0 0 0 0 0 0
4 0 0 0 0 0 0 0 0 0 0 0 0 0 0 0 0 0 0 0 0 0 0 0 0 0 0 0 0 0 0 0 0 0 0 0 0 0 0 0 0 0 0 0 0 0 0
4 0 0 0 0 0 0 0 0 0 0 0 0 0 0 0 0 0 0 0 0 0 0 0 0 0 0 0 0 0 0 0 0 0 0 0 0 0 0 0 0 0 0 0 0 0 0
14 0 0 0 0 0 0 0 0 0 0 0 0 0 0 0 0 0 0 0 0 0 0 0 0 0 0 0 0 0 0 0 0 0 0 0 0 0 0 0 0 0 0 0 0 0 0

GFSGBSN_con_mucape_114.txt.gz
CAPE
70 5 34 81 105 149 226 264 276 282 295 145 125 90 109 129 72 103 145 117 105 43 0 0 73 114 61 0 0 5 77 23 0 0 0 0 0 0 0 0 0 0 0 0 0 0 0
3 25 43 86 84 105 147 226 298 271 274 285 120 115 53 51 4 23 67 77 81 33 10 1 77 35 28 0 25 45 44 0 0 0 0 0 0 0 0 0 0 0 0 0 0 0 0
16 52 72 68 40 37 108 169 259 270 351 211 147 45 2 20 5 28 56 47 30 3 21 27 81 0 0 0 36 44 0 0 0 0 0 0 0 0 0 0 0 0 0 0 0 0 0
35 58 48 43 33 38 149 245 192 252 310 231 74 37 36 14 11 59 82 18 7 0 31 55 111 44 0 1 24 10 0 3 0 0 0 0 0 0 0 0 0 0 0 0 0 0 0
36 48 50 28 38 76 105 131 199 215 228 125 42 18 57 104 27 0 53 70 376 317 130 96 45 12 0 0 0 0 0 0 0 0 0 0 0 0 0 0 0 0 0 0 0 0 0
38 52 29 27 27 54 35 29 131 167 129 170 116 21 27 89 97 125 58 55 138 26 27 10 0 0 0 0 0 0 0 0 0 0 0 0 0 0 0 0 0 0 0 0 0 0 0
32 55 27 19 16 27 38 57 36 50 36 68 47 43 113 159 18 8 15 21 0 0 0 0 0 0 0 0 0 0 0 0 0 0 0 0 0 0 0 0 0 0 0 0 0 0 0
18 46 20 18 10 8 17 29 42 39 30 63 52 38 50 166 45 48 0 0 0 0 0 0 0 0 0 0 0 0 0 0 0 0 0 0 0 0 0 0 0 0 0 0 0 0 0
5 51 29 22 9 4 3 15 29 28 13 71 89 32 42 37 6 0 0 0 0 0 0 0 0 0 0 0 0 0 0 0 0 0 0 0 0 0 0 0 0 0 0 0 0 0 0
3 54 46 22 10 1 0 0 0 0 0 4 38 31 19 0 0 0 0 0 0 0 0 0 0 0 0 0 0 0 0 0 0 0 0 0 0 0 0 0 0 0 0 0 0 0 0
18 1 56 27 12 2 0 0 0 0 0 0 0 14 0 0 0 0 0 0 0 0 0 0 0 0 0 0 0 0 0 0 0 0 0 0 0 0 0 0 0 0 0 0 0 0 0
0 0 26 36 26 4 0 0 0 0 0 0 0 0 0 0 0 0 0 0 0 0 0 0 0 0 0 0 0 0 0 0 0 0 0 0 0 0 0 0 0 0 0 0 0 0 0
0 0 1 37 46 34 5 0 0 0 0 0 0 0 0 0 0 0 0 0 0 0 0 0 0 0 0 0 0 0 0 0 0 0 0 0 0 0 0 0 0 0 0 0 0 0 1
0 0 0 10 36 36 37 11 0 0 0 0 0 0 0 0 0 0 0 0 0 0 0 0 0 0 0 0 0 0 0 0 0 0 0 0 0 0 0 0 0 0 0 0 0 0 0
0 0 0 0 25 33 19 23 0 0 0 0 0 0 0 0 0 0 0 0 0 0 0 0 0 0 0 0 0 0 0 0 0 0 0 0 0 0 0 0 0 0 0 0 0 0 0
0 0 0 0 0 28 24 10 2 0 0 0 0 0 0 0 0 0 0 0 0 0 0 0 0 0 0 0 0 0 0 0 0 0 0 0 0 0 0 0 0 0 0 0 0 0 0
0 0 0 0 0 0 15 5 6 0 0 0 0 0 0 0 0 0 0 0 0 0 0 0 0 0 0 0 5 0 0 0 0 0 0 0 0 0 0 0 0 0 0 0 0 0 0
0 0 0 0 0 0 0 0 0 0 0 0 0 0 0 0 0 0 0 0 0 0 0 0 0 0 0 0 0 0 0 0 0 0 0 0 0 0 0 0 0 0 0 0 0 0 0
0 0 0 0 0 0 0 5 0 0 0 0 0 0 0 0 0 0 0 0 0 0 0 0 0 0 0 0 0 0 0 0 0 0 0 0 0 0 0 0 0 0 0 0 0 0 0
0 0 0 0 0 0 4 12 0 0 0 0 0 0 0 0 0 0 0 0 0 0 0 0 0 0 0 0 0 0 0 0 0 0 0 0 0 0 0 0 0 0 0 0 0 0 0
0 0 0 0 0 0 0 0 0 0 0 0 0 0 0 0 0 0 0 0 0 0 0 0 0 0 0 0 0 0 0 0 0 0 0 0 0 0 0 0 0 0 0 0 0 0 0
0 0 0 0 0 0 0 0 0 0 0 0 0 0 0 0 0 0 0 0 0 0 0 0 0 0 0 0 0 0 0 0 0 0 0 0 0 0 0 0 0 0 0 0 0 0 0
0 0 0 0 0 0 0 0 0 0 0 0 0 0 0 0 0 0 0 0 0 0 0 0 0 0 0 0 0 0 0 0 0 0 0 0 0 0 0 0 0 0 0 0 0 0 0
0 0 0 0 0 0 0 0 0 0 0 0 0 0 0 0 0 0 0 0 0 0 0 0 0 0 0 0 0 0 0 0 0 0 0 0 0 0 0 0 0 0 0 0 0 0 0
0 0 0 0 0 0 0 0 0 0 0 0 0 0 0 0 0 0 0 0 0 0 0 0 0 0 0 0 0 0 0 0 0 0 0 0 0 0 0 0 0 0 0 0 0 0 0
0 0 0 0 0 0 0 0 0 0 0 0 0 0 0 0 0 0 0 0 0 0 0 0 0 0 0 0 0 0 0 0 0 0 0 0 0 0 0 0 0 0 0 0 0 0 0
0 1 0 0 0 0 0 0 0 0 0 0 0 0 0 0 0 0 0 0 0 0 0 0 0 0 0 0 0 0 0 0 0 0 0 0 0 0 0 0 0 0 0 0 0 0 0
0 6 0 0 0 0 0 0 0 0 0 0 0 0 0 0 0 0 0 0 0 0 0 0 0 0 0 0 0 0 0 0 0 0 0 0 0 0 0 0 0 0 0 0 0 0 0
1 10 8 5 0 0 0 0 0 0 0 0 0 0 0 0 0 0 0 0 0 0 0 0 0 0 0 0 0 0 0 0 0 0 0 0 0 0 0 0 0 0 0 0 0 0 0

GFSGBSN_con_mucape_117.txt.gz
CAPE
41 41 41 38 36 39 170 240 238 269 306 293 210 125 95 64 67 35 60 87 106 76 0 0 0 73 0 0 0 0 34 0 0 0 0 0 0 0 0 0 0 0 0 0 0 0 0
38 44 49 30 36 66 115 125 245 292 306 273 139 58 36 35 42 12 25 37 57 67 8 0 119 68 2 0 0 33 4 0 0 0 0 0 0 0 0 0 0 0 0 0 0 0 0
39 42 48 30 45 36 39 108 138 199 196 117 38 17 27 21 19 45 58 78 62 52 14 34 89 22 5 0 30 53 8 0 0 0 0 0 0 0 0 0 0 0 0 0 0 0 0
33 40 29 21 40 48 29 24 56 40 176 115 51 92 70 20 32 41 34 21 4 13 0 5 90 0 0 7 36 0 0 0 0 0 0 0 0 0 0 0 0 0 0 0 0 0 0
39 48 35 27 32 47 27 21 20 13 8 28 83 129 97 117 9 61 153 382 388 85 70 85 9 0 0 0 0 0 0 0 1 0 0 0 0 0 0 0 0 0 0 0 0 0 0
42 39 41 32 37 13 22 39 31 14 23 10 41 119 109 184 193 114 207 16 28 0 0 4 8 0 0 0 1 0 4 1 0 0 0 0 0 0 0 0 0 0 0 0 0 0 0
40 44 32 35 21 15 19 17 7 24 47 12 30 58 102 34 7 11 0 0 0 0 0 0 0 0 0 0 0 0 0 0 0 0 0 0 0 0 0 0 0 0 0 0 0 0 0
20 35 16 36 23 26 17 18 10 8 35 14 21 59 36 41 30 3 0 0 0 0 0 0 0 0 0 0 0 0 0 0 0 0 0 0 0 0 0 0 0 0 0 0 0 0 0
10 26 36 20 27 22 17 4 2 1 6 11 0 15 39 0 3 0 0 0 0 0 0 0 0 0 0 0 0 0 0 0 0 0 0 0 0 0 0 0 0 0 0 0 0 0 0
16 14 31 30 18 19 18 10 1 0 0 0 0 0 1 0 0 0 0 0 0 0 0 0 0 0 0 0 0 0 0 0 0 0 0 0 0 0 0 0 0 0 0 0 0 0 0
0 16 15 21 32 25 16 10 6 0 0 0 0 0 0 0 0 0 0 0 0 0 0 0 0 0 0 0 0 0 0 0 0 0 0 0 0 0 0 0 0 0 0 0 0 0 0
0 2 10 14 22 31 31 26 6 3 0 0 0 0 0 0 0 0 0 0 0 0 0 0 0 0 0 0 0 0 0 0 0 0 0 0 0 0 0 0 0 0 0 0 0 0 0
0 0 13 12 6 13 24 28 19 3 0 0 0 0 0 0 0 0 0 0 0 0 0 0 0 0 0 0 0 0 0 0 0 0 0 0 0 0 0 0 0 0 0 0 0 0 0
0 0 0 15 17 9 11 24 12 7 0 0 0 0 0 0 0 0 0 0 0 0 0 0 0 0 0 0 0 0 0 0 0 0 0 0 0 0 0 0 0 0 0 0 0 0 0
0 0 0 0 15 19 15 14 1 8 7 0 0 0 0 0 0 0 0 0 0 0 0 0 0 0 0 0 0 0 0 0 0 0 0 0 0 0 0 0 0 0 0 0 0 0 0
0 0 0 0 0 18 4 2 6 0 0 0 0 0 0 0 0 0 0 0 0 0 0 0 0 0 0 0 0 0 0 0 1 0 0 0 0 0 0 0 0 0 0 0 0 0 0
0 0 0 0 0 0 20 1 0 0 0 0 0 0 0 0 0 0 0 0 0 0 0 0 0 0 0 0 0 0 0 0 0 0 0 0 0 0 0 0 0 0 0 0 0 0 0
0 0 0 0 0 0 4 20 0 0 0 0 0 0 0 0 0 0 0 0 0 0 0 0 0 0 0 0 0 0 0 0 0 0 0 0 0 0 0 0 0 0 0 0 0 0 0
0 0 0 0 0 0 4 5 0 0 0 0 0 0 0 0 0 0 0 0 0 0 0 0 0 0 0 0 0 0 0 0 0 0 0 0 0 0 0 0 0 0 0 0 0 0 0
0 0 0 0 0 0 0 9 10 0 0 0 0 0 0 0 0 0 0 0 0 0 0 0 0 0 0 0 0 0 0 0 0 0 0 0 0 0 0 0 0 0 0 0 0 0 0
0 0 0 0 0 0 0 2 1 0 0 0 0 0 0 0 0 0 0 0 0 0 0 0 0 0 0 0 0 0 0 0 0 0 0 0 0 0 0 0 0 0 0 0 0 0 0
0 0 0 0 0 0 0 0 0 0 0 0 0 0 0 0 0 0 0 0 0 0 0 0 0 0 0 0 0 0 0 0 0 0 0 0 0 0 0 0 0 0 0 0 0 0 0
0 0 0 0 0 0 0 0 0 0 0 0 0 0 0 0 0 0 0 0 0 0 0 0 0 0 0 0 0 0 0 0 0 0 0 0 0 0 0 0 0 0 0 0 0 0 0
0 0 0 0 0 0 0 0 0 0 0 0 0 0 0 0 0 0 0 0 0 0 0 0 0 0 0 0 0 0 0 0 0 0 0 0 0 0 0 0 0 0 0 0 0 0 0
0 0 0 0 0 0 0 0 0 0 0 0 0 0 0 0 0 0 0 0 0 0 0 0 0 0 0 0 0 0 0 0 0 0 0 0 0 0 0 0 0 0 0 0 0 0 0
0 0 0 0 4 0 0 0 0 0 0 0 0 0 0 0 0 0 0 0 0 0 0 0 0 0 0 0 0 0 0 0 0 0 0 0 0 0 0 0 0 0 0 0 0 0 0
0 0 0 0 0 0 0 0 0 0 0 0 0 0 0 0 0 0 0 0 0 0 0 0 0 0 0 0 0 0 0 0 0 0 0 0 0 0 0 0 0 0 0 0 0 0 0
0 0 0 4 4 0 0 0 0 0 0 0 0 0 0 0 0 0 0 0 0 0 0 0 0 0 0 0 0 0 0 0 0 0 0 0 0 0 0 0 0 0 0 0 0 0 0
0 0 0 8 7 6 0 0 0 0 0 0 0 0 0 0 0 0 0 0 0 0 0 0 0 0 0 0 0 0 0 0 0 0 0 0 0 0 0 0 0 0 0 0 0 0 0